Date StartTime U_cm/s V_cm/s W_cm/s Ustd_cm/s Vstd_cm/s Wstd_cm/s Uvar_(cm/s)^2 Vvar_(cm/s)^2 Wvar_(cm/s)^2 KE_(m/s)^2 TurbulentKE_(m/s)^2 HorizWindSpeed_cm/s FrictionSpeec_cm/s DragCoef SpeedOfSound_m/s SonicTemperature_C Pressure_mb 
05/16/2013  00:00:00     -284.764      -12.173      -21.950       86.158      108.590       49.927     7423.244    11791.878     2492.750        5.171        1.085      285.024       38.252        0.018      340.815       15.092      860.410
05/16/2013  00:01:00     -266.026       -0.679      -21.848      153.045       90.956       51.650    23422.873     8272.912     2667.736        5.280        1.718      266.027       68.904        0.067      340.809       15.086      860.404
05/16/2013  00:02:00     -336.503      -47.194      -30.027      100.661       63.957       51.512    10132.564     4090.474     2653.509        6.662        0.844      339.796       48.426        0.020      340.796       15.060      860.395
05/16/2013  00:03:00     -157.791      -54.556        4.736       89.211       67.637       50.604     7958.581     4574.792     2560.716        2.149        0.755      166.956       39.697        0.057      340.729       14.948      860.394
05/16/2013  00:04:00     -258.846      -91.968       -9.765       91.751       79.152       49.852     8418.310     6265.005     2485.196        4.636        0.858      274.699       34.112        0.015      340.770       15.016      860.395
05/16/2013  00:05:00     -246.818      -76.497       -7.452       87.885       69.312       38.189     7723.730     4804.203     1458.438        4.040        0.699      258.401       30.621        0.014      340.785       15.040      860.393
05/16/2013  00:06:00     -287.215      -87.974      -20.692       78.223       68.688       39.138     6118.808     4718.023     1531.784        5.151        0.618      300.387       38.890        0.017      340.757       14.994      860.377
05/16/2013  00:07:00     -233.710      -76.278       -4.147      118.916       89.053       49.412    14140.947     7930.425     2441.587        4.248        1.226      245.843       56.808        0.053      340.734       14.956      860.373
05/16/2013  00:08:00     -315.927      -22.092      -14.196      103.017       90.527       42.557    10612.505     8195.107     1811.062        6.056        1.031      316.698       42.998        0.018      340.760       14.999      860.363
05/16/2013  00:09:00     -311.039      -18.027      -36.841      120.762      103.795       46.960    14583.503    10773.420     2205.286        6.299        1.378      311.561       31.918        0.010      340.780       15.034      860.348
05/16/2013  00:10:00     -258.977      -78.880      -30.525       86.514      100.710       44.440     7484.601    10142.535     1974.878        4.691        0.980      270.723       37.907        0.020      340.814       15.092      860.355
05/16/2013  00:11:00     -236.327      -68.048      -14.788      121.918      104.363       57.066    14863.915    10891.645     3256.512        4.485        1.451      245.928       59.179        0.058      340.744       14.974      860.367
05/16/2013  00:12:00     -358.495       24.826      -42.622       89.630       80.016       45.152     8033.612     6402.611     2038.727        7.371        0.824      359.353       32.311        0.008      340.794       15.057      860.372
05/16/2013  00:13:00     -194.430      -75.953       -2.773       94.238       74.498       44.381     8880.805     5549.972     1969.634        2.999        0.820      208.739       44.591        0.046      340.743       14.970      860.366
05/16/2013  00:14:00     -264.495      -87.154       -1.254      107.560       85.501       41.532    11569.090     7310.421     1724.918        4.908        1.030      278.484       46.226        0.028      340.746       14.976      860.375
05/16/2013  00:15:00     -291.739      -41.047      -13.725      113.353      115.101       53.438    12848.813    13248.250     2855.664        5.796        1.448      294.612       47.616        0.026      340.756       14.992      860.362
05/16/2013  00:16:00     -273.718      -78.503       -8.926       97.593       97.408       51.307     9524.429     9488.224     2632.415        5.140        1.082      284.753       52.773        0.034      340.783       15.039      860.354
05/16/2013  00:17:00     -246.667      -51.098       -7.510      104.079       76.783       49.081    10832.359     5895.672     2408.897        4.132        0.957      251.904       49.199        0.038      340.757       14.995      860.348
05/16/2013  00:18:00     -299.828      -59.486      -25.812       89.922       66.343       43.403     8085.988     4401.425     1883.822        5.423        0.719      305.672       39.802        0.017      340.746       14.978      860.352
05/16/2013  00:19:00     -241.709      -48.846       -2.736       84.202       91.470       46.755     7089.957     8366.695     2186.009        3.923        0.882      246.595       46.610        0.036      340.733       14.956      860.345
05/16/2013  00:20:00     -208.305      -51.121      -10.251      126.783       78.574       46.078    16073.822     6173.843     2123.170        3.524        1.219      214.486       52.974        0.061      340.728       14.946      860.336
05/16/2013  00:21:00     -235.781        0.006       -9.042      112.571       61.308       51.829    12672.279     3758.709     2686.203        3.739        0.956      235.781       50.802        0.046      340.729       14.948      860.338
05/16/2013  00:22:00     -200.924      -90.582      -11.749      103.005       77.091       55.363    10609.966     5943.015     3065.014        3.416        0.981      220.398       49.489        0.050      340.717       14.927      860.331
05/16/2013  00:23:00     -279.422      -58.749      -15.185      114.426       77.795       45.463    13093.250     6052.003     2066.872        5.148        1.061      285.531       55.676        0.038      340.737       14.960      860.327
05/16/2013  00:24:00     -302.689      -64.316      -18.354       99.786       78.221       53.009     9957.205     6118.474     2809.907        5.749        0.944      309.447       55.593        0.032      340.714       14.924      860.329
05/16/2013  00:25:00     -254.307      -49.559       -6.588      110.090       78.287       49.140    12119.785     6128.870     2414.714        4.391        1.033      259.091       59.073        0.052      340.706       14.907      860.335
05/16/2013  00:26:00     -170.672      -63.841        0.373       75.918       81.486       38.646     5763.562     6639.917     1493.508        2.355        0.695      182.222       33.848        0.035      340.685       14.875      860.332
05/16/2013  00:27:00     -207.726     -114.801      -14.075       77.470       73.877       52.317     6001.623     5457.771     2737.055        3.536        0.710      237.338       40.859        0.030      340.715       14.925      860.319
05/16/2013  00:28:00     -243.840      -58.168       -7.075      107.090       86.556       56.530    11468.207     7491.893     3195.669        4.252        1.108      250.682       49.359        0.039      340.721       14.933      860.316
05/16/2013  00:29:00     -206.235      -51.623      -11.616       97.576       83.241       47.105     9521.027     6929.058     2218.904        3.200        0.933      212.597       48.746        0.053      340.710       14.917      860.327
05/16/2013  00:30:00     -182.131      -84.067      -12.622       86.355       88.090       48.052     7457.102     7759.932     2308.960        2.896        0.876      200.596       47.944        0.057      340.669       14.846      860.327
05/16/2013  00:31:00     -213.496      -16.566      -11.227       70.175       73.622       40.711     4924.505     5420.183     1657.352        2.899        0.600      214.138       35.111        0.027      340.656       14.825      860.332
05/16/2013  00:32:00     -217.533      -25.678      -19.540       97.685       80.730       42.348     9542.432     6517.322     1793.357        3.310        0.893      219.043       50.178        0.052      340.680       14.866      860.332
05/16/2013  00:33:00     -191.963      -55.419       -0.491       90.649       98.735       40.999     8217.173     9748.568     1680.910        2.978        0.982      199.803       44.780        0.050      340.651       14.816      860.335
05/16/2013  00:34:00     -175.547       -6.614       -8.251       68.719       69.293       34.374     4722.355     4801.524     1181.605        2.082        0.535      175.671       30.238        0.030      340.629       14.780      860.324
05/16/2013  00:35:00     -123.062      -47.800        3.693      133.713       50.018       48.761    17879.265     2501.795     2377.681        2.010        1.138      132.020       72.088        0.298      340.630       14.783      860.315
05/16/2013  00:36:00     -211.596      -11.406      -15.128       95.042       79.083       35.766     9032.944     6254.173     1279.226        3.085        0.828      211.904       33.133        0.024      340.651       14.815      860.308
05/16/2013  00:37:00     -118.395      -82.596       -0.274       77.797       60.460       36.980     6052.402     3655.472     1367.500        1.596        0.554      144.359       35.067        0.059      340.646       14.810      860.305
05/16/2013  00:38:00     -100.807      -47.221        4.025       75.446       72.778       42.224     5692.061     5296.587     1782.859        1.259        0.639      111.319       48.770        0.192      340.620       14.766      860.306
05/16/2013  00:39:00     -100.389      -77.881       21.877      123.382       84.368       57.492    15223.184     7118.017     3305.303        2.113        1.282      127.057       74.757        0.346      340.644       14.806      860.297
05/16/2013  00:40:00     -178.278     -106.273        3.297      116.499       70.334       45.547    13572.122     4946.910     2074.546        3.184        1.030      207.550       39.587        0.036      340.615       14.754      860.296
05/16/2013  00:41:00     -192.884     -110.186       -2.744      106.102       75.075       44.176    11257.544     5636.238     1951.534        3.410        0.942      222.137       54.378        0.060      340.642       14.799      860.287
05/16/2013  00:42:00     -151.502      -58.175       -6.093       92.967       59.922       36.234     8642.829     3590.632     1312.921        1.996        0.677      162.287       35.743        0.049      340.591       14.715      860.278
05/16/2013  00:43:00      -79.210      -68.621        0.887      104.599       81.533       45.407    10940.942     6647.598     2061.750        1.531        0.983      104.800       54.408        0.270      340.607       14.742      860.254
05/16/2013  00:44:00     -117.299      -43.816        2.913       72.062       77.540       43.884     5192.922     6012.411     1925.804        1.441        0.657      125.215       49.717        0.158      340.576       14.690      860.246
05/16/2013  00:45:00     -144.162      -47.732      -12.556       53.406       40.727       32.410     2852.219     1658.699     1050.424        1.439        0.278      151.859       24.930        0.027      340.588       14.712      860.245
05/16/2013  00:46:00      -86.411      -51.664        1.718       49.552       47.275       28.288     2455.400     2234.904      800.186        0.781        0.275      100.678       28.619        0.081      340.552       14.652      860.235
05/16/2013  00:47:00     -104.071      -36.601       -3.679       71.522       55.605       40.560     5115.331     3091.875     1645.109        1.102        0.493      110.320       28.612        0.067      340.552       14.650      860.226
05/16/2013  00:48:00     -134.522      -58.538        2.743       67.343       55.030       32.992     4535.131     3028.254     1088.505        1.509        0.433      146.707       24.943        0.029      340.507       14.575      860.220
05/16/2013  00:49:00     -130.185      -78.949        6.111       71.702       55.013       41.385     5141.158     3026.436     1712.755        1.655        0.494      152.254       42.170        0.077      340.486       14.538      860.223
05/16/2013  00:50:00     -173.396      -90.780       -8.523       89.653       69.741       43.259     8037.706     4863.823     1871.359        2.657        0.739      195.722       32.640        0.028      340.517       14.589      860.224
05/16/2013  00:51:00     -122.221      -71.995        1.154       73.811       57.981       33.149     5448.108     3361.746     1098.874        1.501        0.495      141.850       32.224        0.052      340.510       14.579      860.224
05/16/2013  00:52:00     -160.527      -33.958       -0.769       75.045       57.086       35.453     5631.694     3258.808     1256.949        1.853        0.507      164.080       39.414        0.058      340.503       14.567      860.237
05/16/2013  00:53:00     -124.664      -58.228       -2.009       78.081       62.981       37.517     6096.616     3966.627     1407.525        1.520        0.574      137.592       26.198        0.036      340.469       14.509      860.237
05/16/2013  00:54:00     -121.125      -67.933        7.887      117.860       69.537       48.989    13891.025     4835.454     2399.909        2.023        1.056      138.875       65.733        0.224      340.463       14.500      860.235
05/16/2013  00:55:00     -117.784      -70.240        3.015       84.853       67.134       34.200     7200.088     4506.993     1169.627        1.584        0.644      137.138       40.913        0.089      340.470       14.512      860.234
05/16/2013  00:56:00     -226.466     -162.801      -15.605       91.068       72.327       52.157     8293.333     5231.193     2720.346        4.714        0.812      278.910       54.963        0.039      340.454       14.482      860.229
05/16/2013  00:57:00     -229.787      -35.136       -9.890       82.304       44.087       41.310     6773.938     1943.684     1706.507        3.228        0.521      232.458       46.281        0.040      340.477       14.522      860.224
05/16/2013  00:58:00     -116.051      -49.130        3.935      101.996       64.878       43.235    10403.215     4209.125     1869.233        1.619        0.824      126.022       49.631        0.155      340.474       14.518      860.220
05/16/2013  00:59:00     -188.754     -122.020       -5.934       85.799       81.214       46.479     7361.473     6595.780     2160.263        3.333        0.806      224.759       41.994        0.035      340.433       14.446      860.234
05/16/2013  01:00:00     -182.512      -73.917        0.401      120.362       85.151       60.716    14487.071     7250.747     3686.384        3.210        1.271      196.912       51.018        0.067      340.505       14.568      860.220
05/16/2013  01:01:00     -182.495      -60.757       -9.869       70.301       60.560       42.182     4942.216     3667.482     1779.334        2.374        0.519      192.343       35.666        0.034      340.506       14.572      860.208
05/16/2013  01:02:00     -100.599      -56.242        4.991       75.989       67.408       45.574     5774.377     4543.870     2076.989        1.285        0.620      115.253       40.093        0.121      340.429       14.443      860.211
05/16/2013  01:03:00     -120.948      -67.393       -4.887       72.594       58.809       33.213     5269.817     3458.485     1103.116        1.451        0.492      138.457       33.967        0.060      340.439       14.460      860.207
05/16/2013  01:04:00     -166.038     -125.487       -4.846       98.076       68.230       47.767     9618.815     4655.282     2281.665        2.994        0.828      208.124       52.256        0.063      340.453       14.480      860.214
05/16/2013  01:05:00     -201.407      -78.744      -11.258       92.472       59.443       39.495     8551.127     3533.474     1559.875        3.027        0.682      216.253       41.986        0.038      340.444       14.464      860.212
05/16/2013  01:06:00      -94.033      -84.516        7.196       69.579       56.534       39.936     4841.246     3196.115     1594.881        1.283        0.482      126.432       45.266        0.128      340.444       14.467      860.205
05/16/2013  01:07:00     -197.134      -54.791       -6.543       81.514       62.849       48.698     6644.576     3949.992     2371.452        2.743        0.648      204.607       50.016        0.060      340.406       14.401      860.203
05/16/2013  01:08:00     -169.322      -42.484      -14.701       63.337       54.266       37.853     4011.517     2944.829     1432.856        1.954        0.419      174.570       36.851        0.045      340.395       14.385      860.197
05/16/2013  01:09:00     -122.598      -69.107      -11.629       60.799       46.218       33.295     3696.499     2136.063     1108.537        1.344        0.347      140.734       37.486        0.071      340.429       14.441      860.196
05/16/2013  01:10:00     -216.476      -99.883       -4.476       91.674       78.407       41.342     8404.066     6147.719     1709.185        3.656        0.813      238.408       43.343        0.033      340.409       14.405      860.194
05/16/2013  01:11:00     -121.568      -61.153      -20.084       72.481       29.688       31.691     5253.494      881.351     1004.350        1.303        0.357      136.083       26.947        0.039      340.440       14.462      860.187
05/16/2013  01:12:00     -108.366      -71.126        4.007       59.207       56.125       32.554     3505.450     3149.961     1059.731        1.227        0.386      129.623       31.827        0.060      340.372       14.346      860.175
05/16/2013  01:13:00     -102.392      -60.688        8.434       56.853       67.337       31.067     3232.232     4534.243      965.170        1.148        0.437      119.026       31.337        0.069      340.352       14.314      860.153
05/16/2013  01:14:00     -100.256      -16.662       -3.636       33.868       28.249       22.450     1147.031      797.999      504.024        0.640        0.122      101.631       15.591        0.024      340.346       14.302      860.138
05/16/2013  01:15:00      -78.640      -43.746        1.734       32.669       36.819       18.574     1067.260     1355.629      344.994        0.543        0.138       89.988       18.196        0.041      340.312       14.245      860.137
05/16/2013  01:16:00      -24.887      -54.553        9.203       26.611       42.088       19.529      708.132     1771.380      381.392        0.327        0.143       59.962       12.766        0.045      340.392       14.381      860.130
05/16/2013  01:17:00      -43.805      -61.389       -5.643       33.582       38.087       18.894     1127.754     1450.642      356.979        0.433        0.147       75.415       20.452        0.074      340.396       14.388      860.122
05/16/2013  01:18:00      -32.174       -6.327       -0.421       18.545       35.439       14.274      343.912     1255.919      203.751        0.144        0.090       32.791        9.927        0.092      340.324       14.266      860.117
05/16/2013  01:19:00       -6.602      -39.746        1.695       22.204       39.178       17.280      492.996     1534.898      298.597        0.198        0.116       40.290       14.820        0.135      340.350       14.308      860.114
05/16/2013  01:20:00      -30.126      -34.156        0.670       34.611       18.357        9.913     1197.937      336.984       98.271        0.185        0.082       45.544        9.904        0.047      340.364       14.333      860.105
05/16/2013  01:21:00      -28.848      -64.912        2.454       27.576       33.618       16.452      760.459     1130.164      270.675        0.361        0.108       71.034       14.415        0.041      340.363       14.331      860.098
05/16/2013  01:22:00      -31.645       34.651       12.194       31.136       20.294       19.314      969.430      411.835      373.028        0.205        0.088       46.926       16.118        0.118      340.269       14.172      860.087
05/16/2013  01:23:00      -25.487       25.650       11.250       28.995       17.847       13.057      840.687      318.525      170.491        0.138        0.066       36.159       15.244        0.178      340.207       14.067      860.084
05/16/2013  01:24:00       -1.688        1.969        0.716       13.065        8.141       11.323      170.704       66.282      128.213        0.019        0.018        2.594       11.005       18.006      340.150       13.971      860.074
05/16/2013  01:25:00        9.505       15.444       14.496       22.337       16.262       19.191      498.937      264.444      368.286        0.084        0.057       18.134       13.284        0.537      340.285       14.199      860.066
05/16/2013  01:26:00       -2.193       23.379       12.766       14.334       13.103       14.239      205.459      171.700      202.742        0.065        0.029       23.482        6.705        0.082      340.180       14.021      860.064
05/16/2013  01:27:00        4.846       15.347       11.400       12.395       15.114       10.336      153.640      228.428      106.842        0.044        0.024       16.094        8.162        0.257      340.159       13.986      860.052
05/16/2013  01:28:00       33.768       22.720       -0.634       16.743       15.324       10.552      280.334      234.838      111.339        0.114        0.031       40.700        7.877        0.037      340.149       13.969      860.032
05/16/2013  01:29:00       63.196       43.601        8.045       18.395       17.241       19.113      338.373      297.252      365.309        0.348        0.050       76.777       10.789        0.020      340.106       13.898      860.016
05/16/2013  01:30:00       22.595       42.231       48.127       34.023       24.751       16.722     1157.564      612.594      279.632        0.333        0.102       47.896       11.954        0.062      340.158       13.985      859.999
05/16/2013  01:31:00       42.135       57.445       69.192       42.990       36.907       23.328     1848.156     1362.115      544.189        0.681        0.188       71.241       20.252        0.081      340.198       14.051      859.990
05/16/2013  01:32:00       74.512       65.522       61.020       35.955       33.105       29.797     1292.776     1095.953      887.842        0.842        0.164       99.222       16.847        0.029      340.176       14.015      859.992
05/16/2013  01:33:00       56.767       28.136       36.961       23.229       17.167       23.090      539.588      294.690      533.140        0.337        0.068       63.357       17.019        0.072      340.011       13.738      859.997
05/16/2013  01:34:00       19.840       14.804       20.092       33.491       24.932       14.760     1121.649      621.580      217.846        0.149        0.098       24.754       11.220        0.205      339.991       13.703      859.985
05/16/2013  01:35:00       77.718       56.652       19.092       22.323       15.524       19.841      498.315      241.002      393.677        0.537        0.057       96.175       11.332        0.014      339.944       13.624      859.961
05/16/2013  01:36:00       74.271       49.200       10.344       35.495       24.513       32.259     1259.900      600.902     1040.645        0.547        0.145       89.089       26.305        0.087      340.008       13.733      859.944
05/16/2013  01:37:00       48.580       37.419        4.150       22.657       15.574       21.765      513.323      242.555      473.704        0.250        0.061       61.321       10.052        0.027      340.012       13.738      859.939
05/16/2013  01:38:00       72.988       44.180        5.602       16.843       18.829       14.482      283.686      354.546      209.723        0.408        0.042       85.318        9.681        0.013      339.991       13.703      859.931
05/16/2013  01:39:00       85.958       41.102       18.478       24.682       21.019       22.440      609.194      441.798      503.560        0.549        0.078       95.279       15.676        0.027      340.070       13.836      859.919
05/16/2013  01:40:00       43.345       32.578       12.804       17.096       14.387       15.473      292.270      206.980      239.409        0.192        0.037       54.223        8.601        0.025      339.954       13.642      859.929
05/16/2013  01:41:00       48.028       26.764        0.630       20.974       15.842        8.970      439.921      250.971       80.454        0.190        0.039       54.982        7.181        0.017      339.912       13.570      859.931
05/16/2013  01:42:00       44.087       18.652        5.647       22.134       15.419       11.912      489.907      237.737      141.906        0.160        0.043       47.870       11.850        0.061      339.880       13.518      859.921
05/16/2013  01:43:00        9.006       13.528        3.024       11.907       12.220       13.241      141.773      149.330      175.322        0.037        0.023       16.251        5.777        0.126      339.802       13.387      859.920
05/16/2013  01:44:00        3.187       10.375        4.015       10.030        8.003        8.162      100.602       64.049       66.622        0.018        0.012       10.854        5.584        0.265      339.787       13.361      859.922
05/16/2013  01:45:00       33.826       16.647       17.219       20.023       16.710       13.645      400.918      279.214      186.176        0.129        0.043       37.700        7.508        0.040      339.815       13.407      859.913
05/16/2013  01:46:00        9.972       13.386       14.016       18.254       18.677       12.793      333.193      348.816      163.663        0.066        0.042       16.692       11.222        0.452      339.776       13.341      859.902
05/16/2013  01:47:00       -0.569        0.487        5.495       10.099        9.086        5.381      101.986       82.560       28.952        0.012        0.011        0.749        2.988       15.893      339.770       13.334      859.896
05/16/2013  01:48:00       -3.791       -1.653       -0.059        9.643        8.233        6.700       92.991       67.785       44.889        0.011        0.010        4.136        7.107        2.953      339.853       13.472      859.884
05/16/2013  01:49:00        3.555       21.457        6.148        5.477        7.295       11.358       29.995       53.222      129.009        0.036        0.011       21.750        5.262        0.059      339.951       13.636      859.860
05/16/2013  01:50:00        0.726       23.418       14.232       11.318       17.153       10.234      128.093      294.229      104.738        0.064        0.026       23.430       10.727        0.210      339.933       13.606      859.840
05/16/2013  01:51:00        4.272        1.784       16.275        9.692        7.879        7.398       93.925       62.081       54.736        0.025        0.011        4.629        5.334        1.327      339.823       13.421      859.825
05/16/2013  01:52:00       -5.865       30.270        5.753       11.477       24.068        9.006      131.715      579.264       81.117        0.089        0.040       30.833        6.110        0.039      339.901       13.553      859.811
05/16/2013  01:53:00       -3.419       -3.159       -1.229        7.279       16.563        7.534       52.991      274.342       56.757        0.020        0.019        4.654        3.526        0.574      339.902       13.555      859.798
05/16/2013  01:54:00      -16.210      -21.385       -4.591       10.873        8.999        7.751      118.221       80.976       60.071        0.050        0.013       26.834        6.002        0.050      340.048       13.801      859.793
05/16/2013  01:55:00        3.722      -28.101        0.683        8.279       17.305        8.847       68.540      299.452       78.271        0.063        0.022       28.347        8.105        0.082      340.091       13.873      859.786
05/16/2013  01:56:00        5.743      -24.882       -5.715       10.545        7.040        6.951      111.188       49.564       48.314        0.045        0.010       25.536        5.514        0.047      340.208       14.069      859.783
05/16/2013  01:57:00       -8.030       -9.628        4.662       10.684        8.490        5.704      114.149       72.086       32.540        0.020        0.011       12.537        5.588        0.199      340.216       14.082      859.781
05/16/2013  01:58:00       13.654      -10.395        5.218        9.828       21.089       10.822       96.589      444.762      117.114        0.049        0.033       17.161        4.933        0.083      340.194       14.046      859.772
05/16/2013  01:59:00       55.832       26.056       13.984       22.183       15.716       14.961      492.094      247.003      223.822        0.248        0.048       61.613       13.607        0.049      340.041       13.788      859.757
05/16/2013  02:00:00       42.248       14.993       14.501       26.133       16.185       19.067      682.945      261.958      363.553        0.176        0.065       44.830       16.548        0.136      340.116       13.913      859.751
05/16/2013  02:01:00        1.162      -16.949        2.451        9.627       18.310       11.324       92.681      335.270      128.243        0.043        0.028       16.989        9.088        0.286      340.216       14.084      859.749
05/16/2013  02:02:00        3.081      -34.543        7.295       20.777       18.855       16.641      431.666      355.522      276.910        0.116        0.053       34.680       13.626        0.154      340.323       14.265      859.741
05/16/2013  02:03:00       -0.337        6.753       21.598       10.980       13.000       11.588      120.569      168.995      134.288        0.047        0.021        6.761        6.235        0.850      340.247       14.136      859.736
05/16/2013  02:04:00       -8.228       -2.377       34.575       12.086       22.686       15.092      146.073      514.663      227.757        0.108        0.044        8.565       10.832        1.600      340.344       14.300      859.718
05/16/2013  02:05:00       -7.068      -28.521        4.557       20.238       21.068       18.967      409.564      443.877      359.762        0.105        0.061       29.384       10.640        0.131      340.348       14.307      859.713
05/16/2013  02:06:00      -47.105      -30.863       -0.702       18.666       17.225       12.088      348.406      296.707      146.110        0.198        0.040       56.315       10.634        0.036      340.015       13.744      859.724
05/16/2013  02:07:00      -59.166      -11.683       -5.730       16.141       11.797       10.842      260.546      139.173      117.556        0.209        0.026       60.308        8.653        0.021      340.038       13.783      859.718
05/16/2013  02:08:00      -24.566       13.684        2.572       15.560        8.875        5.587      242.126       78.763       31.217        0.057        0.018       28.120        4.261        0.023      340.108       13.902      859.709
05/16/2013  02:09:00       39.684       30.059        8.605       23.717       10.694        8.579      562.478      114.357       73.604        0.165        0.038       49.783       10.116        0.041      340.133       13.943      859.688
05/16/2013  02:10:00       47.491       28.810       14.682       21.888       18.135       17.021      479.089      328.862      289.713        0.220        0.055       55.547        3.595        0.004      340.164       13.996      859.663
05/16/2013  02:11:00       16.476       -3.558        9.906       22.541       18.931       12.071      508.115      358.371      145.703        0.070        0.051       16.856        9.462        0.315      340.112       13.907      859.645
05/16/2013  02:12:00        1.796       -9.972       18.855       11.502       13.900        7.458      132.293      193.212       55.620        0.042        0.019       10.132        4.477        0.195      340.135       13.946      859.637
05/16/2013  02:13:00       16.744       11.263       23.204       20.817       18.784       12.433      433.351      352.821      154.570        0.094        0.047       20.180       13.973        0.479      340.139       13.953      859.619
05/16/2013  02:14:00       26.612       13.678       23.977       23.091       20.791       18.369      533.215      432.276      337.407        0.139        0.065       29.921       13.024        0.189      340.124       13.926      859.595
05/16/2013  02:15:00       -4.189       30.226       41.149        9.934       20.804       12.252       98.687      432.809      150.108        0.165        0.034       30.515       14.594        0.229      340.120       13.921      859.574
05/16/2013  02:16:00       -8.254       -0.147        1.324       15.549       10.518       11.196      241.766      110.623      125.341        0.027        0.024        8.255        9.813        1.413      340.106       13.899      859.565
05/16/2013  02:17:00       27.917       20.627       18.268       27.674       22.136       18.212      765.831      490.007      331.670        0.156        0.079       34.710       21.456        0.382      340.082       13.857      859.556
05/16/2013  02:18:00        9.545       32.644       55.084       19.784       19.423       10.177      391.394      377.240      103.579        0.253        0.044       34.011        9.747        0.082      340.000       13.719      859.531
05/16/2013  02:19:00        8.615       12.535       44.337       17.510       31.806       18.733      306.586     1011.618      350.923        0.193        0.083       15.211       15.804        1.080      340.114       13.911      859.509
05/16/2013  02:20:00       -3.435      -13.386       29.180       10.484       29.038       16.073      109.923      843.208      258.348        0.113        0.061       13.820       14.889        1.161      340.181       14.024      859.506
05/16/2013  02:21:00      -27.076      -19.874        1.869       15.052       14.747       10.756      226.562      217.470      115.691        0.085        0.028       33.587        8.401        0.063      340.181       14.025      859.499
05/16/2013  02:22:00      -45.090       -9.120       -7.154       10.988       10.927        9.062      120.740      119.390       82.128        0.124        0.016       46.003        7.988        0.030      340.026       13.765      859.496
05/16/2013  02:23:00      -39.256        7.140        1.079       22.441       14.674       10.912      503.598      215.328      119.078        0.122        0.042       39.900       11.220        0.079      339.913       13.572      859.495
05/16/2013  02:24:00       -5.734        3.289       11.265       31.110       10.557       11.355      967.836      111.441      128.936        0.069        0.060        6.610       15.583        5.557      339.906       13.560      859.486
05/16/2013  02:25:00       45.014       29.872        6.952       21.727       12.281       10.291      472.074      150.814      105.898        0.185        0.036       54.024        7.595        0.020      339.959       13.650      859.470
05/16/2013  02:26:00       46.699       36.311       14.110       19.084       13.383       12.568      364.190      179.111      157.961        0.220        0.035       59.154       12.604        0.045      340.000       13.718      859.449
05/16/2013  02:27:00       14.646      -17.935        4.965       15.693       32.183       13.776      246.276     1035.764      189.780        0.102        0.074       23.155       18.225        0.619      340.106       13.897      859.446
05/16/2013  02:28:00       10.550      -23.322       -3.438       20.958       15.661       12.606      439.240      245.279      158.924        0.076        0.042       25.598        9.330        0.133      340.214       14.080      859.441
05/16/2013  02:29:00        1.237       -8.727       10.133       14.395       22.208       20.955      207.203      493.211      439.105        0.066        0.057        8.814       18.698        4.500      340.197       14.050      859.435
05/16/2013  02:30:00        0.783       -2.420       28.955       18.356       25.508       15.783      336.928      650.670      249.102        0.104        0.062        2.544       15.525       37.247      340.066       13.829      859.416
05/16/2013  02:31:00       17.032        2.792       40.521       28.677       35.536       22.159      822.386     1262.802      491.028        0.226        0.129       17.259       25.252        2.141      340.039       13.786      859.404
05/16/2013  02:32:00       -6.307        5.201       43.250       11.660       24.387       12.000      135.957      594.734      143.997        0.141        0.044        8.175       12.553        2.358      340.110       13.903      859.394
05/16/2013  02:33:00        0.107       15.259       38.213       20.609       35.340       22.755      424.715     1248.946      517.787        0.194        0.110       15.259       22.876        2.248      340.118       13.919      859.392
05/16/2013  02:34:00       34.611        1.644       34.107       47.364       61.556       45.098     2243.383     3789.109     2033.819        0.521        0.403       34.650       51.541        2.213      340.154       13.979      859.383
05/16/2013  02:35:00       -7.329       65.868       82.051       18.321       29.886       18.434      335.675      893.154      339.811        0.635        0.078       66.275       17.017        0.066      340.070       13.837      859.371
05/16/2013  02:36:00       11.375       11.916       44.139       17.346       38.751       17.570      300.884     1501.644      308.692        0.217        0.106       16.473       18.399        1.247      340.108       13.901      859.368
05/16/2013  02:37:00      -19.998      -42.689       -5.650       22.341       22.013       17.519      499.120      484.552      306.903        0.177        0.065       47.141       17.389        0.136      340.169       14.004      859.366
05/16/2013  02:38:00      -46.238      -32.778        5.485       30.623       21.215       15.101      937.753      450.058      228.034        0.243        0.081       56.678       15.627        0.076      340.059       13.819      859.371
05/16/2013  02:39:00      -22.139        2.726       14.675       37.816       15.080       21.318     1430.057      227.417      454.475        0.141        0.106       22.306       23.927        1.151      340.190       14.040      859.358
05/16/2013  02:40:00       44.002       52.851       27.122       30.525       27.782       27.823      931.749      771.834      774.144        0.397        0.124       68.771       16.754        0.059      340.180       14.023      859.320
05/16/2013  02:41:00       -5.693       13.475       33.514       12.558       33.970       23.861      157.703     1153.948      569.364        0.161        0.094       14.629       25.634        3.071      340.123       13.927      859.298
05/16/2013  02:42:00       -8.206      -16.333       13.093       19.912       15.535       16.114      396.491      241.342      259.653        0.070        0.045       18.279       12.682        0.481      340.210       14.074      859.319
05/16/2013  02:43:00      -63.694      -52.911       -1.007       30.940       21.364       19.958      957.305      456.400      398.342        0.433        0.091       82.804        7.758        0.009      340.243       14.129      859.313
05/16/2013  02:44:00        3.334      -20.209      -10.429       22.817       20.735       15.661      520.609      429.947      245.270        0.086        0.060       20.482       10.629        0.269      340.201       14.058      859.299
05/16/2013  02:45:00      -40.368      -11.079       -0.509       54.228       21.446       14.816     2940.624      459.952      219.511        0.269        0.181       41.861       10.267        0.060      340.148       13.967      859.287
05/16/2013  02:46:00      -22.097      -82.855        4.663       55.475      109.546       42.117     3077.526    12000.418     1773.818        1.211        0.843       85.751       56.993        0.442      340.166       13.997      859.291
05/16/2013  02:47:00      -30.521      -76.470       18.900       81.222       57.909       45.148     6596.943     3353.461     2038.323        0.956        0.599       82.336       53.275        0.419      340.137       13.949      859.266
05/16/2013  02:48:00      -30.672      -30.835       13.322       28.184       28.255       19.229      794.348      798.367      369.756        0.202        0.098       43.492        8.609        0.039      340.074       13.843      859.246
05/16/2013  02:49:00      -46.913      -54.892        2.440       37.554       22.843       23.319     1410.315      521.798      543.757        0.385        0.124       72.208       16.122        0.050      340.235       14.115      859.243
05/16/2013  02:50:00      -36.181        0.050        9.675       18.823       13.773       14.311      354.305      189.684      204.808        0.108        0.037       36.181        8.022        0.049      340.117       13.917      859.240
05/16/2013  02:51:00      -42.695      -31.757        3.293       28.762       26.186       23.118      827.241      685.725      534.435        0.244        0.102       53.210       15.194        0.082      340.168       14.003      859.249
05/16/2013  02:52:00      -65.193      -33.723       -2.162       32.445       23.102       15.896     1052.659      533.724      252.668        0.362        0.092       73.398       11.501        0.025      340.159       13.986      859.255
05/16/2013  02:53:00      -84.745      -59.525       -6.654       40.627       38.945       17.383     1650.569     1516.719      302.161        0.712        0.173      103.561       11.379        0.012      340.111       13.908      859.251
05/16/2013  02:54:00      -53.763      -52.562       -2.351       37.724       34.698       18.928     1423.072     1203.931      358.266        0.432        0.149       75.188       18.806        0.063      340.133       13.942      859.251
05/16/2013  02:55:00      -96.539      -58.407       -5.858       28.975       31.782       18.090      839.522     1010.090      327.233        0.747        0.109      112.832       10.683        0.009      340.098       13.884      859.230
05/16/2013  02:56:00      -56.446      -49.328       -1.791       25.975       17.218       14.361      674.707      296.455      206.225        0.340        0.059       74.963        4.841        0.004      340.133       13.944      859.213
05/16/2013  02:57:00      -50.620      -23.255       -1.128       38.205       35.219       24.713     1459.599     1240.380      610.718        0.321        0.166       55.706       19.205        0.119      340.119       13.918      859.197
05/16/2013  02:58:00      -19.811      -36.164        0.736       16.149       22.290       16.839      260.796      496.865      283.553        0.137        0.052       41.235        9.451        0.053      340.156       13.982      859.189
05/16/2013  02:59:00      -30.488      -21.617        9.635       34.550       27.419       20.008     1193.720      751.817      400.321        0.192        0.117       37.374       20.992        0.315      340.090       13.871      859.190
05/16/2013  03:00:00      -64.537      -35.936       10.173       47.214       26.148       19.846     2229.155      683.717      393.853        0.443        0.165       73.868       18.253        0.061      340.129       13.937      859.176
05/16/2013  03:01:00      -46.401      -33.514        5.723       24.658       21.396       16.781      608.039      457.788      281.607        0.233        0.067       57.239        8.278        0.021      340.091       13.874      859.163
05/16/2013  03:02:00      -46.183      -24.770        6.960       40.730       34.300       23.615     1658.933     1176.470      557.684        0.309        0.170       52.407       12.995        0.061      340.085       13.861      859.154
05/16/2013  03:03:00      -69.137      -66.272       -5.915       26.009       21.395       13.532      676.488      457.750      183.122        0.526        0.066       95.770       11.839        0.015      340.087       13.866      859.137
05/16/2013  03:04:00      -47.445      -70.656       -0.461       33.945       34.122       16.004     1152.252     1164.330      256.135        0.491        0.129       85.107        7.940        0.009      340.066       13.829      859.119
05/16/2013  03:05:00      -92.484      -48.205       -5.299       26.658       16.772       19.177      710.671      281.291      367.770        0.613        0.068      104.293       10.125        0.009      340.039       13.784      859.097
05/16/2013  03:06:00      -68.203      -42.014       -7.676       39.759       21.101       19.429     1580.739      445.272      377.478        0.444        0.120       80.106        8.347        0.011      340.042       13.790      859.075
05/16/2013  03:07:00        5.914      -12.051        0.585       27.655       40.881       19.792      764.806     1671.266      391.706        0.150        0.141       13.424       19.362        2.080      340.102       13.891      859.059
05/16/2013  03:08:00      -32.133      -59.953      -10.036       20.333       26.063       16.203      413.429      679.259      262.545        0.304        0.068       68.021       10.176        0.022      340.097       13.883      859.060
05/16/2013  03:09:00      -46.598      -24.385        8.681       32.367       19.182       14.298     1047.654      367.933      204.424        0.223        0.081       52.593       10.574        0.040      340.087       13.865      859.055
05/16/2013  03:10:00      -34.433       -4.320        2.533       24.061       17.352       15.973      578.948      301.096      255.147        0.117        0.057       34.703       13.741        0.157      340.025       13.759      859.054
05/16/2013  03:11:00        5.446        3.038       13.915       16.528       14.790       16.872      273.183      218.755      284.679        0.050        0.039        6.236       13.501        4.687      339.940       13.617      859.052
05/16/2013  03:12:00      -22.360        1.147        1.774       24.356       22.101        9.233      593.238      488.450       85.250        0.084        0.058       22.390        6.043        0.073      339.997       13.715      859.042
05/16/2013  03:13:00      -51.419      -35.419        3.488       38.621       29.024       18.593     1491.558      842.409      345.705        0.329        0.134       62.437       18.558        0.088      339.957       13.647      859.042
05/16/2013  03:14:00      -62.563      -61.584       -4.039       16.811       18.007       11.268      282.610      324.234      126.960        0.423        0.037       87.787        6.336        0.005      339.992       13.704      859.038
05/16/2013  03:15:00      -33.340      -58.307      -13.331       22.901       31.203       16.669      524.450      973.612      277.842        0.323        0.089       67.166       10.416        0.024      340.028       13.766      859.028
05/16/2013  03:16:00      -35.751      -11.825        0.653       31.201       18.974       16.813      973.480      360.030      282.677        0.152        0.081       37.655       14.629        0.151      340.003       13.723      859.024
05/16/2013  03:17:00       -2.734       11.773       11.074       26.327       11.924       13.657      693.130      142.179      186.522        0.065        0.051       12.086       12.054        0.995      339.953       13.639      859.027
05/16/2013  03:18:00      -34.141        4.687        0.624       38.474       14.270       19.015     1480.258      203.622      361.572        0.162        0.102       34.462       18.524        0.289      339.940       13.620      859.041
05/16/2013  03:19:00      -40.806      -48.260        0.002       18.784       17.882       20.278      352.837      319.759      411.214        0.254        0.054       63.200       13.286        0.044      339.951       13.637      859.049
05/16/2013  03:20:00      -20.298      -18.316        7.269       21.939       12.196       13.720      481.331      148.733      188.239        0.081        0.041       27.340       12.545        0.211      339.975       13.676      859.050
05/16/2013  03:21:00       -9.487       19.649        7.045       11.526       22.779       12.865      132.854      518.873      165.510        0.067        0.041       21.820       12.114        0.308      339.957       13.646      859.053
05/16/2013  03:22:00       -6.125       25.563       37.297       16.579       19.993       18.218      274.866      399.729      331.906        0.154        0.050       26.287       11.174        0.181      339.858       13.481      859.047
05/16/2013  03:23:00       16.298       31.190       31.186       17.064       22.041       15.780      291.190      485.826      249.019        0.162        0.051       35.191        7.571        0.046      339.820       13.415      859.046
05/16/2013  03:24:00       -0.445       16.238       44.410       16.997       20.306       16.092      288.886      412.354      258.967        0.160        0.048       16.244       12.947        0.635      339.836       13.443      859.037
05/16/2013  03:25:00       -1.181       25.053       50.058       19.722       30.598       15.606      388.951      936.253      243.544        0.235        0.078       25.081       18.370        0.536      339.890       13.533      859.029
05/16/2013  03:26:00       52.580       55.800       38.078       20.770       16.247       16.789      431.372      263.981      281.886        0.415        0.049       76.670       12.252        0.026      339.752       13.300      859.021
05/16/2013  03:27:00       74.948       41.467        5.776       16.272       15.234       18.179      264.780      232.060      330.493        0.410        0.041       85.654        8.575        0.010      339.608       13.060      859.017
05/16/2013  03:28:00       20.391       19.725        4.646       20.652       15.403       10.809      426.499      237.239      116.833        0.080        0.039       28.370        9.765        0.118      339.545       12.949      859.021
05/16/2013  03:29:00        9.924        6.484        4.000       14.351       10.260       10.850      205.956      105.276      117.731        0.029        0.021       11.854       10.051        0.719      339.604       13.051      859.032
05/16/2013  03:30:00        3.935       20.178       -0.212        9.794       11.740        7.153       95.915      137.838       51.163        0.035        0.014       20.558        7.699        0.140      339.602       13.050      859.042
05/16/2013  03:31:00       15.444       21.578        0.408       12.653       19.798        6.947      160.098      391.970       48.256        0.065        0.030       26.536        9.689        0.133      339.738       13.278      859.044
05/16/2013  03:32:00        6.457       16.250       -1.766        8.349       13.280        5.969       69.700      176.346       35.628        0.030        0.014       17.486        7.374        0.178      339.734       13.274      859.035
05/16/2013  03:33:00        4.880       36.721       -2.742        7.002        9.218        5.332       49.026       84.977       28.428        0.077        0.008       37.044        4.424        0.014      339.815       13.405      859.026
05/16/2013  03:34:00       -8.303        1.954       -4.609        8.614       12.456        5.318       74.206      155.152       28.278        0.018        0.013        8.530        1.979        0.054      339.748       13.294      859.009
05/16/2013  03:35:00       11.233        8.729        5.130        6.549        6.532        6.127       42.891       42.668       37.541        0.018        0.006       14.226        4.616        0.105      339.806       13.391      858.996
05/16/2013  03:36:00       24.912       22.864        1.962        5.258        6.691        6.949       27.649       44.771       48.292        0.063        0.006       33.814        4.558        0.018      339.797       13.377      858.983
05/16/2013  03:37:00       17.120       28.113        3.650       10.104        5.692        5.995      102.096       32.399       35.939        0.063        0.009       32.915        2.077        0.004      339.754       13.307      858.968
05/16/2013  03:38:00       22.889       21.268       -0.334        5.327        3.600        2.359       28.377       12.957        5.563        0.051        0.002       31.245        2.163        0.005      339.793       13.370      858.964
05/16/2013  03:39:00        2.606       23.454       -2.020        5.566        3.848        3.518       30.982       14.803       12.379        0.031        0.003       23.598        3.341        0.020      339.802       13.384      858.963
05/16/2013  03:40:00       20.588       30.310        4.558        8.649        4.850        6.993       74.814       23.523       48.897        0.076        0.007       36.641        5.708        0.024      339.841       13.450      858.955
05/16/2013  03:41:00       15.876       19.550        9.329        8.456        4.240        6.544       71.503       17.980       42.827        0.043        0.007       25.184        5.703        0.051      339.878       13.513      858.945
05/16/2013  03:42:00        6.570       23.504       10.032        6.068        7.773        6.598       36.819       60.421       43.527        0.042        0.007       24.405        3.328        0.019      339.891       13.533      858.945
05/16/2013  03:43:00       -5.512        9.801       18.488       17.547       13.456        8.266      307.892      181.053       68.334        0.051        0.028       11.244        8.545        0.578      339.858       13.481      858.944
05/16/2013  03:44:00       -6.607        2.043        4.351        9.110        6.570        8.098       82.993       43.163       65.580        0.013        0.010        6.916        4.128        0.356      339.906       13.560      858.939
05/16/2013  03:45:00        7.110       17.057       16.766        9.119        9.616        6.396       83.163       92.477       40.907        0.042        0.011       18.480        6.136        0.110      339.915       13.576      858.934
05/16/2013  03:46:00       21.599       20.547        9.555        7.720        6.436        7.709       59.606       41.422       59.432        0.057        0.008       29.811        5.008        0.028      339.919       13.583      858.932
05/16/2013  03:47:00        1.194       21.070       -0.747       10.231        4.701        3.785      104.675       22.103       14.329        0.029        0.007       21.104        3.705        0.031      339.933       13.607      858.934
05/16/2013  03:48:00       -7.510        8.700       -3.495        8.728        5.200        6.422       76.172       27.039       41.247        0.014        0.007       11.493        4.203        0.134      339.930       13.603      858.939
05/16/2013  03:49:00       -9.132      -10.623       -2.402       11.271       12.926        5.390      127.034      167.078       29.050        0.026        0.016       14.008        6.905        0.243      339.956       13.646      858.939
05/16/2013  03:50:00       15.300      -28.860        5.354       16.666       14.419       12.359      277.741      207.896      152.737        0.087        0.032       32.664       11.484        0.124      340.081       13.855      858.937
05/16/2013  03:51:00       20.666       -0.805        4.425       14.430       17.764       20.804      208.215      315.548      432.821        0.070        0.048       20.682       12.679        0.376      340.076       13.847      858.926
05/16/2013  03:52:00        6.132       34.082       13.121       11.171       13.631       19.275      124.784      185.796      371.527        0.103        0.034       34.630        8.644        0.062      339.968       13.666      858.916
05/16/2013  03:53:00       -8.295       -3.693       25.761       10.177       22.367        8.978      103.572      500.288       80.610        0.072        0.034        9.080        6.922        0.581      340.021       13.755      858.906
05/16/2013  03:54:00       -6.198        1.227       18.150       10.475       14.253        9.895      109.723      203.156       97.905        0.039        0.021        6.318        6.915        1.198      340.062       13.824      858.899
05/16/2013  03:55:00      -10.430      -14.067       -0.034       20.246       16.213        9.993      409.894      262.863       99.868        0.054        0.039       17.512       10.269        0.344      340.046       13.795      858.885
05/16/2013  03:56:00      -34.581      -35.513        1.151       30.440       16.876       18.630      926.624      284.794      347.071        0.201        0.078       49.569       18.032        0.132      340.064       13.827      858.886
05/16/2013  03:57:00      -54.577      -19.920       -3.654        9.072       10.117        9.577       82.308      102.360       91.714        0.183        0.014       58.099        3.477        0.004      339.945       13.627      858.887
05/16/2013  03:58:00      -25.793      -16.982        4.133       24.798       15.289       13.904      614.957      233.757      193.331        0.101        0.052       30.881       12.899        0.174      339.981       13.686      858.880
05/16/2013  03:59:00       -8.656       -4.610       -0.155       16.514        8.398       13.440      272.709       70.531      180.630        0.031        0.026        9.807        9.121        0.865      340.065       13.829      858.875
05/16/2013  04:00:00      -17.156        0.867        3.266        9.630        9.197        9.597       92.731       84.583       92.100        0.029        0.013       17.178        4.590        0.071      340.091       13.874      858.870
05/16/2013  04:01:00      -49.476      -35.599       -1.874       21.334       31.315       13.522      455.138      980.619      182.842        0.267        0.081       60.952       11.235        0.034      340.139       13.953      858.866
05/16/2013  04:02:00      -31.821      -44.895        5.984       29.497       29.133       18.304      870.050      848.705      335.039        0.256        0.103       55.029       17.733        0.104      340.122       13.925      858.865
05/16/2013  04:03:00      -92.196      -69.698        0.535       42.030       30.758       23.851     1766.490      946.047      568.852        0.832        0.164      115.577       23.094        0.040      340.018       13.749      858.866
05/16/2013  04:04:00      -91.297      -51.243       -0.130       33.104       30.688       15.712     1095.880      941.758      246.863        0.662        0.114      104.694       14.807        0.020      340.044       13.792      858.870
05/16/2013  04:05:00      -66.895      -81.879       -5.065       37.740       28.032       16.534     1424.279      785.782      273.359        0.684        0.124      105.731       15.845        0.022      340.112       13.907      858.875
05/16/2013  04:06:00      -88.598      -79.550       -9.590       24.107       21.537       11.360      581.140      463.835      129.045        0.772        0.059      119.070       13.006        0.012      340.090       13.872      858.872
05/16/2013  04:07:00      -58.779      -43.599       -0.602       17.747       28.199       14.487      314.941      795.187      209.865        0.334        0.066       73.184       11.854        0.026      340.139       13.953      858.866
05/16/2013  04:08:00      -35.896      -15.555        3.738       26.843       17.723       14.148      720.560      314.116      200.171        0.139        0.062       39.121       10.448        0.071      340.088       13.867      858.860
05/16/2013  04:09:00      -50.526      -56.537       -7.267       49.089       19.929       18.053     2409.700      397.180      325.929        0.447        0.157       75.824       10.453        0.019      340.157       13.984      858.863
05/16/2013  04:10:00      -21.486      -66.103      -10.766       29.532       32.707       14.312      872.135     1069.773      204.841        0.355        0.107       69.508        7.733        0.012      340.139       13.953      858.865
05/16/2013  04:11:00      -21.017      -23.888       12.249       34.398       24.072       18.140     1183.247      579.455      329.072        0.163        0.105       31.818       21.440        0.454      340.158       13.985      858.856
05/16/2013  04:12:00      -72.327      -48.997       -2.614       35.342       26.885       22.400     1249.042      722.822      501.751        0.506        0.124       87.361       18.434        0.045      340.127       13.932      858.851
05/16/2013  04:13:00      -66.509      -25.550        0.614       36.281       25.433       19.048     1316.308      646.827      362.823        0.370        0.116       71.248       19.068        0.072      340.047       13.798      858.845
05/16/2013  04:14:00      -34.273      -18.483        9.598       33.417       25.159       20.612     1116.702      632.962      424.865        0.189        0.109       38.939       17.786        0.209      340.064       13.827      858.843
05/16/2013  04:15:00      -44.725      -17.690        4.182       37.979       21.493       18.220     1442.429      461.959      331.977        0.228        0.112       48.096       15.780        0.108      340.119       13.919      858.840
05/16/2013  04:16:00       -2.729       -6.732       14.150       18.672       15.287       13.864      348.661      233.685      192.221        0.051        0.039        7.264        8.867        1.490      340.126       13.929      858.839
05/16/2013  04:17:00       -0.412        0.352       13.706        8.145        9.532        6.078       66.342       90.867       36.946        0.019        0.010        0.542        5.497      102.816      340.100       13.886      858.835
05/16/2013  04:18:00      -18.147        5.950        5.289       25.214       16.035       13.181      635.730      257.134      173.728        0.073        0.053       19.097        9.268        0.236      340.065       13.829      858.826
05/16/2013  04:19:00      -21.668       -0.486       10.977       26.043       22.650       13.969      678.216      513.033      195.133        0.099        0.069       21.673        9.463        0.191      340.044       13.793      858.817
05/16/2013  04:20:00      -18.613       -8.074        4.348       20.990       18.032       11.552      440.575      325.146      133.453        0.066        0.045       20.289        8.198        0.163      340.060       13.820      858.807
05/16/2013  04:21:00       -9.974      -23.852        1.167       26.608       16.814       12.400      707.982      282.720      153.769        0.091        0.057       25.854       10.820        0.175      340.122       13.923      858.805
05/16/2013  04:22:00      -28.547      -29.598        6.956       29.097       29.732       20.444      846.647      883.976      417.938        0.194        0.107       41.121       15.932        0.150      340.117       13.916      858.805
05/16/2013  04:23:00      -64.916      -61.915       -6.431       20.805       23.205       17.645      432.850      538.463      311.342        0.469        0.064       89.708       12.661        0.020      340.033       13.773      858.804
05/16/2013  04:24:00      -32.608      -43.849        0.659       35.947       27.316       19.020     1292.161      746.175      361.760        0.269        0.120       54.645       14.514        0.071      340.049       13.800      858.816
05/16/2013  04:25:00      -52.841      -62.750        7.823       43.067       42.595       21.139     1854.806     1814.310      446.845        0.545        0.206       82.035       19.843        0.059      340.054       13.810      858.815
05/16/2013  04:26:00      -68.987      -80.336      -12.429       46.894       27.870       27.038     2199.017      776.764      731.070        0.754        0.185      105.892       14.996        0.020      340.031       13.771      858.804
05/16/2013  04:27:00      -27.736      -40.379       -6.327       24.150       34.656       16.468      583.202     1201.070      271.181        0.225        0.103       48.987        7.820        0.025      340.003       13.724      858.787
05/16/2013  04:28:00      -34.342      -41.488       -0.579       34.372       35.582       15.553     1181.449     1266.095      241.882        0.279        0.134       53.857       12.317        0.052      340.013       13.743      858.769
05/16/2013  04:29:00      -56.893      -53.027        6.646       55.101       26.561       26.070     3036.137      705.476      679.669        0.526        0.221       77.773       29.872        0.148      340.043       13.793      858.762
05/16/2013  04:30:00      -46.631      -69.766       -1.462       46.818       29.278       17.947     2191.929      857.204      322.080        0.521        0.169       83.915       11.721        0.020      340.018       13.749      858.756
05/16/2013  04:31:00      -74.370      -39.452       -0.405       37.485       23.443       20.472     1405.152      549.571      419.116        0.473        0.119       84.186       15.936        0.036      339.931       13.605      858.751
05/16/2013  04:32:00      -63.172     -100.980       -3.372       61.663       48.045       29.774     3802.377     2308.315      886.510        1.060        0.350      119.112       30.333        0.065      340.028       13.766      858.740
05/16/2013  04:33:00      -42.465      -56.543        0.959       46.460       29.523       22.798     2158.561      871.612      519.739        0.427        0.177       70.713       20.277        0.082      340.032       13.774      858.735
05/16/2013  04:34:00      -69.145      -88.478       -3.329       44.031       29.258       21.080     1938.693      856.031      444.351        0.793        0.162      112.291       16.274        0.021      340.032       13.774      858.749
05/16/2013  04:35:00      -47.433      -82.483       -6.022       48.706       40.980       18.170     2372.299     1679.397      330.132        0.674        0.219       95.150       16.768        0.031      340.056       13.813      858.756
05/16/2013  04:36:00      -32.243      -28.804        4.745       33.372       13.940       21.591     1113.667      194.337      466.176        0.183        0.089       43.235       16.940        0.154      340.129       13.934      858.736
05/16/2013  04:37:00      -48.831      -41.472       -2.425       36.936       34.787       18.924     1364.276     1210.121      358.117        0.352        0.147       64.065        6.173        0.009      340.199       14.056      858.725
05/16/2013  04:38:00      -33.612      -44.056        3.159       36.680       27.577       23.855     1345.450      760.502      569.045        0.288        0.134       55.413       17.326        0.098      340.185       14.031      858.722
05/16/2013  04:39:00      -42.695      -48.420        4.681       48.270       31.722       22.674     2329.990     1006.262      514.105        0.402        0.193       64.555       24.748        0.147      340.225       14.099      858.726
05/16/2013  04:40:00      -56.271      -30.413        8.827       35.868       42.558       24.514     1286.533     1811.199      600.953        0.393        0.185       63.964       23.541        0.135      340.173       14.011      858.714
05/16/2013  04:41:00      -59.109      -75.941        0.584       69.161       50.399       25.841     4783.239     2540.083      667.748        0.862        0.400       96.234       32.180        0.112      340.228       14.104      858.697
05/16/2013  04:42:00      -57.550      -63.455        7.282       49.434       39.850       26.314     2443.765     1588.016      692.402        0.606        0.236       85.666       26.581        0.096      340.208       14.069      858.700
05/16/2013  04:43:00       -6.768      -27.295        1.085       32.014       30.280       17.968     1024.926      916.884      322.853        0.153        0.113       28.122       13.266        0.223      340.208       14.070      858.698
05/16/2013  04:44:00      -43.270      -63.229       -5.463       35.074       29.401       27.498     1230.163      864.415      756.152        0.437        0.143       76.617       19.977        0.068      340.214       14.082      858.681
05/16/2013  04:45:00      -77.820      -48.605       -1.573       52.094       32.815       20.478     2713.763     1076.856      419.366        0.631        0.210       91.752       13.336        0.021      340.183       14.028      858.695
05/16/2013  04:46:00     -100.308      -54.139        0.534       42.876       34.115       22.854     1838.351     1163.845      522.312        0.826        0.176      113.985       17.873        0.025      340.174       14.013      858.714
05/16/2013  04:47:00      -49.042      -74.593       -3.705       37.324       23.454       20.206     1393.045      550.069      408.268        0.517        0.118       89.270        6.108        0.005      340.212       14.077      858.707
05/16/2013  04:48:00        1.956      -14.771       13.183       22.899       26.301       19.350      524.378      691.742      374.433        0.099        0.080       14.900       15.152        1.034      340.187       14.033      858.666
05/16/2013  04:49:00      -32.634      -15.820       10.243       26.799       20.943       13.075      718.180      438.604      170.961        0.137        0.066       36.266        7.958        0.048      340.210       14.073      858.645
05/16/2013  04:50:00      -18.769      -27.854       -0.721       43.085       26.766       13.112     1856.338      716.416      171.937        0.194        0.137       33.588       18.849        0.315      340.231       14.107      858.635
05/16/2013  04:51:00      -12.052      -36.861        1.750       25.883       29.713       24.810      669.953      882.865      615.518        0.184        0.108       38.781       12.395        0.102      340.267       14.167      858.628
05/16/2013  04:52:00        6.354      -19.985       16.325       31.030       24.645       24.044      962.885      607.360      578.095        0.143        0.107       20.971       20.055        0.915      340.290       14.208      858.600
05/16/2013  04:53:00        5.467       -9.645       18.182       23.694       45.767       18.788      561.387     2094.633      353.004        0.173        0.150       11.087       26.205        5.586      340.207       14.068      858.580
05/16/2013  04:54:00       -0.092      -81.203       -0.105       47.191       39.957       37.639     2226.977     1596.530     1416.704        0.592        0.262       81.203       20.849        0.066      340.283       14.195      858.581
05/16/2013  04:55:00       -2.562      -60.371        7.836       26.977       27.662       27.742      727.760      765.181      769.602        0.299        0.113       60.425       12.095        0.040      340.314       14.249      858.582
05/16/2013  04:56:00      -13.450      -20.771       -8.563       18.535       21.969       17.767      343.560      482.642      315.683        0.091        0.057       24.746        5.963        0.058      340.303       14.229      858.566
05/16/2013  04:57:00      -24.246      -40.570       -5.266       35.678       40.079       21.062     1272.921     1606.310      443.594        0.279        0.166       47.263       23.384        0.245      340.336       14.286      858.559
05/16/2013  04:58:00       -8.095       -5.520       15.446       31.294       22.434       17.395      979.320      503.286      302.595        0.106        0.089        9.798       20.060        4.192      340.250       14.140      858.554
05/16/2013  04:59:00      -94.718      -66.034       -3.997       36.174       35.969       23.028     1308.594     1293.793      530.282        0.824        0.157      115.464       16.812        0.021      340.202       14.060      858.552
05/16/2013  05:00:00      -92.770      -48.104      -10.909       41.691       22.359       22.153     1738.154      499.942      490.753        0.688        0.136      104.500       17.203        0.027      340.138       13.952      858.547
05/16/2013  05:01:00      -72.906      -29.010       -5.199       41.126       19.790       23.408     1691.364      391.661      547.938        0.441        0.132       78.466       25.629        0.107      340.121       13.923      858.572
05/16/2013  05:02:00      -24.648      -14.254       14.711       35.194       21.813       21.331     1238.640      475.828      455.000        0.160        0.108       28.473       22.065        0.601      340.162       13.992      858.594
05/16/2013  05:03:00      -81.263      -34.761       -5.090       20.391       19.221       16.469      415.779      369.450      271.233        0.445        0.053       88.386       10.534        0.014      340.127       13.933      858.599
05/16/2013  05:04:00       -4.877      -10.362       -0.034       25.750       21.446       18.425      663.084      459.946      339.467        0.080        0.073       11.452       15.998        1.951      340.119       13.919      858.592
05/16/2013  05:05:00      -35.285        0.807        0.328       46.604       26.615       18.355     2171.893      708.375      336.914        0.223        0.161       35.294       13.236        0.141      340.092       13.873      858.588
05/16/2013  05:06:00      -77.995      -58.119        4.295       44.144       36.704       23.096     1948.717     1347.165      533.419        0.665        0.191       97.268       16.811        0.030      340.082       13.857      858.586
05/16/2013  05:07:00      -55.405      -37.412        0.300       32.034       25.478       13.738     1026.157      649.143      188.735        0.317        0.093       66.853        7.468        0.012      340.102       13.890      858.572
05/16/2013  05:08:00      -37.336      -56.244       -0.051       39.593       33.423       12.960     1567.597     1117.111      167.973        0.370        0.143       67.509       14.043        0.043      340.100       13.888      858.563
05/16/2013  05:09:00      -38.864      -20.704       18.447       37.528       38.268       23.539     1408.338     1464.457      554.084        0.285        0.171       44.035       26.422        0.360      340.126       13.930      858.543
05/16/2013  05:10:00      -68.485      -38.226        2.373       32.651       24.812       15.919     1066.084      615.627      253.403        0.405        0.097       78.431       16.020        0.042      340.192       14.042      858.546
05/16/2013  05:11:00      -34.043     -121.886      -13.977       46.648       35.315       25.192     2176.072     1247.162      634.631        1.013        0.203      126.550       12.259        0.009      340.215       14.081      858.553
05/16/2013  05:12:00      -76.586      -68.252       -2.199       43.219       51.338       19.699     1867.873     2635.634      388.050        0.771        0.245      102.585       20.670        0.041      340.254       14.148      858.567
05/16/2013  05:13:00      -26.079        2.984        1.457       30.311       26.032       20.414      918.773      677.653      416.730        0.135        0.101       26.249       17.579        0.448      340.167       14.001      858.563
05/16/2013  05:14:00      -14.831       25.053       -4.153       25.283       20.790       14.814      639.206      432.208      219.457        0.108        0.065       29.114        7.848        0.073      340.114       13.910      858.544
05/16/2013  05:15:00      -34.690        1.956       -7.860       20.957       22.419       11.936      439.177      502.608      142.476        0.118        0.054       34.745       12.217        0.124      340.126       13.930      858.525
05/16/2013  05:16:00       -1.119       -0.612       11.269        5.780        4.246        7.184       33.405       18.032       51.603        0.012        0.005        1.275        3.568        7.829      340.233       14.112      858.514
05/16/2013  05:17:00       14.335       16.978        9.585       26.159       17.380       12.745      684.271      302.074      162.439        0.087        0.057       22.220       11.924        0.288      340.169       14.002      858.513
05/16/2013  05:18:00       27.642       32.406      -11.628       16.510       17.866       10.857      272.592      319.197      117.864        0.133        0.035       42.593        5.943        0.019      340.044       13.796      858.530
05/16/2013  05:19:00      -15.104       10.553       -6.571       33.354       16.199       15.701     1112.493      262.396      246.517        0.100        0.081       18.426       14.961        0.659      340.014       13.743      858.531
05/16/2013  05:20:00      -12.423      -33.441        1.740       35.180       15.312       16.057     1237.617      234.451      257.816        0.150        0.086       35.675       12.271        0.118      340.160       13.989      858.529
05/16/2013  05:21:00      -16.899      -37.027       -3.482       12.776       14.799        8.393      163.213      219.010       70.444        0.106        0.023       40.701        7.187        0.031      340.079       13.853      858.509
05/16/2013  05:22:00      -15.111      -16.527       -2.614        5.565        6.363        4.683       30.970       40.493       21.928        0.030        0.005       22.394        2.415        0.012      340.063       13.825      858.509
05/16/2013  05:23:00      -65.436      -19.166        0.598       27.762       18.918       12.468      770.720      357.899      155.441        0.297        0.064       68.186        5.780        0.007      340.191       14.040      858.519
05/16/2013  05:24:00      -56.330       -6.786       -4.900       22.163       20.095       13.206      491.205      403.818      174.399        0.216        0.053       56.737       12.258        0.047      340.134       13.944      858.520
05/16/2013  05:25:00        5.964      -38.781        2.611       20.107       41.387       15.201      404.311     1712.911      231.075        0.195        0.117       39.237        9.948        0.064      340.138       13.952      858.486
05/16/2013  05:26:00      -29.415      -86.930       -2.221       62.493       40.198       28.399     3905.323     1615.896      806.488        0.738        0.316       91.772       18.164        0.039      340.227       14.100      858.481
05/16/2013  05:27:00      -44.071      -94.964       10.546       67.701       56.561       38.649     4583.382     3199.111     1493.726        1.017        0.464      104.692       39.145        0.140      340.359       14.325      858.474
05/16/2013  05:28:00     -125.569      -78.350       -5.833       48.951       55.057       30.302     2396.204     3031.236      918.214        1.414        0.317      148.008       31.984        0.047      340.376       14.353      858.463
05/16/2013  05:29:00     -102.885      -46.275      -12.330       25.633       18.475       15.810      657.048      341.326      249.970        0.706        0.062      112.812       11.562        0.011      340.300       14.224      858.471
05/16/2013  05:30:00      -13.415      -18.612        6.394       42.954       15.514       17.537     1845.088      240.674      307.548        0.148        0.120       22.943       24.072        1.101      340.323       14.264      858.469
05/16/2013  05:31:00      -18.630      -13.673        4.050       12.356       16.787        8.006      152.669      281.820       64.096        0.052        0.025       23.109        5.537        0.057      340.343       14.300      858.449
05/16/2013  05:32:00      -34.604        0.602       -1.790       13.061       10.049        9.467      170.598      100.980       89.623        0.078        0.018       34.609        5.588        0.026      340.276       14.185      858.450
05/16/2013  05:33:00      -64.009       13.989       -8.609       26.818       22.588       11.084      719.222      510.206      122.856        0.286        0.068       65.519        5.961        0.008      340.283       14.195      858.458
05/16/2013  05:34:00      -21.232       39.198        0.152       27.301       37.981       20.666      745.354     1442.562      427.098        0.230        0.131       44.579       21.872        0.241      340.272       14.179      858.451
05/16/2013  05:35:00     -148.591       43.659       -6.041       75.598       40.979       30.571     5715.103     1679.239      934.568        1.617        0.416      154.873       30.513        0.039      340.425       14.433      858.436
05/16/2013  05:36:00      -28.613       -0.855        9.048       18.287       19.232       15.246      334.425      369.866      232.444        0.092        0.047       28.626        5.998        0.044      340.473       14.516      858.404
05/16/2013  05:37:00      -77.586        7.859        3.953       39.895       29.033       21.316     1591.622      842.936      454.366        0.449        0.144       77.983       18.371        0.055      340.471       14.514      858.389
05/16/2013  05:38:00      -72.786      -34.082       -7.156       33.775       26.366       20.554     1140.731      695.174      422.475        0.438        0.113       80.370       14.806        0.034      340.366       14.337      858.381
05/16/2013  05:39:00       -3.902       -2.846        0.655       30.590       28.832       20.097      935.722      831.301      403.877        0.110        0.109        4.829       19.155       15.732      340.402       14.398      858.356
05/16/2013  05:40:00      -18.972      -23.762        2.392       21.025       32.184       15.160      442.066     1035.783      229.822        0.132        0.085       30.407       11.860        0.152      340.557       14.659      858.341
05/16/2013  05:41:00      -42.768       27.029      -13.582       31.703       32.856       16.804     1005.060     1079.528      282.367        0.256        0.118       50.593       21.671        0.183      340.491       14.548      858.325
05/16/2013  05:42:00      -92.590      -11.951       -7.043       41.176       36.222       27.814     1695.447     1312.046      773.592        0.627        0.189       93.358       18.956        0.041      340.733       14.958      858.330
05/16/2013  05:43:00     -100.343      -44.485       -4.577       92.157       59.810       34.168     8492.936     3577.194     1167.432        1.265        0.662      109.762       44.647        0.165      340.442       14.463      858.322
05/16/2013  05:44:00     -119.495     -121.418       -5.363       83.556       91.725       41.005     6981.660     8413.411     1681.437        2.306        0.854      170.357       38.236        0.050      340.427       14.438      858.310
05/16/2013  05:45:00     -172.034       35.964      -14.682       62.010       41.532       30.415     3845.298     1724.892      925.096        1.880        0.325      175.753       26.739        0.023      340.589       14.712      858.314
05/16/2013  05:46:00      -63.646       -8.981        1.261       51.392       32.863       25.586     2641.110     1079.986      654.661        0.425        0.219       64.276       26.482        0.170      340.594       14.723      858.318
05/16/2013  05:47:00     -130.768      -51.077       -5.953       49.926       37.299       24.176     2492.641     1391.232      584.492        1.211        0.223      140.389       17.100        0.015      340.382       14.362      858.326
05/16/2013  05:48:00      -93.992       -2.711        9.211       74.198       40.757       32.510     5505.401     1661.129     1056.931        0.857        0.411       94.031       40.715        0.187      340.621       14.768      858.318
05/16/2013  05:49:00      -84.172      -17.257       -3.043       75.005       47.159       33.435     5625.790     2223.933     1117.925        0.818        0.448       85.923       40.369        0.221      340.590       14.716      858.314
05/16/2013  05:50:00     -168.937      -14.781       -3.205       81.648       57.707       38.260     6666.361     3330.085     1463.844        2.011        0.573      169.583       44.232        0.068      340.449       14.474      858.309
05/16/2013  05:51:00     -200.975      -57.113      -12.416       45.085       45.795       30.085     2032.685     2097.138      905.107        2.442        0.252      208.932       26.068        0.016      340.270       14.173      858.301
05/16/2013  05:52:00     -197.401      -67.549       -6.318      104.019       92.356       48.249    10819.906     8529.649     2327.950        3.262        1.084      208.639       54.909        0.069      340.397       14.387      858.300
05/16/2013  05:53:00     -189.270      -24.643      -14.442      102.967       81.999       41.213    10602.265     6723.822     1698.484        2.783        0.951      190.867       40.742        0.046      340.487       14.539      858.318
05/16/2013  05:54:00     -202.380      -70.525       -1.417      108.899       66.247       46.744    11858.965     4388.696     2184.998        3.218        0.922      214.316       51.368        0.057      340.311       14.242      858.312
05/16/2013  05:55:00     -173.346      -29.269       -5.909       86.209       54.963       39.907     7431.939     3020.916     1592.594        2.149        0.602      175.800       45.149        0.066      340.306       14.233      858.307
05/16/2013  05:56:00      -51.889      -16.582       18.913       44.272       63.833       31.152     1960.048     4074.668      970.442        0.516        0.350       54.474       31.652        0.338      340.308       14.236      858.290
05/16/2013  05:57:00      -91.977      -33.185       -2.327       62.314       49.452       29.907     3883.055     2445.460      894.425        0.839        0.361       97.780       25.392        0.067      340.349       14.306      858.286
05/16/2013  05:58:00     -198.438      -36.114       -8.014       60.164       43.593       30.519     3619.742     1900.358      931.425        2.360        0.323      201.698       25.828        0.016      340.255       14.147      858.286
05/16/2013  05:59:00     -137.724      -56.541       -6.795       80.436       38.984       29.001     6469.996     1519.733      841.085        1.552        0.442      148.878       35.010        0.055      340.275       14.182      858.297
05/16/2013  06:00:00     -119.305      -39.758        2.560       60.268       56.906       30.393     3632.187     3238.332      923.748        1.181        0.390      125.755       29.361        0.055      340.278       14.187      858.301
05/16/2013  06:01:00     -133.311      -34.972       -4.386       65.319       44.406       25.005     4266.513     1971.932      625.231        1.294        0.343      137.822       32.838        0.057      340.286       14.200      858.303
05/16/2013  06:02:00      -73.632       -2.299       10.047       59.592       44.893       33.532     3551.189     2015.397     1124.391        0.611        0.335       73.668       34.874        0.224      340.290       14.209      858.301
05/16/2013  06:03:00       -6.701       22.357       21.363       28.762       39.100       28.067      827.278     1528.839      787.755        0.207        0.157       23.340       21.470        0.846      340.246       14.134      858.304
05/16/2013  06:04:00       -5.506      -29.386       -2.077       51.589       33.710       24.494     2661.472     1136.340      599.970        0.265        0.220       29.897       17.181        0.330      340.263       14.162      858.306
05/16/2013  06:05:00      -49.795       -4.202      -10.143       73.302       41.840       28.151     5373.228     1750.572      792.493        0.526        0.396       49.972       32.033        0.411      340.408       14.408      858.312
05/16/2013  06:06:00      -41.349      -43.067       -6.858       44.307       31.295       16.182     1963.077      979.348      261.854        0.341        0.160       59.704       12.965        0.047      340.425       14.438      858.312
05/16/2013  06:07:00      -19.661      -21.940       -9.784       36.022       48.569       26.044     1297.559     2358.990      678.285        0.265        0.217       29.461       25.039        0.722      340.436       14.455      858.317
05/16/2013  06:08:00      -34.562       40.592      -12.271       23.627       44.905       19.866      558.235     2016.422      394.658        0.298        0.148       53.313       21.312        0.160      340.402       14.400      858.313
05/16/2013  06:09:00       30.568       25.600       -2.064       18.310       26.713       15.617      335.271      713.595      243.895        0.144        0.065       39.872       12.985        0.106      340.375       14.351      858.301
05/16/2013  06:10:00       56.449       59.799        2.748       26.263       34.250       27.440      689.756     1173.058      752.947        0.469        0.131       82.234       20.277        0.061      340.245       14.134      858.299
05/16/2013  06:11:00      100.927       70.772        5.277       30.804       36.879       30.905      948.891     1360.074      955.150        0.924        0.163      123.268       19.763        0.026      340.057       13.815      858.296
05/16/2013  06:12:00       39.215       12.118       -0.186       23.235       27.531       24.688      539.863      757.955      609.503        0.180        0.095       41.045        7.190        0.031      340.027       13.765      858.295
05/16/2013  06:13:00       69.214       47.100        8.760       44.236       31.439       31.961     1956.785      988.421     1021.520        0.553        0.198       83.720       14.084        0.028      339.898       13.546      858.286
05/16/2013  06:14:00       51.615       25.595       13.945       55.868       24.732       26.419     3121.206      611.664      697.954        0.397        0.222       57.613       20.335        0.125      339.918       13.583      858.278
05/16/2013  06:15:00       78.295       60.724       14.888       34.351       25.956       24.332     1180.009      673.716      592.070        0.624        0.122       99.084       16.751        0.029      339.837       13.445      858.287
05/16/2013  06:16:00       87.727       63.982       18.681       42.860       29.718       28.095     1836.974      883.146      789.310        0.782        0.175      108.581       14.481        0.018      339.812       13.402      858.283
05/16/2013  06:17:00       75.104       85.721       -3.963       50.612       57.044       43.176     2561.616     3254.039     1864.193        1.034        0.384      113.968       36.742        0.104      339.807       13.395      858.261
05/16/2013  06:18:00       57.609      100.688       -9.951       46.901       47.978       36.308     2199.687     2301.873     1318.280        0.969        0.291      116.003       23.179        0.040      339.791       13.369      858.255
05/16/2013  06:19:00      150.526       99.096       36.323       74.100       61.802       44.833     5490.829     3819.465     2009.991        2.256        0.566      180.217       20.743        0.013      339.830       13.430      858.220
05/16/2013  06:20:00      131.895       86.966       45.133      106.656       59.596       43.367    11375.530     3551.701     1880.723        2.190        0.840      157.985       31.367        0.039      339.852       13.468      858.216
05/16/2013  06:21:00      151.240       95.688       47.427       94.660       65.633       65.352     8960.485     4307.711     4270.921        2.591        0.877      178.968       43.382        0.059      339.920       13.582      858.227
05/16/2013  06:22:00       84.177       69.214       22.145       43.114       39.132       33.277     1858.849     1531.343     1107.385        0.843        0.225      108.978       11.169        0.011      339.868       13.498      858.250
05/16/2013  06:23:00      -10.521       70.780      -16.314       51.489       28.772       32.622     2651.108      827.831     1064.173        0.496        0.227       71.557       32.220        0.203      339.932       13.606      858.247
05/16/2013  06:24:00      -58.798       31.775       -3.099       50.203       47.483       28.597     2520.293     2254.613      817.800        0.503        0.280       66.835       22.484        0.113      340.161       13.990      858.224
05/16/2013  06:25:00      -95.713      -47.613      -11.444       53.631       36.784       31.796     2876.335     1353.056     1010.965        0.840        0.262      106.902       24.006        0.050      340.377       14.356      858.228
05/16/2013  06:26:00      -76.575       -5.293       -6.516       59.927       41.008       30.342     3591.187     1681.656      920.664        0.606        0.310       76.758       23.959        0.097      340.414       14.419      858.232
05/16/2013  06:27:00      -34.412        2.087       -5.555       31.361       53.360       22.293      983.494     2847.292      496.986        0.277        0.216       34.475        6.818        0.039      340.402       14.398      858.250
05/16/2013  06:28:00       28.971      -92.631       -2.268       52.712       65.205       49.069     2778.509     4251.681     2407.804        0.943        0.472       97.056       38.323        0.156      340.272       14.177      858.258
05/16/2013  06:29:00       30.075      -46.373        2.184       59.617       48.912       41.950     3554.132     2392.349     1759.824        0.538        0.385       55.272       42.056        0.579      340.149       13.971      858.262
05/16/2013  06:30:00       23.289       33.939       11.111       25.611       16.680       16.379      655.906      278.226      268.282        0.151        0.060       41.161       10.545        0.066      340.096       13.879      858.253
05/16/2013  06:31:00       28.430      -26.793       -6.153       34.962       53.765       19.665     1222.364     2890.656      386.726        0.303        0.225       39.065       13.496        0.119      340.128       13.935      858.276
05/16/2013  06:32:00       65.024     -105.177      -23.108       35.285       37.584       22.573     1244.997     1412.547      509.532        0.950        0.158      123.654        9.063        0.005      340.220       14.090      858.289
05/16/2013  06:33:00        4.724        7.861       31.571       24.184       29.839       25.491      584.880      890.345      649.811        0.160        0.106        9.171       12.621        1.894      340.070       13.838      858.299
05/16/2013  06:34:00       27.627      -26.525       38.963       40.149       49.022       29.609     1611.950     2403.132      876.677        0.394        0.245       38.299       15.874        0.172      339.934       13.608      858.297
05/16/2013  06:35:00       39.124       -2.264       35.240       43.004       58.141       39.619     1849.303     3380.347     1569.693        0.479        0.340       39.190       34.737        0.786      339.967       13.664      858.297
05/16/2013  06:36:00       12.857       12.050       70.331       38.299       56.230       33.602     1466.823     3161.786     1129.087        0.551        0.288       17.621       29.523        2.807      339.952       13.637      858.301
05/16/2013  06:37:00       31.674        6.266       62.820       52.061       45.894       42.521     2710.324     2106.214     1808.029        0.581        0.331       32.288       35.361        1.199      339.947       13.630      858.302
05/16/2013  06:38:00      159.967       39.744       14.779      114.679       77.903       58.854    13151.197     6068.838     3463.811        2.503        1.134      164.830       33.790        0.042      340.030       13.768      858.275
05/16/2013  06:39:00      142.893       36.263       19.973      109.569       73.169       57.017    12005.285     5353.653     3250.964        2.137        1.030      147.423       35.671        0.059      340.125       13.927      858.254
05/16/2013  06:40:00        9.654       17.630       19.592       57.995       41.296       28.447     3363.450     1705.348      809.242        0.333        0.294       20.100       15.298        0.579      340.098       13.884      858.301
05/16/2013  06:41:00      -35.777      -44.879        7.983       24.377       52.627       23.723      594.255     2769.558      562.799        0.364        0.196       57.394       14.305        0.062      340.235       14.114      858.341
05/16/2013  06:42:00      -33.450      -93.817        2.293       33.578       41.135       20.019     1127.507     1692.068      400.754        0.657        0.161       99.602       19.387        0.038      340.222       14.093      858.358
05/16/2013  06:43:00       -8.070      -15.369        9.106       16.611       22.653       21.905      275.920      513.144      479.834        0.083        0.063       17.358       21.434        1.525      340.262       14.160      858.341
05/16/2013  06:44:00       29.454      -76.309       15.128       45.044       50.546       41.590     2028.931     2554.880     1729.690        0.662        0.316       81.796       40.421        0.244      340.249       14.139      858.341
05/16/2013  06:45:00       73.897     -103.469      -18.952       28.844       30.379       22.546      831.968      922.912      508.342        0.939        0.113      127.148       16.234        0.016      340.225       14.098      858.385
05/16/2013  06:46:00       60.222      -67.239        6.727       48.383       61.157       38.143     2340.904     3740.131     1454.862        0.786        0.377       90.265       37.549        0.173      340.154       13.978      858.397
05/16/2013  06:47:00       12.109      -25.906       25.810       36.263       39.537       40.187     1314.987     1563.187     1614.971        0.299        0.225       28.597       24.439        0.730      340.045       13.796      858.390
05/16/2013  06:48:00       32.531       20.481       12.894       34.755       50.674       32.764     1207.917     2567.898     1073.507        0.325        0.242       38.442       14.422        0.141      340.015       13.743      858.398
05/16/2013  06:49:00       65.141       38.110        7.801       27.065       19.306       21.055      732.504      372.732      443.332        0.365        0.077       75.470       11.273        0.022      340.105       13.897      858.388
05/16/2013  06:50:00      100.133       63.537       17.352       34.910       33.534       24.416     1218.689     1124.533      596.122        0.865        0.147      118.590       15.289        0.017      340.064       13.827      858.370
05/16/2013  06:51:00       96.816       77.593       13.860       35.938       26.738       22.555     1291.557      714.944      508.715        0.905        0.126      124.072       13.231        0.011      340.027       13.765      858.363
05/16/2013  06:52:00      146.566       79.130       16.642       45.990       29.828       27.995     2115.050      889.724      783.699        1.590        0.189      166.563       19.009        0.013      339.979       13.683      858.354
05/16/2013  06:53:00      127.075       84.598       46.443       34.810       34.462       27.815     1211.744     1187.632      773.693        1.432        0.159      152.659        9.640        0.004      339.952       13.639      858.348
05/16/2013  06:54:00      176.279       89.211       29.150       33.442       36.619       33.937     1118.384     1340.969     1151.709        2.175        0.181      197.568       24.278        0.015      339.969       13.665      858.306
05/16/2013  06:55:00       74.362       27.055       21.551       77.801       43.462       42.518     6052.976     1888.986     1807.803        0.824        0.487       79.131       41.484        0.275      340.030       13.769      858.279
05/16/2013  06:56:00        3.032       51.459      -10.030       26.954       26.937       31.528      726.494      725.625      993.995        0.260        0.122       51.548       17.253        0.112      340.029       13.767      858.321
05/16/2013  06:57:00        9.440       47.839       -2.894       26.428       37.261       21.097      698.452     1388.393      445.087        0.246        0.127       48.761       21.402        0.193      340.108       13.900      858.328
05/16/2013  06:58:00       19.092       38.525       -7.891       23.948       25.120       18.103      573.519      631.031      327.704        0.172        0.077       42.996       11.275        0.069      340.118       13.918      858.330
05/16/2013  06:59:00      -15.286       50.483        1.458       25.204       26.725       23.233      635.231      714.242      539.759        0.234        0.094       52.747       20.067        0.145      340.279       14.190      858.325
05/16/2013  07:00:00       -5.669       56.797      -10.827       26.257       29.874       21.549      689.436      892.469      464.360        0.271        0.102       57.079       18.663        0.107      340.200       14.056      858.325
05/16/2013  07:01:00       14.927       71.954       -2.302       12.601       17.871       11.925      158.775      319.355      142.215        0.301        0.031       73.486        4.449        0.004      340.071       13.842      858.324
05/16/2013  07:02:00       37.402       16.889       12.012       34.388       16.561       19.219     1182.537      274.267      369.352        0.183        0.091       41.038       11.279        0.076      340.061       13.823      858.340
05/16/2013  07:03:00        0.650      -35.364       -4.368       13.096       19.767       13.767      171.507      390.735      189.531        0.101        0.038       35.370       10.612        0.090      340.051       13.805      858.365
05/16/2013  07:04:00       -0.449      -31.674       -9.276       15.092       21.179       18.747      227.758      448.570      351.460        0.106        0.051       31.677        7.259        0.053      340.039       13.784      858.384
05/16/2013  07:05:00        6.994      -20.764       18.556       17.484       40.029       17.437      305.704     1602.294      304.037        0.152        0.111       21.910       17.936        0.670      340.118       13.916      858.385
05/16/2013  07:06:00       36.774      -30.531        7.086       39.959       33.270       29.073     1596.697     1106.901      845.247        0.294        0.177       47.796       21.662        0.205      340.159       13.987      858.387
05/16/2013  07:07:00       73.345      -91.825      -20.558       39.753       62.937       27.162     1580.265     3961.120      737.768        1.026        0.314      117.521       31.112        0.070      340.213       14.077      858.402
05/16/2013  07:08:00       62.829     -128.671        2.298       30.264       52.750       24.592      915.928     2782.542      604.773        1.241        0.215      143.191       22.307        0.024      340.240       14.125      858.419
05/16/2013  07:09:00       39.519     -106.764       -3.528       32.701       25.435       20.194     1069.381      646.915      407.783        0.755        0.106      113.843       15.965        0.020      340.272       14.179      858.435
05/16/2013  07:10:00       66.584      -67.822      -15.813       47.394       41.251       32.419     2246.155     1701.677     1051.021        0.714        0.250       95.043       27.979        0.087      340.301       14.227      858.422
05/16/2013  07:11:00       -7.996       -6.350       14.874       32.162       31.574       24.565     1034.369      996.931      603.455        0.148        0.132       10.211       19.484        3.641      340.290       14.209      858.423
05/16/2013  07:12:00        6.573        0.018       27.364       40.068       24.476       20.277     1605.427      599.067      411.163        0.170        0.131        6.573       15.474        5.542      340.320       14.257      858.419
05/16/2013  07:13:00       40.903      -16.266       21.611       46.320       35.832       29.371     2145.556     1283.924      862.628        0.335        0.215       44.018       28.962        0.433      340.306       14.235      858.407
05/16/2013  07:14:00       24.805      -62.786        5.189       18.930       25.895       20.604      358.363      670.552      424.514        0.302        0.073       67.509       14.303        0.045      340.336       14.287      858.387
05/16/2013  07:15:00       35.470       25.286        2.015       25.546       27.824       21.932      652.581      774.189      481.001        0.190        0.095       43.560       11.723        0.072      340.239       14.122      858.347
05/16/2013  07:16:00      103.439       50.057        4.785       31.336       22.556       25.696      981.943      508.773      660.288        0.769        0.108      114.914       15.565        0.018      340.246       14.134      858.327
05/16/2013  07:17:00       40.991       24.940       20.562       31.590       23.888       21.292      997.931      570.655      453.336        0.237        0.101       47.982       13.837        0.083      340.235       14.115      858.341
05/16/2013  07:18:00       41.009       34.482        8.219       19.318       21.433       16.547      373.203      459.380      273.804        0.202        0.055       53.579       12.737        0.057      340.141       13.957      858.358
05/16/2013  07:19:00       -8.078       -0.119       11.431       12.070       15.166        9.653      145.685      229.999       93.186        0.033        0.023        8.079        9.982        1.527      340.268       14.169      858.390
05/16/2013  07:20:00       -6.771      -54.456        2.886       16.933       19.265       22.282      286.719      371.152      496.484        0.209        0.058       54.876        8.230        0.022      340.397       14.390      858.417
05/16/2013  07:21:00       -0.896       -9.522        0.864       18.653       23.232       24.640      347.933      539.726      607.152        0.079        0.075        9.564       11.338        1.405      340.241       14.125      858.427
05/16/2013  07:22:00       18.803      -76.378        6.724       29.115       50.073       32.042      847.687     2507.343     1026.679        0.531        0.219       78.659       30.006        0.146      340.138       13.951      858.424
05/16/2013  07:23:00       23.342       25.145       29.684       48.564       39.451       28.553     2358.459     1556.381      815.296        0.339        0.237       34.309       17.741        0.267      340.289       14.208      858.399
05/16/2013  07:24:00       45.852      -60.056       18.205       52.392       53.870       44.385     2744.931     2901.998     1970.071        0.683        0.381       75.559       28.184        0.139      340.249       14.138      858.358
05/16/2013  07:25:00       -1.545       -7.658       22.442       38.547       59.916       42.467     1485.881     3589.879     1803.412        0.372        0.344        7.812       33.466       18.351      340.264       14.165      858.358
05/16/2013  07:26:00        7.992       29.419       54.074       29.090       51.367       28.621      846.255     2638.537      819.187        0.408        0.215       30.485       23.926        0.616      340.245       14.133      858.367
05/16/2013  07:27:00       -2.648       25.606       55.233       22.197       29.206       15.147      492.706      852.973      229.438        0.264        0.079       25.742       13.122        0.260      340.178       14.018      858.367
05/16/2013  07:28:00       50.307       45.430       46.531       42.586       36.548       27.014     1813.556     1335.756      729.738        0.532        0.194       67.784       18.888        0.078      340.235       14.113      858.363
05/16/2013  07:29:00      105.180       56.267       31.580       36.988       33.589       33.517     1368.143     1128.197     1123.407        0.942        0.181      119.284       20.855        0.031      340.234       14.112      858.374
05/16/2013  07:30:00       58.465       26.899       12.795       31.905       40.408       20.411     1017.923     1632.809      416.608        0.369        0.153       64.356       21.338        0.110      340.256       14.151      858.390
05/16/2013  07:31:00       73.008       43.786       51.924       42.168       29.876       38.140     1778.110      892.546     1454.677        0.703        0.206       85.132        8.724        0.011      340.231       14.108      858.392
05/16/2013  07:32:00       -0.535       10.903       39.823       31.468       32.309       27.384      990.236     1043.877      749.892        0.224        0.139       10.916       11.902        1.189      340.312       14.245      858.387
05/16/2013  07:33:00      -25.332      -24.777       -2.698       28.149       32.132       20.409      792.381     1032.439      416.515        0.175        0.112       35.434       14.541        0.168      340.179       14.020      858.381
05/16/2013  07:34:00      -26.113      -71.143        2.883       19.280       37.069       17.411      371.732     1374.105      303.135        0.390        0.102       75.784        6.026        0.006      340.233       14.112      858.384
05/16/2013  07:35:00      -38.488      -43.803       -0.430       31.695       17.121       16.755     1004.592      293.118      280.739        0.249        0.079       58.310       13.296        0.052      340.462       14.499      858.391
05/16/2013  07:36:00      -46.839      -40.053        2.865       31.489       29.201       24.455      991.557      852.714      598.032        0.312        0.122       61.629       10.583        0.029      340.495       14.555      858.401
05/16/2013  07:37:00      -84.640      -28.577        6.960       47.022       38.430       20.916     2211.043     1476.841      437.467        0.608        0.206       89.334       23.064        0.067      340.409       14.410      858.408
05/16/2013  07:38:00     -109.541      -43.365        0.899       45.254       41.775       24.244     2047.880     1745.113      587.751        0.913        0.219      117.812       21.805        0.034      340.397       14.390      858.419
05/16/2013  07:39:00      -57.513      -57.704       -3.806       36.721       18.672       22.704     1348.450      348.634      515.482        0.443        0.111       81.471       17.471        0.046      340.447       14.473      858.433
05/16/2013  07:40:00      -46.940      -39.852        5.638       21.263       24.126       17.960      452.100      582.047      322.553        0.259        0.068       61.575       16.150        0.069      340.438       14.458      858.440
05/16/2013  07:41:00      -60.670      -48.714       -5.325       26.612       24.052       15.361      708.210      578.518      235.958        0.380        0.076       77.807        5.083        0.004      340.404       14.403      858.426
05/16/2013  07:42:00        0.139      -51.783        5.518       36.463       26.088       23.120     1329.586      680.577      534.522        0.263        0.127       51.784       23.098        0.199      340.492       14.550      858.400
05/16/2013  07:43:00      -96.317      -45.643      -11.537       22.805       27.669       14.482      520.058      765.600      209.726        0.649        0.075      106.585        6.455        0.004      340.507       14.576      858.380
05/16/2013  07:44:00     -131.891      -28.019      -22.142       18.801       15.757       13.569      353.469      248.297      184.108        0.973        0.039      134.834        8.237        0.004      340.596       14.726      858.358
05/16/2013  07:45:00     -147.377      -33.486      -21.362       19.293       14.852       12.960      372.216      220.577      167.974        1.203        0.038      151.134        8.274        0.003      340.423       14.434      858.366
05/16/2013  07:46:00     -101.827        2.588       -3.951       72.143       45.276       38.269     5204.630     2049.958     1464.523        0.955        0.436      101.860       35.265        0.120      340.686       14.877      858.368
05/16/2013  07:47:00     -169.461      -48.581       -5.289      102.106       84.179       32.613    10425.555     7086.022     1063.638        2.484        0.929      176.287       34.842        0.039      340.671       14.852      858.360
05/16/2013  07:48:00     -325.339      -29.898      -19.213      109.512      115.807       52.740    11992.784    13411.365     2781.481        6.764        1.409      326.710       51.756        0.025      340.653       14.819      858.323
05/16/2013  07:49:00     -252.275      -96.207      -15.743      109.877      104.505       54.650    12072.915    10921.390     2986.631        4.956        1.299      269.997       54.207        0.040      340.622       14.766      858.299
05/16/2013  07:50:00     -217.734      -48.956      -15.992      153.405       94.349       50.726    23532.965     8901.797     2573.162        4.253        1.750      223.170       53.375        0.057      340.565       14.671      858.286
05/16/2013  07:51:00     -264.299      -88.510        9.039      148.616       88.745       56.925    22086.735     7875.677     3240.402        5.548        1.660      278.725       69.905        0.063      340.482       14.529      858.263
05/16/2013  07:52:00     -109.805      -69.081        5.478      109.775       64.026       41.131    12050.457     4099.341     1691.750        1.735        0.892      129.728       46.784        0.130      340.541       14.631      858.250
05/16/2013  07:53:00     -120.971     -136.861        2.662      109.423       87.889       44.192    11973.322     7724.540     1952.947        2.751        1.083      182.661       40.622        0.049      340.518       14.591      858.225
05/16/2013  07:54:00     -233.022      -58.713       -7.604       98.784       97.317       44.603     9758.196     9470.686     1989.464        3.951        1.061      240.305       42.712        0.032      340.484       14.533      858.234
05/16/2013  07:55:00     -353.061     -106.927      -16.884      178.275      148.697       75.760    31781.959    22110.652     5739.511        9.799        2.982      368.897       86.443        0.055      340.490       14.544      858.252
05/16/2013  07:56:00     -304.720     -101.712       -5.614      161.367      142.818       62.177    26039.358    20397.013     3866.018        7.676        2.515      321.247       52.947        0.027      340.472       14.513      858.230
05/16/2013  07:57:00     -190.932      -38.577      -12.856      193.140       87.146       68.975    37303.118     7594.492     4757.529        4.387        2.483      194.790       92.354        0.225      340.553       14.652      858.231
05/16/2013  07:58:00     -387.082     -128.675      -11.723      202.756      178.338       79.860    41109.915    31804.315     6377.667       12.290        3.965      407.909       93.738        0.053      340.338       14.286      858.214
05/16/2013  07:59:00     -294.581      -53.603       -6.356      136.802      142.744       69.338    18714.919    20375.716     4807.799        6.679        2.195      299.418       74.421        0.062      340.399       14.389      858.235
05/16/2013  08:00:00     -390.521     -186.702       -9.242      206.169      115.505       94.333    42505.701    13341.421     8898.758       12.609        3.237      432.856      109.589        0.064      340.323       14.261      858.269
05/16/2013  08:01:00     -306.808      -76.772        8.198      182.294      188.939       71.778    33230.985    35697.972     5152.030        8.707        3.704      316.267       76.696        0.059      340.413       14.412      858.265
05/16/2013  08:02:00     -227.662     -180.190        5.542      163.968      134.733       78.691    26885.563    18153.009     6192.325        6.777        2.562      290.342       99.048        0.116      340.473       14.515      858.276
05/16/2013  08:03:00     -198.902     -156.509        4.433      154.780      177.757       68.142    23956.763    31597.404     4643.364        6.213        3.010      253.095       81.885        0.105      340.408       14.406      858.271
05/16/2013  08:04:00     -260.351     -144.642      -11.416      141.901       95.380       58.526    20135.871     9097.260     3425.338        6.074        1.633      297.832       65.402        0.048      340.339       14.289      858.271
05/16/2013  08:05:00     -165.724     -176.284       24.810      191.494      150.465       94.801    36669.924    22639.766     8987.293        6.372        3.415      241.951      104.994        0.188      340.371       14.343      858.262
05/16/2013  08:06:00     -316.136     -142.732      -13.431      134.618      127.748       71.694    18122.052    16319.519     5140.058        8.003        1.979      346.863       72.338        0.043      340.334       14.280      858.256
05/16/2013  08:07:00     -208.335     -146.916        8.108      149.976      108.889       75.898    22492.749    11856.861     5760.509        5.258        2.006      254.927       85.592        0.113      340.338       14.288      858.261
05/16/2013  08:08:00     -252.152     -140.283       16.262      233.230      137.682       86.788    54396.286    18956.383     7532.240        8.219        4.044      288.548      111.566        0.149      340.325       14.265      858.244
05/16/2013  08:09:00     -437.140      -93.800      -14.366      223.303      180.013       93.874    49864.296    32404.534     8812.342       14.557        4.554      447.090      111.082        0.062      340.232       14.107      858.265
05/16/2013  08:10:00     -279.139      -95.039        5.984      210.360      157.801       90.736    44251.480    24901.095     8233.022        8.217        3.869      294.874      112.349        0.145      340.246       14.130      858.273
05/16/2013  08:11:00     -349.376      -54.950       -0.950      238.843      172.401       82.172    57045.993    29722.274     6752.168       10.929        4.676      353.671      108.306        0.094      340.245       14.129      858.283
05/16/2013  08:12:00     -338.362      -90.861        1.180      197.593      123.057       78.835    39042.805    15143.026     6214.972        9.156        3.020      350.350       95.114        0.074      340.240       14.121      858.275
05/16/2013  08:13:00     -332.776     -142.490      -31.742      157.322      128.013       67.528    24750.094    16387.456     4560.075        8.887        2.285      361.999       76.181        0.044      340.244       14.126      858.260
05/16/2013  08:14:00     -322.777      -98.938       -5.179      208.135      151.382       73.473    43320.066    22916.610     5398.342        9.281        3.582      337.600       88.916        0.069      340.305       14.231      858.238
05/16/2013  08:15:00     -266.426     -221.875        0.196      200.002      143.903       86.376    40000.730    20707.952     7460.789        9.418        3.408      346.715       91.060        0.069      340.303       14.228      858.259
05/16/2013  08:16:00     -261.742     -168.187        4.045      151.705      107.468       71.452    23014.550    11549.434     5105.339        6.823        1.983      311.120       77.908        0.063      340.307       14.233      858.288
05/16/2013  08:17:00     -187.410     -125.832        9.119      172.228      148.343       79.409    29662.653    22005.671     6305.778        5.450        2.899      225.735       88.182        0.153      340.277       14.183      858.293
05/16/2013  08:18:00     -194.297      -22.361       18.219      207.786      113.718       85.676    43175.118    12931.834     7340.369        5.100        3.172      195.580      106.485        0.296      340.296       14.217      858.292
05/16/2013  08:19:00     -248.150      -97.543        3.342      199.285      149.060       92.723    39714.358    22218.815     8597.472        7.081        3.527      266.633      103.085        0.149      340.282       14.191      858.302
05/16/2013  08:20:00     -361.701      -63.168      -14.151      188.166      126.575       86.901    35406.436    16021.180     7551.798        9.699        2.949      367.176       94.295        0.066      340.267       14.167      858.285
05/16/2013  08:21:00     -233.976     -135.946        0.087      139.315      147.523       83.903    19408.805    21763.153     7039.791        6.071        2.411      270.603       73.088        0.073      340.239       14.118      858.299
05/16/2013  08:22:00     -264.862     -150.236       -1.009      172.637      159.931       86.006    29803.683    25577.893     7396.991        7.774        3.139      304.504       92.323        0.092      340.226       14.097      858.307
05/16/2013  08:23:00     -270.245     -171.913       -7.127      166.211      126.024       81.371    27626.140    15882.148     6621.165        7.637        2.506      320.291       84.593        0.070      340.176       14.013      858.339
05/16/2013  08:24:00     -368.951     -138.015        2.003      256.545      157.040       90.402    65815.574    24661.640     8172.555       12.690        4.932      393.920      106.570        0.073      340.139       13.950      858.320
05/16/2013  08:25:00     -391.359     -158.682      -19.284      208.251      129.632       98.076    43368.404    16804.337     9618.869       12.424        3.490      422.306      111.572        0.070      340.186       14.029      858.272
05/16/2013  08:26:00     -305.355      -47.356       -3.031      167.457      170.019       70.759    28041.929    28906.445     5006.769        7.871        3.098      309.005       70.652        0.052      340.250       14.137      858.237
05/16/2013  08:27:00     -160.669      -83.482        4.934      126.569       97.184       66.590    16019.613     9444.722     4434.163        3.135        1.495      181.063       59.783        0.109      340.265       14.162      858.237
05/16/2013  08:28:00     -168.024     -118.451        4.096      121.011      104.775       52.880    14643.672    10977.861     2796.281        3.534        1.421      205.579       65.919        0.103      340.143       13.958      858.216
05/16/2013  08:29:00     -140.825     -108.858        6.661      125.462       95.077       58.436    15740.800     9039.637     3414.780        2.996        1.410      177.993       55.428        0.097      340.212       14.073      858.192
05/16/2013  08:30:00     -239.941     -130.396        6.537      217.394      135.005       88.373    47259.995    18226.249     7809.703        7.394        3.665      273.084      100.370        0.135      340.209       14.069      858.173
05/16/2013  08:31:00     -257.025      -39.993       16.640      184.103      114.796       68.322    33893.856    13178.068     4667.875        5.983        2.587      260.118       81.451        0.098      340.300       14.223      858.225
05/16/2013  08:32:00     -328.684     -169.033      -21.053      166.568      132.130       65.389    27744.831    17458.361     4275.778        9.326        2.474      369.601       69.757        0.036      340.172       14.005      858.271
05/16/2013  08:33:00     -223.962     -233.159       11.809      207.414      154.353      101.223    43020.756    23824.731    10246.016        9.086        3.855      323.299      112.734        0.122      340.126       13.930      858.280
05/16/2013  08:34:00     -387.674     -240.097      -11.850      195.307      116.534       87.338    38144.746    13580.131     7627.949       13.371        2.968      456.002       87.076        0.036      340.106       13.895      858.287
05/16/2013  08:35:00     -301.716     -303.182       10.413      187.140      161.733      100.554    35021.339    26157.569    10111.071       12.716        3.564      427.729      114.943        0.072      340.084       13.856      858.274
05/16/2013  08:36:00     -390.782     -292.712      -21.631      196.815      155.048       96.986    38736.155    24039.738     9406.221       15.551        3.609      488.253      105.919        0.047      340.102       13.887      858.245
05/16/2013  08:37:00     -440.385     -211.982      -23.267      259.938      209.297      109.902    67567.807    43805.260    12078.504       18.141        6.173      488.748      137.090        0.079      340.069       13.831      858.269
05/16/2013  08:38:00     -300.488     -146.335       -8.817      201.564      163.492       81.281    40628.247    26729.735     6606.650        9.286        3.698      334.226       92.147        0.076      340.094       13.873      858.271
05/16/2013  08:39:00     -308.118      -65.849      -10.392      213.343      119.359       67.440    45515.109    14246.681     4548.093        8.183        3.215      315.076       91.619        0.085      340.122       13.922      858.305
05/16/2013  08:40:00     -334.956     -181.693      -21.917      157.957      114.017       67.392    24950.328    12999.919     4541.626        9.408        2.125      381.062       50.734        0.018      340.045       13.791      858.285
05/16/2013  08:41:00     -309.604     -128.096        0.811      163.991      155.007       66.082    26892.933    24027.281     4366.887        8.377        2.764      335.057       53.747        0.026      340.099       13.883      858.239
05/16/2013  08:42:00     -234.921     -123.341       -6.100      186.241      109.655       72.049    34685.550    12024.133     5191.009        6.116        2.595      265.332       87.659        0.109      340.147       13.963      858.249
05/16/2013  08:43:00     -354.466     -180.798      -26.725      196.232      177.717       94.887    38506.845    31583.389     9003.460       11.906        3.955      397.912      104.134        0.068      340.108       13.898      858.275
05/16/2013  08:44:00     -319.852     -114.205      -16.999      143.776      143.633       72.561    20671.536    20630.506     5265.039        8.109        2.328      339.629       73.591        0.047      340.176       14.012      858.290
05/16/2013  08:45:00     -270.128      -81.563       -6.508      170.937      120.492       63.438    29219.607    14518.223     4024.405        6.371        2.388      282.173       82.435        0.085      340.192       14.038      858.292
05/16/2013  08:46:00     -269.684      -33.009       -2.686      149.350      153.877       92.632    22305.462    23678.075     8580.606        6.419        2.728      271.697       76.180        0.079      340.221       14.088      858.297
05/16/2013  08:47:00     -245.262      -79.106       -1.406      148.914      133.995       70.387    22175.391    17954.565     4954.269        5.574        2.254      257.704       64.655        0.063      340.227       14.099      858.293
05/16/2013  08:48:00     -238.577     -104.487        0.997      172.318      137.254       77.750    29693.504    18838.671     6045.088        6.120        2.729      260.455       91.694        0.124      340.137       13.947      858.278
05/16/2013  08:49:00     -392.070     -158.942      -21.906      216.725      140.097       82.753    46969.530    19627.207     6848.046       12.644        3.672      423.062       83.730        0.039      340.097       13.879      858.275
05/16/2013  08:50:00     -437.262     -161.555      -11.667      158.437      194.658       74.364    25102.411    37891.825     5529.963       14.297        3.426      466.152       80.038        0.029      340.108       13.897      858.274
05/16/2013  08:51:00     -321.247     -183.517      -20.162      151.790      133.793       77.929    23040.319    17900.697     6072.913        9.214        2.351      369.970       75.460        0.042      340.100       13.883      858.297
05/16/2013  08:52:00     -295.084      -82.351       16.996      188.451      161.974       88.021    35513.781    26235.575     7747.673        8.181        3.475      306.360      100.068        0.107      340.127       13.929      858.262
05/16/2013  08:53:00     -209.829      -65.328       -5.644      164.228      127.750       69.384    26970.694    16320.041     4814.107        4.821        2.405      219.763       83.360        0.144      340.225       14.096      858.264
05/16/2013  08:54:00     -250.386     -135.088       -9.393      143.458      132.809       75.299    20580.249    17638.307     5669.986        6.245        2.194      284.503       78.778        0.077      340.199       14.051      858.283
05/16/2013  08:55:00     -194.003      -41.122       21.007      160.348      112.216       77.214    25711.591    12592.496     5961.979        4.201        2.213      198.314       79.345        0.160      340.193       14.041      858.289
05/16/2013  08:56:00     -338.751      -36.810      -11.233      172.530      113.248       74.793    29766.544    12825.019     5594.001        8.220        2.409      340.745       89.172        0.068      340.220       14.085      858.297
05/16/2013  08:57:00     -266.710      -69.307        4.572      159.555      135.105       69.284    25457.879    18253.292     4800.228        6.223        2.426      275.568       75.512        0.075      340.238       14.117      858.276
05/16/2013  08:58:00     -403.637     -114.072       -8.046      180.258      151.520       86.472    32492.825    22958.339     7477.467       11.945        3.146      419.446       90.639        0.047      340.141       13.952      858.273
05/16/2013  08:59:00     -266.220      -94.430       -3.008      177.251      150.322       82.600    31417.864    22596.761     6822.774        7.031        3.042      282.472       95.409        0.114      340.178       14.017      858.300
05/16/2013  09:00:00     -363.392     -146.986      -21.153      126.108      144.078       63.596    15903.234    20758.514     4044.458        9.740        2.035      391.993       59.751        0.023      340.174       14.008      858.304
05/16/2013  09:01:00     -452.195     -179.266       -8.448      223.452      139.995       91.076    49930.630    19598.648     8294.912       15.724        3.891      486.432      101.764        0.044      340.121       13.918      858.308
05/16/2013  09:02:00     -270.297     -133.814      -14.171      129.256       98.065       48.519    16707.039     9616.780     2354.090        5.992        1.434      301.607       49.209        0.027      340.202       14.056      858.318
05/16/2013  09:03:00     -273.820      -32.413       -7.904      134.176      109.680       76.919    18003.219    12029.619     5916.475        5.601        1.797      275.732       78.966        0.082      340.194       14.043      858.296
05/16/2013  09:04:00     -259.155      -49.212       -3.270      209.199      118.967       83.602    43764.303    14153.099     6989.300        6.724        3.245      263.786      104.674        0.157      340.335       14.283      858.286
05/16/2013  09:05:00     -465.363     -139.059      -21.616      154.336      154.912       81.609    23819.564    23997.800     6659.986       14.541        2.724      485.695       83.933        0.030      340.113       13.905      858.298
05/16/2013  09:06:00     -215.579      -12.157       11.548      173.519      114.784       78.861    30108.705    13175.291     6219.107        4.812        2.475      215.921       91.059        0.178      340.266       14.166      858.282
05/16/2013  09:07:00     -228.785      -84.385       -3.649      128.315      117.016       60.502    16464.776    13692.824     3660.525        4.664        1.691      243.851       74.674        0.094      340.255       14.146      858.269
05/16/2013  09:08:00     -335.215       -6.455      -13.353      164.921      118.502       71.010    27198.856    14042.704     5042.358        7.943        2.314      335.277       81.484        0.059      340.301       14.225      858.301
05/16/2013  09:09:00     -396.050      -87.978      -21.548      197.851      168.376       76.076    39144.878    28350.312     5787.524       11.916        3.664      405.704       90.570        0.050      340.229       14.102      858.323
05/16/2013  09:10:00     -317.339      -80.550       -4.022      207.344      138.483       69.568    42991.582    19177.558     4839.663        8.710        3.350      327.402       87.744        0.072      340.280       14.189      858.325
05/16/2013  09:11:00     -204.375      -64.340       25.525      201.314      160.522       87.756    40527.380    25767.156     7701.165        6.027        3.700      214.264      111.717        0.272      340.294       14.213      858.331
05/16/2013  09:12:00     -360.977     -113.662       -9.642      185.247      132.129       77.361    34316.475    17458.194     5984.650       10.053        2.888      378.449       91.856        0.059      340.255       14.145      858.344
05/16/2013  09:13:00     -244.826      -43.183        0.903      162.571      108.708       74.510    26429.354    11817.420     5551.793        5.279        2.190      248.605       87.483        0.124      340.284       14.196      858.356
05/16/2013  09:14:00     -202.314       10.059        6.005      146.270      119.833       64.795    21394.925    14360.004     4198.374        4.050        1.998      202.564       68.749        0.115      340.377       14.352      858.357
05/16/2013  09:15:00     -302.855     -132.061      -20.814      175.181      115.510       62.444    30688.315    13342.490     3899.230        7.875        2.397      330.395       70.513        0.046      340.270       14.172      858.344
05/16/2013  09:16:00     -176.205      -40.812       -0.644      103.125       99.927       48.589    10634.844     9985.427     2360.869        2.784        1.149      180.870       38.210        0.045      340.429       14.442      858.341
05/16/2013  09:17:00     -375.281     -137.732      -20.748      116.243      109.998       60.803    13512.409    12099.495     3697.009        9.477        1.465      399.757       58.205        0.021      340.223       14.091      858.342
05/16/2013  09:18:00     -210.010      -85.824      -14.114       94.180      103.210       50.551     8869.801    10652.275     2555.404        3.687        1.104      226.870       43.046        0.036      340.347       14.302      858.341
05/16/2013  09:19:00     -326.718     -195.363        7.745      194.841      135.042       68.243    37963.053    18236.362     4657.169       10.290        3.043      380.672       78.489        0.043      340.181       14.021      858.352
05/16/2013  09:20:00     -348.463     -227.734      -12.363      186.684      146.614       94.035    34850.775    21495.596     8842.555       11.930        3.259      416.280      102.157        0.060      340.175       14.010      858.321
05/16/2013  09:21:00     -245.844     -198.754       -1.051      155.489      106.545       75.659    24176.784    11351.903     5724.331        7.059        2.063      316.137       75.562        0.057      340.212       14.074      858.335
05/16/2013  09:22:00     -287.871     -141.923      -19.401      171.623      100.486       84.922    29454.539    10097.462     7211.771        7.507        2.338      320.954       77.604        0.058      340.175       14.011      858.336
05/16/2013  09:23:00     -247.880      -15.109       11.128      132.366      104.865       68.780    17520.668    10996.605     4730.753        4.752        1.662      248.340       63.397        0.065      340.201       14.054      858.369
05/16/2013  09:24:00     -117.011      -87.824       15.271      118.036      105.965       68.480    13932.541    11228.531     4689.495        2.574        1.493      146.303       64.477        0.194      340.272       14.176      858.384
05/16/2013  09:25:00     -126.737      -79.765       19.642      127.018      117.101       69.867    16133.604    13712.722     4881.402        2.876        1.736      149.749       75.580        0.255      340.297       14.217      858.397
05/16/2013  09:26:00     -102.551     -106.462       12.805      116.641       86.189       60.094    13605.031     7428.534     3611.232        2.333        1.232      147.821       59.828        0.164      340.312       14.243      858.405
05/16/2013  09:27:00     -191.313      -38.010       -1.006      134.180       93.822       54.851    18004.272     8802.638     3008.620        3.393        1.491      195.052       69.412        0.127      340.349       14.306      858.408
05/16/2013  09:28:00     -319.607       27.552      -17.940      205.378      112.503       67.089    42180.053    12656.978     4500.992        8.127        2.967      320.792       87.913        0.075      340.251       14.138      858.399
05/16/2013  09:29:00     -275.625      -49.977        7.966      170.781      108.888       68.590    29166.060    11856.504     4704.633        6.212        2.286      280.119       84.142        0.090      340.285       14.198      858.392
05/16/2013  09:30:00     -193.601     -120.821       10.040      167.147      137.284       71.721    27938.098    18846.947     5143.874        5.205        2.596      228.208       66.307        0.084      340.267       14.167      858.403
05/16/2013  09:31:00     -182.354     -133.476        2.946      149.126      136.876       80.470    22238.701    18734.942     6475.404        4.926        2.372      225.984       87.254        0.149      340.248       14.134      858.375
05/16/2013  09:32:00     -243.842       11.840      -20.082      173.674      114.851       52.620    30162.595    13190.678     2768.912        5.305        2.306      244.130       60.716        0.062      340.212       14.074      858.366
05/16/2013  09:33:00      -82.008      -62.993       15.500      112.642      100.875       53.195    12688.144    10175.787     2829.726        1.831        1.285      103.409       64.871        0.394      340.370       14.342      858.363
05/16/2013  09:34:00     -291.458      -79.235      -11.251      150.503      122.245       66.751    22651.187    14943.944     4455.734        6.669        2.103      302.036       60.466        0.040      340.225       14.093      858.356
05/16/2013  09:35:00     -435.096      -91.795      -19.196      180.482      143.103       67.996    32573.650    20478.494     4623.513       12.788        2.884      444.673       82.065        0.034      340.200       14.051      858.348
05/16/2013  09:36:00     -340.958     -114.505      -17.705      153.549      137.308       66.570    23577.237    18853.402     4431.567        8.826        2.343      359.671       59.864        0.028      340.258       14.152      858.358
05/16/2013  09:37:00     -233.788     -107.277       -3.175      131.375      129.108       73.705    17259.423    16668.835     5432.377        5.276        1.968      257.226       69.490        0.073      340.271       14.172      858.360
05/16/2013  09:38:00     -320.119     -140.005      -16.134      186.884      124.172       77.895    34925.715    15418.588     6067.609        8.937        2.821      349.396       94.934        0.074      340.275       14.181      858.353
05/16/2013  09:39:00     -431.664      -64.828      -35.152      193.990      125.960       66.347    37632.028    15865.934     4401.922       12.483        2.895      436.504       75.287        0.030      340.289       14.202      858.374
05/16/2013  09:40:00     -422.653      -37.891      -21.389      125.527      118.228       72.083    15757.133    13977.876     5195.908       10.772        1.747      424.348       70.036        0.027      340.231       14.107      858.400
05/16/2013  09:41:00     -168.153      -70.502        5.753      163.747       88.156       63.865    26812.998     7771.478     4078.737        3.596        1.933      182.335       58.450        0.103      340.350       14.306      858.403
05/16/2013  09:42:00     -261.839      -75.655       -2.802      175.711      110.684       63.543    30874.189    12250.873     4037.658        6.072        2.358      272.550       71.350        0.069      340.357       14.319      858.382
05/16/2013  09:43:00     -194.770      -18.806        1.446      116.420       96.350       53.158    13553.561     9283.382     2825.732        3.197        1.283      195.676       36.870        0.036      340.333       14.279      858.390
05/16/2013  09:44:00     -246.247      -78.104      -18.406      127.703       76.681       50.786    16308.182     5880.016     2579.224        4.592        1.238      258.337       38.802        0.023      340.349       14.304      858.401
05/16/2013  09:45:00      -78.568      -67.851       27.174      115.096       74.076       53.452    13247.177     5487.204     2857.163        1.655        1.080      103.811       68.900        0.441      340.425       14.436      858.400
05/16/2013  09:46:00     -173.902     -146.870       -2.706      136.594       74.005       62.379    18657.910     5476.767     3891.202        3.992        1.401      227.623       71.049        0.097      340.352       14.310      858.404
05/16/2013  09:47:00     -243.356      -33.549      -22.661      110.268       86.289       41.373    12159.013     7445.854     1711.739        4.109        1.066      245.657       43.472        0.031      340.440       14.457      858.399
05/16/2013  09:48:00     -122.011     -122.111        6.138      128.130       92.136       59.749    16417.252     8489.062     3569.983        2.915        1.424      172.621       67.313        0.152      340.451       14.479      858.391
05/16/2013  09:49:00     -243.108     -113.648        2.949      177.928      114.326       65.530    31658.539    13070.404     4294.178        6.052        2.451      268.360       82.581        0.095      340.396       14.386      858.396
05/16/2013  09:50:00     -279.676      -49.976      -23.559      146.644      103.852       60.328    21504.451    10785.158     3639.527        5.859        1.796      284.106       68.999        0.059      340.434       14.449      858.395
05/16/2013  09:51:00     -352.545      -45.653      -29.503      197.501      146.421       80.715    39006.518    21439.035     6514.965        9.709        3.348      355.489       96.364        0.073      340.382       14.360      858.381
05/16/2013  09:52:00     -248.317       35.747        8.566      193.645       91.684       72.209    37498.532     8405.954     5214.180        5.706        2.556      250.877       89.063        0.126      340.498       14.558      858.387
05/16/2013  09:53:00     -251.977     -105.558      -12.048      139.921      120.242       63.350    19577.893    14458.243     4013.212        5.641        1.902      273.194       56.270        0.042      340.367       14.335      858.406
05/16/2013  09:54:00     -150.138      -94.832        2.262      129.104       60.007       49.740    16667.810     3600.850     2474.094        2.714        1.137      177.580       54.724        0.095      340.385       14.366      858.406
05/16/2013  09:55:00     -189.603      -54.645       -5.970      100.591       98.727       44.728    10118.514     9746.936     2000.566        3.041        1.093      197.320       50.697        0.066      340.419       14.424      858.395
05/16/2013  09:56:00     -351.562     -133.689      -26.425      154.786      128.711       54.841    23958.745    16566.527     3007.491        9.284        2.177      376.123       57.785        0.024      340.375       14.348      858.385
05/16/2013  09:57:00     -301.012     -140.846       -0.098      173.990      147.131       75.598    30272.509    21647.443     5715.090        8.403        2.882      332.334       89.940        0.073      340.352       14.311      858.390
05/16/2013  09:58:00     -285.669      -61.081       -8.040      164.696       86.272       57.419    27124.749     7442.893     3296.984        6.163        1.893      292.126       72.648        0.062      340.407       14.402      858.391
05/16/2013  09:59:00     -239.122      -60.001       -0.747      131.899       91.851       56.654    17397.401     8436.629     3209.691        4.491        1.452      246.535       51.348        0.043      340.462       14.496      858.362
05/16/2013  10:00:00     -206.602      -23.454        7.871      164.814      100.774       56.592    27163.799    10155.376     3202.664        4.190        2.026      207.929       69.282        0.111      340.575       14.689      858.366
05/16/2013  10:01:00     -242.916      -40.788       -4.274      153.838      110.958       67.985    23666.037    12311.769     4621.936        5.064        2.030      246.317       78.113        0.101      340.477       14.523      858.387
05/16/2013  10:02:00     -139.039      -70.333       27.546      162.333      125.889       63.196    26351.949    15848.108     3993.759        3.561        2.310      155.816       66.300        0.181      340.550       14.647      858.403
05/16/2013  10:03:00     -134.808      -34.096        3.057      134.786      106.157       57.093    18167.172    11269.283     3259.631        2.602        1.635      139.053       60.806        0.191      340.577       14.692      858.390
05/16/2013  10:04:00     -295.839     -109.047        0.803      141.553      118.970       73.632    20037.211    14153.965     5421.695        6.951        1.981      315.296       71.947        0.052      340.426       14.435      858.394
05/16/2013  10:05:00     -245.123     -173.663       -2.686      132.281       95.523       62.180    17498.289     9124.554     3866.345        6.037        1.524      300.406       64.400        0.046      340.408       14.405      858.394
05/16/2013  10:06:00     -294.643     -178.474       -7.494      126.389      104.305       62.572    15974.295    10879.542     3915.314        7.474        1.538      344.481       56.519        0.027      340.361       14.324      858.362
05/16/2013  10:07:00     -158.256      -93.269        2.626      122.065       71.122       54.120    14899.802     5058.330     2929.003        2.832        1.144      183.696       65.940        0.129      340.446       14.470      858.343
05/16/2013  10:08:00     -162.170      -63.441       12.280       73.965       73.265       43.538     5470.808     5367.722     1895.545        2.160        0.637      174.137       39.595        0.052      340.513       14.584      858.354
05/16/2013  10:09:00     -190.248      -92.357       -6.252      111.268       97.525       60.705    12380.654     9511.194     3685.157        3.517        1.279      211.481       62.157        0.086      340.586       14.706      858.372
05/16/2013  10:10:00     -244.061     -159.231        4.708      160.834       99.748       71.945    25867.492     9949.719     5176.099        6.296        2.050      291.411       74.865        0.066      340.429       14.440      858.392
05/16/2013  10:11:00     -216.658     -127.460      -10.644      144.021       80.003       56.387    20741.922     6400.438     3179.518        4.681        1.516      251.369       52.130        0.043      340.448       14.472      858.379
05/16/2013  10:12:00     -110.843      -44.713        9.689       86.056       73.760       48.579     7405.579     5440.611     2359.953        1.479        0.760      119.521       57.518        0.232      340.544       14.636      858.379
05/16/2013  10:13:00     -148.110      -34.570        3.015       80.949       84.647       42.704     6552.718     7165.033     1823.648        1.934        0.777      152.091       41.623        0.075      340.604       14.737      858.370
05/16/2013  10:14:00     -149.366      -86.452        2.376       78.249       59.536       41.123     6122.944     3544.572     1691.133        2.057        0.568      172.581       39.579        0.053      340.539       14.628      858.370
05/16/2013  10:15:00     -132.946      -80.942        2.756      122.523       79.595       52.294    15011.791     6335.306     2734.620        2.415        1.204      155.648       59.691        0.147      340.555       14.656      858.366
05/16/2013  10:16:00     -228.660      -79.108      -25.883      110.531       97.438       42.447    12217.211     9494.124     1801.731        4.136        1.176      241.957       36.027        0.022      340.473       14.514      858.365
05/16/2013  10:17:00     -362.379     -205.624       -2.953      168.589      165.428       75.241    28422.102    27366.538     5661.207       11.752        3.072      416.654       78.753        0.036      340.442       14.461      858.357
05/16/2013  10:18:00     -313.041     -248.106       -2.462      146.153      105.231       79.403    21360.607    11073.576     6304.851        9.914        1.937      399.439       82.146        0.042      340.351       14.307      858.348
05/16/2013  10:19:00     -329.153     -243.085      -11.919      176.387      138.687       85.453    31112.215    19234.010     7302.181       11.260        2.882      409.185      101.185        0.061      340.401       14.392      858.363
05/16/2013  10:20:00     -435.274     -346.453      -17.631      212.086      163.863      106.008    44980.518    26851.043    11237.787       19.642        4.153      556.321      101.860        0.034      340.370       14.339      858.352
05/16/2013  10:21:00     -263.815     -132.065        3.601      188.711      133.430       67.450    35611.669    17803.454     4549.492        7.250        2.898      295.025       84.135        0.081      340.488       14.539      858.386
05/16/2013  10:22:00     -209.620     -155.086        1.036      137.198      130.574       76.619    18823.257    17049.586     5870.404        5.486        2.087      260.753       85.030        0.106      340.417       14.421      858.367
05/16/2013  10:23:00     -181.274      -99.901       -7.449       91.846       96.595       50.397     8435.625     9330.605     2539.905        3.160        1.015      206.979       47.589        0.053      340.498       14.557      858.358
05/16/2013  10:24:00     -383.240      -48.676      -27.210      129.694      136.442       70.395    16820.467    18616.344     4955.418        9.518        2.020      386.319       60.852        0.025      340.555       14.652      858.383
05/16/2013  10:25:00     -279.885     -157.172        4.461      147.885      151.281       71.297    21869.865    22885.898     5083.240        7.644        2.492      320.996       71.990        0.050      340.429       14.441      858.365
05/16/2013  10:26:00     -255.464      -67.906       -8.596      127.956      101.260       65.724    16372.697    10253.682     4319.695        5.044        1.547      264.335       55.631        0.044      340.462       14.495      858.376
05/16/2013  10:27:00     -146.269     -107.719      -13.762       85.097       99.734       46.084     7241.549     9946.835     2123.767        2.625        0.966      181.653       47.776        0.069      340.544       14.635      858.394
05/16/2013  10:28:00     -194.256     -124.255        9.776      166.983      116.459       78.965    27883.264    13562.691     6235.527        5.047        2.384      230.596       79.383        0.119      340.523       14.600      858.391
05/16/2013  10:29:00     -333.452      -38.183        5.715      161.398      112.521       75.570    26049.197    12661.072     5710.786        7.854        2.221      335.631       77.757        0.054      340.591       14.715      858.379
05/16/2013  10:30:00     -194.815     -121.731        0.335      126.674       73.117       52.116    16046.367     5346.051     2716.068        3.844        1.205      229.720       52.109        0.051      340.537       14.622      858.398
05/16/2013  10:31:00     -105.586     -131.966       10.382      131.088      110.771       54.973    17183.984    12270.201     3022.025        3.057        1.624      169.007       60.310        0.127      340.538       14.626      858.391
05/16/2013  10:32:00     -180.473      -86.862      -17.305      121.645      109.240       48.991    14797.532    11933.325     2400.155        3.477        1.457      200.288       45.516        0.052      340.542       14.632      858.419
05/16/2013  10:33:00     -193.642     -134.469        2.222      153.424      151.272       74.418    23538.807    22883.155     5537.995        5.376        2.598      235.752       84.469        0.128      340.496       14.554      858.399
05/16/2013  10:34:00     -346.549     -122.797       -9.195      135.003      129.308       75.721    18225.822    16720.626     5733.645        8.796        2.034      367.662       63.729        0.030      340.418       14.420      858.383
05/16/2013  10:35:00     -341.555     -181.930      -11.750      118.796      108.309       63.397    14112.392    11730.738     4019.229        8.987        1.493      386.986       55.031        0.020      340.411       14.410      858.382
05/16/2013  10:36:00     -235.234      -46.812       -3.899      153.821      105.208       59.940    23660.864    11068.803     3592.855        4.793        1.916      239.846       59.118        0.061      340.547       14.639      858.379
05/16/2013  10:37:00     -357.857      -60.430       -6.839      191.771      126.396       69.166    36775.949    15975.872     4783.890        9.464        2.877      362.924       78.005        0.046      340.424       14.432      858.365
05/16/2013  10:38:00     -345.354      -49.467      -10.293      149.908       98.497       69.923    22472.363     9701.629     4889.276        7.944        1.853      348.879       71.263        0.042      340.463       14.497      858.359
05/16/2013  10:39:00     -303.240      -80.669       10.002      158.152      153.800       76.465    25011.950    23654.576     5846.886        7.653        2.726      313.787       78.206        0.062      340.509       14.575      858.365
05/16/2013  10:40:00     -102.572      -47.119       14.894      107.653       78.667       55.181    11589.181     6188.560     3044.907        1.689        1.041      112.877       55.950        0.246      340.666       14.844      858.383
05/16/2013  10:41:00     -151.189     -107.764        5.200      132.895      127.169       73.299    17661.104    16171.916     5372.767        3.685        1.960      185.664       71.848        0.150      340.641       14.799      858.388
05/16/2013  10:42:00     -256.938     -257.868       -2.748      213.450      155.543      106.617    45560.791    24193.603    11367.157       10.681        4.056      364.023      107.498        0.087      340.478       14.522      858.378
05/16/2013  10:43:00     -479.034     -224.260      -23.071      191.496      172.908       91.837    36670.693    29897.316     8434.005       17.764        3.750      528.929       92.895        0.031      340.457       14.487      858.362
05/16/2013  10:44:00     -409.218     -149.246      -22.950      161.941      144.379       79.694    26224.920    20845.253     6351.141       12.183        2.671      435.584       75.214        0.030      340.480       14.526      858.383
05/16/2013  10:45:00     -507.962     -143.480      -11.321      192.874      130.422       73.241    37200.505    17009.978     5364.268       16.915        2.979      527.837       72.677        0.019      340.416       14.418      858.379
05/16/2013  10:46:00     -409.520     -214.189       -6.983      177.042      133.186       74.969    31343.989    17738.493     5620.374       13.416        2.735      462.151       72.372        0.025      340.510       14.578      858.373
05/16/2013  10:47:00     -251.007     -208.526       -0.516      168.480      111.125       71.778    28385.451    12348.666     5152.028        7.618        2.294      326.324       73.222        0.050      340.555       14.652      858.407
05/16/2013  10:48:00     -274.313     -234.879       -2.021      190.964      164.565       81.541    36467.105    27081.519     6648.960       10.030        3.510      361.132       94.830        0.069      340.505       14.570      858.403
05/16/2013  10:49:00     -240.504     -180.733       11.715      198.082      169.379       84.353    39236.565    28689.398     7115.454        8.283        3.752      300.843       92.226        0.094      340.503       14.565      858.415
05/16/2013  10:50:00     -362.260        1.377       -3.387      219.443      144.460       79.227    48155.231    20868.782     6276.892       10.326        3.765      362.262       80.512        0.049      340.511       14.580      858.422
05/16/2013  10:51:00     -248.784      -72.594       -4.539      136.964      141.487       62.949    18759.270    20018.446     3962.541        5.495        2.137      259.159       64.401        0.062      340.541       14.630      858.422
05/16/2013  10:52:00     -153.930     -134.503       -7.109       96.066      111.476       59.509     9228.582    12426.954     3541.311        3.351        1.260      204.415       58.245        0.081      340.613       14.751      858.433
05/16/2013  10:53:00      -58.764      -73.089        6.458      131.002       74.795       49.093    17161.639     5594.245     2410.136        1.700        1.258       93.783       42.800        0.208      340.739       14.966      858.433
05/16/2013  10:54:00     -114.411     -146.143        4.169      120.397      114.106       48.712    14495.383    13020.148     2372.894        3.217        1.494      185.601       61.732        0.111      340.668       14.847      858.424
05/16/2013  10:55:00     -309.714     -165.122       -6.331      168.631      115.585       72.529    28436.403    13359.826     5260.511        8.513        2.353      350.981       87.284        0.062      340.559       14.660      858.397
05/16/2013  10:56:00     -223.158     -122.799        4.702      119.238      118.735       54.903    14217.596    14097.903     3014.304        4.811        1.566      254.714       49.689        0.038      340.619       14.761      858.391
05/16/2013  10:57:00     -255.868     -164.084       -9.250      209.013      150.534       72.053    43686.465    22660.581     5191.646        8.200        3.577      303.961       87.618        0.083      340.687       14.877      858.393
05/16/2013  10:58:00     -378.569     -158.127      -32.130      125.385      135.367       70.659    15721.339    18324.167     4992.627       10.419        1.952      410.266       69.275        0.029      340.554       14.651      858.404
05/16/2013  10:59:00     -309.547     -136.999      -15.625      142.259      128.313       62.504    20237.545    16464.211     3906.758        7.771        2.030      338.508       65.907        0.038      340.597       14.723      858.397
05/16/2013  11:00:00     -322.820     -113.369      -25.385      176.549      146.910       78.181    31169.438    21582.453     6112.316        8.828        2.943      342.148       86.803        0.064      340.675       14.855      858.402
05/16/2013  11:01:00     -343.040     -234.956       -2.744      200.654      131.390       88.368    40261.909    17263.414     7808.860       11.910        3.267      415.790       93.915        0.051      340.606       14.739      858.394
05/16/2013  11:02:00     -352.995     -234.632      -18.754      165.623      126.120       73.934    27431.119    15906.362     5466.193       11.440        2.440      423.860       81.911        0.037      340.585       14.703      858.363
05/16/2013  11:03:00     -214.096     -155.471      -13.972      123.857      101.936       59.457    15340.478    10391.013     3535.100        4.973        1.463      264.591       60.296        0.052      340.655       14.821      858.348
05/16/2013  11:04:00     -279.849     -210.642      -19.803      138.247      129.715       65.336    19112.178    16826.021     4268.753        8.164        2.010      350.265       63.939        0.033      340.754       14.991      858.348
05/16/2013  11:05:00     -358.258     -180.755       -4.714      159.315      165.486       74.650    25381.298    27385.739     5572.657       10.968        2.917      401.274       77.344        0.037      340.827       15.113      858.359
05/16/2013  11:06:00     -376.768     -224.023        5.802      209.958      161.006       95.541    44082.341    25922.927     9128.165       13.564        3.957      438.338      115.288        0.069      340.699       14.896      858.349
05/16/2013  11:07:00     -206.070     -208.978       -4.370      146.304      118.812       70.506    21404.960    14116.264     4971.165        6.332        2.025      293.491       76.170        0.067      340.658       14.826      858.350
05/16/2013  11:08:00     -302.101     -230.374        2.328      187.295      150.190       87.976    35079.333    22557.180     7739.749       10.485        3.269      379.917      103.866        0.075      340.691       14.883      858.328
05/16/2013  11:09:00     -409.703     -191.637       -7.449      240.454      142.358       79.899    57818.124    20265.843     6383.827       14.454        4.223      452.307      110.156        0.059      340.782       15.036      858.298
05/16/2013  11:10:00     -255.631     -194.973       -5.408      172.552      150.953       81.948    29774.075    22786.793     6715.456        8.132        2.964      321.499       74.639        0.054      340.796       15.061      858.302
05/16/2013  11:11:00     -288.162      -63.383       -7.882      155.577      123.266       66.756    24204.272    15194.527     4456.330        6.548        2.193      295.050       63.560        0.046      340.943       15.310      858.318
05/16/2013  11:12:00     -236.278     -135.674       14.634      209.617      150.116       73.578    43939.338    22534.883     5413.741        7.316        3.594      272.461       87.449        0.103      340.931       15.290      858.310
05/16/2013  11:13:00     -315.792     -264.984       -0.871      178.496      148.721       74.938    31860.649    22117.808     5615.674       11.476        2.980      412.239       81.840        0.039      340.781       15.036      858.309
05/16/2013  11:14:00     -433.310     -156.028      -23.955      162.832      146.742       71.170    26514.218    21533.101     5065.174       13.289        2.656      460.546       54.117        0.014      340.808       15.081      858.302
05/16/2013  11:15:00     -283.607     -185.770       -5.868      196.695      153.070       77.839    38689.010    23430.284     6058.904        9.157        3.409      339.033       92.540        0.075      340.917       15.266      858.307
05/16/2013  11:16:00     -273.685     -224.767      -15.571      155.908      138.834       73.147    24307.350    19274.889     5350.540        8.729        2.447      354.152       69.909        0.039      340.845       15.145      858.274
05/16/2013  11:17:00     -202.427     -185.082       -8.579      148.288      111.942       68.806    21989.473    12530.936     4734.222        5.727        1.963      274.285       69.970        0.065      340.930       15.287      858.275
05/16/2013  11:18:00     -179.035     -127.897       11.686      162.199      120.550       75.068    26308.579    14532.189     5635.135        4.750        2.324      220.025       86.395        0.154      341.165       15.687      858.266
05/16/2013  11:19:00     -355.065     -186.299      -12.320      193.519      164.209       75.534    37449.585    26964.725     5705.454       11.551        3.506      400.972       75.859        0.036      340.973       15.359      858.256
05/16/2013  11:20:00     -256.058     -185.540       11.606      214.716      155.837       92.553    46102.999    24285.194     8566.083        8.953        3.948      316.214      102.261        0.105      341.014       15.430      858.271
05/16/2013  11:21:00     -339.361     -118.432       -4.535      192.114      159.863       77.584    36907.758    25556.239     6019.287        9.884        3.424      359.433       88.785        0.061      340.918       15.267      858.248
05/16/2013  11:22:00     -193.063     -171.296       -1.735      158.211      128.831       61.756    25030.794    16597.408     3813.812        5.602        2.272      258.100       57.970        0.050      341.109       15.591      858.234
05/16/2013  11:23:00     -230.099     -239.373       14.291      181.285      171.857       96.635    32864.377    29534.671     9338.245        9.108        3.587      332.032      109.161        0.108      341.036       15.466      858.241
05/16/2013  11:24:00     -381.874     -242.742      -24.687      169.674      140.810       69.625    28789.402    19827.486     4847.634       12.940        2.673      452.495       70.867        0.025      340.862       15.173      858.196
05/16/2013  11:25:00     -459.551     -138.777        2.027      193.008      171.743       99.135    37252.055    29495.516     9827.838       15.350        3.829      480.048      103.804        0.047      340.968       15.352      858.212
05/16/2013  11:26:00     -252.359     -148.829      -20.857      147.403      147.246       81.230    21727.578    21681.267     6598.356        6.813        2.500      292.976       70.878        0.059      340.941       15.307      858.200
05/16/2013  11:27:00     -363.260       43.297       -7.031      169.929      108.417       83.761    28875.849    11754.176     7015.893        9.076        2.382      365.831       80.442        0.048      341.299       15.911      858.199
05/16/2013  11:28:00     -292.370     -213.443        0.821      178.282      168.316       70.124    31784.516    28330.371     4917.313        9.802        3.252      361.992       88.449        0.060      341.235       15.805      858.178
05/16/2013  11:29:00     -208.555      -95.820       -1.365      201.863      145.933       72.784    40748.578    21296.319     5297.523        6.000        3.367      229.514       89.605        0.152      341.243       15.820      858.165
05/16/2013  11:30:00     -194.059     -171.847       18.412      201.138      151.810       86.415    40456.336    23046.312     7467.556        6.924        3.549      259.211      102.511        0.156      341.395       16.076      858.171
05/16/2013  11:31:00     -370.439      -84.866       -9.613      234.773      163.470       92.878    55118.587    26722.496     8626.387       11.748        4.523      380.036      104.278        0.075      341.145       15.651      858.187
05/16/2013  11:32:00     -285.546     -181.966        4.368      169.369      174.741       73.827    28685.709    30534.307     5450.484        8.966        3.234      338.597       77.941        0.053      341.143       15.649      858.186
05/16/2013  11:33:00     -301.025     -145.019        1.684      173.259      176.250       80.591    30018.706    31063.895     6494.829        8.960        3.379      334.136       81.257        0.059      341.184       15.718      858.195
05/16/2013  11:34:00     -532.885      -92.326      -15.350      199.118      140.096       76.975    39647.856    19626.948     5925.192       17.895        3.260      540.824       88.578        0.027      341.061       15.509      858.167
05/16/2013  11:35:00     -323.618     -317.615       -7.247      234.018      175.092       87.983    54764.448    30657.157     7740.928       14.940        4.658      453.440      106.848        0.056      341.075       15.532      858.174
05/16/2013  11:36:00     -299.665     -203.476       -5.717      197.730      185.470       83.317    39097.072    34399.160     6941.716       10.582        4.022      362.218       78.535        0.047      341.190       15.727      858.184
05/16/2013  11:37:00     -453.428     -225.845      -10.873      233.765      203.108      101.521    54646.182    41252.966    10306.469       18.145        5.310      506.560      113.941        0.051      341.050       15.490      858.194
05/16/2013  11:38:00     -366.813     -196.927      -20.750      180.208      138.229       82.328    32474.782    19107.241     6777.913       11.605        2.918      416.332       91.274        0.048      340.963       15.344      858.181
05/16/2013  11:39:00     -458.435     -186.502       -7.282      251.910      168.612       95.079    63458.848    28430.142     9039.959       17.295        5.046      494.920      115.726        0.055      341.142       15.646      858.173
05/16/2013  11:40:00     -409.551     -184.246      -12.414      222.320      164.905      100.566    49426.297    27193.777    10113.492       14.427        4.337      449.086      111.201        0.061      341.069       15.524      858.174
05/16/2013  11:41:00     -400.459      -28.502      -12.530      160.159      153.804       81.126    25650.850    23655.713     6581.427       10.860        2.794      401.472       69.761        0.030      341.160       15.676      858.163
05/16/2013  11:42:00     -286.778     -160.539        3.694      216.654      180.615       96.800    46938.976    32621.800     9370.221        9.846        4.447      328.655      111.300        0.115      341.314       15.938      858.187
05/16/2013  11:43:00     -488.664     -118.868      -27.229      230.064      184.316       88.748    52929.611    33972.317     7876.159       17.421        4.739      502.914       65.634        0.017      341.090       15.559      858.182
05/16/2013  11:44:00     -455.904     -205.418      -13.271      231.251      172.754       97.054    53476.885    29844.036     9419.390       17.147        4.637      500.045      113.692        0.052      341.048       15.487      858.150
05/16/2013  11:45:00     -446.605       36.205      -26.326      215.927      148.219       79.382    46624.277    21968.783     6301.575       13.816        3.745      448.070       97.711        0.048      341.023       15.446      858.178
05/16/2013  11:46:00     -379.854     -131.330       -7.282      224.141      139.210       85.781    50238.981    19379.344     7358.410       11.927        3.849      401.916      105.156        0.068      341.077       15.537      858.155
05/16/2013  11:47:00     -430.330     -148.455      -14.371      213.781      172.156       77.436    45702.206    29637.835     5996.332       14.437        4.067      455.217       81.714        0.032      341.041       15.474      858.140
05/16/2013  11:48:00     -445.466     -139.903      -24.345      229.113      187.140       91.851    52492.692    35021.329     8436.551       15.726        4.798      466.919      112.643        0.058      341.086       15.551      858.111
05/16/2013  11:49:00     -240.943     -136.074        1.679      201.270      165.473       99.139    40509.617    27381.312     9828.554        7.713        3.886      276.712      110.175        0.159      341.258       15.844      858.116
05/16/2013  11:50:00     -283.164     -149.863       -1.056      223.449      148.544       79.777    49929.434    22065.331     6364.329        9.049        3.918      320.376       78.879        0.061      341.325       15.956      858.155
05/16/2013  11:51:00     -468.948     -300.676      -13.807      256.462      167.509      119.042    65772.675    28059.151    14170.887       20.924        5.400      557.062      129.544        0.054      341.011       15.425      858.111
05/16/2013  11:52:00     -589.881     -256.816      -35.607      211.000      220.599      103.559    44521.050    48663.996    10724.458       25.953        5.195      643.361       86.256        0.018      340.901       15.239      858.141
05/16/2013  11:53:00     -316.611     -226.350      -29.646      171.211      107.065       74.281    29313.147    11462.908     5517.717        9.932        2.315      389.201       72.106        0.034      341.064       15.513      858.140
05/16/2013  11:54:00     -231.407     -128.465        3.443      130.677      108.943       63.378    17076.441    11868.472     4016.727        5.151        1.648      264.674       68.522        0.067      341.277       15.874      858.134
05/16/2013  11:55:00     -175.678      -92.198       15.675      177.345       89.265       70.826    31451.276     7968.296     5016.305        4.202        2.222      198.402       92.657        0.218      341.423       16.123      858.165
05/16/2013  11:56:00     -391.618     -166.363       -7.021      228.267      144.100       79.340    52105.916    20764.814     6294.819       13.011        3.958      425.490       82.935        0.038      341.183       15.715      858.167
05/16/2013  11:57:00     -246.746     -115.293        2.426      162.267      129.110       75.772    26330.614    16669.276     5741.397        6.145        2.437      272.353       72.476        0.071      341.258       15.843      858.163
05/16/2013  11:58:00     -351.342     -215.661      -26.549      165.569      117.355       87.071    27413.167    13772.080     7581.409       10.970        2.438      412.251       85.977        0.043      341.162       15.680      858.162
05/16/2013  11:59:00     -388.310     -249.691      -24.154      185.291      133.151       76.945    34332.861    17729.158     5920.562       13.584        2.899      461.660       87.752        0.036      341.062       15.511      858.174
05/16/2013  12:00:00     -252.084      -41.274        7.682      176.356      138.329       72.729    31101.451    19135.024     5289.517        6.041        2.776      255.440       83.683        0.107      341.266       15.858      858.180
05/16/2013  12:01:00     -208.408     -121.930       -2.499      153.844      140.238       70.101    23667.931    19666.750     4914.197        5.327        2.412      241.456       72.339        0.090      341.170       15.695      858.163
05/16/2013  12:02:00     -217.721     -177.146       11.521      169.848      128.325       76.515    28848.215    16467.344     5854.532        6.503        2.559      280.683       80.309        0.082      341.176       15.704      858.153
05/16/2013  12:03:00     -192.386     -112.961       -4.704      151.285      174.541       78.769    22887.187    30464.493     6204.582        5.467        2.978      223.098      102.030        0.209      341.256       15.841      858.153
05/16/2013  12:04:00     -172.480     -131.231        9.844      152.853      137.603       68.561    23364.009    18934.669     4700.545        4.703        2.350      216.728       76.795        0.126      341.336       15.976      858.162
05/16/2013  12:05:00     -371.719     -294.249       -4.592      210.370      189.019      101.080    44255.743    35728.260    10217.254       15.747        4.510      474.086      106.181        0.050      341.075       15.534      858.141
05/16/2013  12:06:00     -438.058     -279.204       -1.293      227.011      159.991       94.266    51533.877    25597.082     8886.153       17.792        4.301      519.471      108.314        0.043      340.973       15.360      858.120
05/16/2013  12:07:00     -343.390     -301.816       -7.569      163.949      187.602       85.928    26879.430    35194.543     7383.623       13.925        3.473      457.176       87.841        0.037      340.997       15.401      858.106
05/16/2013  12:08:00     -474.254     -348.423       -0.969      262.069      235.886      110.156    68680.070    55642.377    12134.288       24.136        6.823      588.485      121.787        0.043      341.014       15.428      858.113
05/16/2013  12:09:00     -415.145     -318.483      -12.132      250.998      171.754      108.641    62999.829    29499.597    11802.895       18.910        5.215      523.237      130.637        0.062      340.975       15.363      858.121
05/16/2013  12:10:00     -303.113     -301.557       -2.825      168.270      131.545       90.720    28314.684    17304.183     8230.161       11.833        2.692      427.568       92.169        0.046      340.921       15.272      858.128
05/16/2013  12:11:00     -420.523     -321.417      -19.796      232.016      174.264      108.537    53831.295    30367.810    11780.264       18.824        4.799      529.290      119.620        0.051      340.968       15.353      858.111
05/16/2013  12:12:00     -244.921     -191.019       27.572      173.338      152.517       88.671    30046.067    23261.494     7862.497        7.919        3.059      310.603       96.009        0.096      341.179       15.709      858.127
05/16/2013  12:13:00     -274.835     -120.653       11.908      124.881      150.078       78.753    15595.267    22523.379     6202.075        6.727        2.216      300.153       68.058        0.051      341.170       15.695      858.151
05/16/2013  12:14:00     -211.008      -98.849       18.170      148.123      125.183       83.371    21940.496    15670.839     6950.695        4.959        2.228      233.014       84.844        0.133      341.260       15.847      858.126
05/16/2013  12:15:00     -443.222      -87.948       -8.811      266.981      171.719       83.389    71278.964    29487.509     6953.695       15.597        5.386      451.864       94.838        0.044      341.072       15.529      858.110
05/16/2013  12:16:00     -383.364     -141.330       11.507      233.262      193.475       85.158    54410.935    37432.636     7251.822       13.307        4.955      408.586       88.362        0.047      341.056       15.501      858.094
05/16/2013  12:17:00     -295.552     -212.783       -1.437      183.077      160.193       94.374    33517.261    25661.650     8906.476       10.035        3.404      364.181       97.779        0.072      341.083       15.546      858.102
05/16/2013  12:18:00     -419.734     -289.981      -10.101      220.250      183.109       87.078    48510.188    33528.748     7582.598       17.498        4.481      510.162      105.656        0.043      341.020       15.440      858.068
05/16/2013  12:19:00     -230.680      -72.561        5.814      195.143      144.776       81.542    38080.945    20959.995     6649.111        6.209        3.285      241.823       78.836        0.106      341.263       15.851      858.068
05/16/2013  12:20:00     -151.662     -143.917       14.223      194.012      146.542       82.477    37640.675    21474.608     6802.395        5.491        3.296      209.078       89.893        0.185      341.241       15.814      858.057
05/16/2013  12:21:00     -239.561      -34.050       -9.638      167.635      136.198       70.584    28101.616    18549.782     4982.129        5.513        2.582      241.969       74.703        0.095      341.237       15.807      858.021
05/16/2013  12:22:00     -323.014      -61.855       -9.826      175.074      206.356       85.250    30650.871    42582.926     7267.480        9.437        4.025      328.883       91.681        0.078      341.251       15.830      857.992
05/16/2013  12:23:00     -287.138     -138.312       14.139      285.271      149.134       98.164    81379.616    22240.843     9636.200       10.750        5.663      318.713      135.082        0.180      341.258       15.845      857.988
05/16/2013  12:24:00     -287.785     -290.627        3.539      206.581      190.723      105.099    42675.791    36375.088    11045.741       12.868        4.505      409.004      105.596        0.067      341.128       15.623      857.961
05/16/2013  12:25:00     -312.187     -102.315       -3.611      185.402      118.790       78.521    34373.962    14110.971     6165.517        8.129        2.733      328.526       96.520        0.086      341.178       15.707      857.961
05/16/2013  12:26:00     -285.605      -64.089        3.812      129.015      100.631       64.413    16644.790    10126.587     4149.015        5.830        1.546      292.707       67.174        0.053      341.261       15.848      857.950
05/16/2013  12:27:00     -236.883      -43.654       -3.215      155.488      110.495       58.987    24176.645    12209.131     3479.491        4.894        1.993      240.872       64.106        0.071      341.301       15.915      857.954
05/16/2013  12:28:00     -219.318      -91.623        7.314      158.940      128.821       68.651    25261.780    16594.935     4712.968        5.155        2.328      237.687       76.111        0.103      341.415       16.109      857.949
05/16/2013  12:29:00     -373.861     -221.296       -3.877      178.072      160.350       79.578    31709.724    25711.962     6332.709       12.625        3.188      434.446       84.684        0.038      341.219       15.776      857.949
05/16/2013  12:30:00     -235.327      -31.967       11.204      176.390       86.890       68.395    31113.549     7549.890     4677.863        4.993        2.167      237.488       82.029        0.119      341.326       15.958      857.927
05/16/2013  12:31:00     -274.347      -69.025        8.341      164.418      191.281       81.004    27033.245    36588.490     6561.642        7.513        3.509      282.897       73.482        0.067      341.316       15.940      857.919
05/16/2013  12:32:00     -361.071     -170.488      -31.016      135.709      136.594       58.911    18416.887    18657.813     3470.535       10.047        2.027      399.297       57.844        0.021      341.294       15.903      857.922
05/16/2013  12:33:00     -247.994     -176.909      -13.268      194.484      107.272       71.472    37824.022    11507.284     5108.288        7.370        2.722      304.627       81.811        0.072      341.312       15.936      857.943
05/16/2013  12:34:00     -151.835      -64.787        8.055      122.299      121.122       67.202    14956.943    14670.455     4516.042        3.072        1.707      165.080       73.084        0.196      341.382       16.055      857.923
05/16/2013  12:35:00     -147.932     -102.491        7.970      104.622      116.023       58.997    10945.672    13461.418     3480.696        3.017        1.394      179.968       58.602        0.106      341.509       16.269      857.918
05/16/2013  12:36:00     -196.890     -105.934       -3.213       83.293      109.746       55.035     6937.646    12044.100     3028.889        3.600        1.101      223.580       45.487        0.041      341.417       16.111      857.919
05/16/2013  12:37:00     -184.960     -201.660        6.627      146.461      113.871       69.132    21450.966    12966.684     4779.198        5.705        1.960      273.637       83.286        0.093      341.375       16.039      857.882
05/16/2013  12:38:00     -183.387     -170.365        2.239      150.266      118.648       71.663    22579.731    14077.266     5135.651        5.222        2.090      250.310       74.316        0.088      341.431       16.135      857.869
05/16/2013  12:39:00     -214.117     -119.734        9.653      148.387      161.478       78.054    22018.809    26075.203     6092.382        5.722        2.709      245.321       76.478        0.097      341.260       15.847      857.866
05/16/2013  12:40:00     -349.038     -137.312      -30.142      173.173      174.776       64.826    29988.816    30546.629     4202.380       10.315        3.237      375.076       70.334        0.035      341.280       15.880      857.830
05/16/2013  12:41:00     -423.442     -168.715       -9.811      182.618      170.558       87.658    33349.261    29089.985     7684.006       13.898        3.506      455.816       91.913        0.041      341.330       15.964      857.791
05/16/2013  12:42:00     -303.457     -137.399      -20.348      166.475      160.635       64.112    27713.810    25803.446     4110.307        8.449        2.881      333.114       64.307        0.037      341.376       16.042      857.827
05/16/2013  12:43:00     -274.431      -73.715        1.790      152.955      140.918       70.453    23395.270    19857.991     4963.576        6.448        2.411      284.159       73.026        0.066      341.424       16.123      857.857
05/16/2013  12:44:00     -259.054      -76.986      -15.954      139.074      130.545       72.093    19341.581    17041.935     5197.380        5.743        2.079      270.251       80.386        0.088      341.416       16.111      857.881
05/16/2013  12:45:00      -94.394      -31.036       21.454      104.394       79.931       55.151    10898.138     6389.014     3041.646        1.533        1.016       99.365       47.606        0.230      341.688       16.573      857.879
05/16/2013  12:46:00     -278.773     -130.311       -6.923      145.179      110.513       52.186    21077.082    12213.103     2723.356        6.537        1.801      307.726       46.903        0.023      341.449       16.166      857.878
05/16/2013  12:47:00     -308.696     -124.409       -2.867      151.869      140.688       81.036    23064.104    19793.063     6566.900        8.009        2.471      332.823       67.988        0.042      341.326       15.958      857.848
05/16/2013  12:48:00     -121.999     -172.208       21.752      133.022      133.266       66.530    17694.749    17759.829     4426.277        4.244        1.994      211.043       70.086        0.110      341.366       16.026      857.818
05/16/2013  12:49:00     -240.157     -173.679        2.622      190.872      140.026       85.671    36432.114    19607.210     7339.578        7.560        3.169      296.378       95.844        0.105      341.399       16.081      857.806
05/16/2013  12:50:00     -120.783      -45.565       24.154      151.955       90.791       69.998    23090.396     8242.963     4899.738        2.673        1.812      129.091       72.538        0.316      341.590       16.405      857.809
05/16/2013  12:51:00     -197.848     -198.277        3.543      164.331      157.500       83.514    27004.620    24806.186     6974.550        6.862        2.939      280.103      107.668        0.148      341.352       16.002      857.802
05/16/2013  12:52:00     -152.986     -156.311       17.893      162.021      165.021       79.012    26250.750    27231.969     6242.824        5.393        2.986      218.719       98.455        0.203      341.423       16.123      857.775
05/16/2013  12:53:00     -124.593     -154.149        9.392      121.943      108.221       55.467    14870.216    11711.880     3076.573        3.451        1.483      198.205       39.492        0.040      341.335       15.976      857.762
05/16/2013  12:54:00     -228.728     -202.523        4.039       98.196      118.866       56.887     9642.512    14129.188     3236.099        6.017        1.350      305.503       46.215        0.023      341.385       16.059      857.752
05/16/2013  12:55:00     -261.828     -176.148        0.183      150.086      107.270       69.201    22525.716    11506.869     4788.737        6.920        1.941      315.566       70.203        0.049      341.388       16.063      857.755
05/16/2013  12:56:00     -235.736     -141.543      -12.816      166.456      145.883       77.254    27707.606    21281.942     5968.208        6.535        2.748      274.965       90.491        0.108      341.564       16.362      857.747
05/16/2013  12:57:00     -180.288     -190.609        6.602      171.289      163.193       78.736    29339.798    26631.999     6199.312        6.551        3.109      262.365       82.922        0.100      341.430       16.135      857.740
05/16/2013  12:58:00     -256.625     -191.267        6.449      145.261      109.010       83.043    21100.767    11883.103     6896.179        7.117        1.994      320.061       78.816        0.061      341.453       16.172      857.709
05/16/2013  12:59:00     -143.443     -107.759       10.349      130.414       86.755       67.594    17007.715     7526.431     4568.937        3.069        1.455      179.410       73.905        0.170      341.616       16.450      857.713
05/16/2013  13:00:00     -350.239      -76.540      -14.022      206.196      118.794       77.931    42516.955    14111.938     6073.245        9.570        3.135      358.505      101.476        0.080      341.469       16.201      857.736
05/16/2013  13:01:00     -412.346     -146.813      -21.497      211.673      149.759       79.931    44805.506    22427.836     6388.999       13.282        3.681      437.702       93.757        0.046      341.380       16.049      857.747
05/16/2013  13:02:00     -453.513     -132.880      -23.299      244.167      178.901       79.617    59617.691    32005.610     6338.860       16.090        4.898      472.579      100.456        0.045      341.362       16.019      857.740
05/16/2013  13:03:00     -254.523     -152.415       -5.862      153.060      149.337       78.123    23427.475    22301.506     6103.275        6.993        2.592      296.669       82.162        0.077      341.412       16.104      857.722
05/16/2013  13:04:00     -329.875      -80.056      -16.992      167.020      154.779       78.618    27895.629    23956.633     6180.855        8.676        2.902      339.450       76.122        0.050      341.515       16.277      857.712
05/16/2013  13:05:00     -305.006     -120.103       -8.754      141.824      134.017       71.606    20114.105    17960.562     5127.356        7.536        2.160      327.801       70.591        0.046      341.436       16.143      857.691
05/16/2013  13:06:00     -247.408     -124.653        1.169      125.921      133.151       58.397    15855.990    17729.110     3410.185        5.687        1.850      277.036       52.228        0.036      341.646       16.500      857.683
05/16/2013  13:07:00     -378.212      -61.471       -3.331      158.698      116.013       71.718    25185.015    13458.931     5143.403        9.530        2.189      383.175       84.017        0.048      341.575       16.380      857.700
05/16/2013  13:08:00     -230.400     -140.684        2.419      211.487      184.837       81.064    44726.804    34164.685     6571.327        7.916        4.273      269.956       95.961        0.126      341.535       16.312      857.679
05/16/2013  13:09:00     -240.855      -34.210       -2.198      186.879      117.285       83.550    34923.692    13755.683     6980.527        5.741        2.783      243.272       90.272        0.138      341.615       16.447      857.677
05/16/2013  13:10:00     -421.495      -55.725      -10.794      178.116      145.455       94.365    31725.166    21157.067     8904.787       12.132        3.089      425.163      103.370        0.059      341.421       16.119      857.680
05/16/2013  13:11:00     -267.579     -137.366       16.216      215.112      141.787       88.837    46273.009    20103.549     7891.927        8.249        3.713      300.779      113.542        0.143      341.463       16.190      857.665
05/16/2013  13:12:00     -348.939     -200.881      -15.381      212.965      174.036       86.994    45354.100    30288.679     7567.926       12.277        4.161      402.631       81.015        0.040      341.462       16.188      857.665
05/16/2013  13:13:00     -434.413      -41.532       -1.972      199.132      161.341       96.248    39653.476    26031.053     9263.712       13.268        3.747      436.394      109.422        0.063      341.439       16.148      857.658
05/16/2013  13:14:00     -442.583      -45.565       -2.184      190.975      167.341      100.208    36471.558    28002.957    10041.645       13.623        3.726      444.923      103.849        0.054      341.410       16.101      857.634
05/16/2013  13:15:00     -217.902      -86.993        3.602      137.746      113.219       72.154    18974.081    12818.649     5206.146        4.602        1.850      234.625       74.447        0.101      341.680       16.556      857.666
05/16/2013  13:16:00     -305.579     -213.493       -5.887      194.915      154.244       79.208    37991.837    23791.219     6273.861       10.351        3.403      372.771       89.843        0.058      341.565       16.363      857.675
05/16/2013  13:17:00     -416.955     -217.845      -14.069      249.191      205.818      114.991    62096.378    42361.208    13223.025       16.957        5.884      470.434      127.258        0.073      341.393       16.070      857.629
05/16/2013  13:18:00     -230.183     -114.330       -0.631      135.702      154.325       65.696    18415.012    23816.070     4316.009        5.629        2.327      257.013       57.959        0.051      341.587       16.400      857.625
05/16/2013  13:19:00     -207.241     -191.627       11.272      182.311      151.129       87.174    33237.255    22839.878     7599.221        7.173        3.184      282.258       93.890        0.111      341.502       16.257      857.582
05/16/2013  13:20:00     -393.616     -120.324       -8.224      265.564      145.956       83.681    70524.116    21303.179     7002.451       13.414        4.941      411.596      107.091        0.068      341.387       16.061      857.569
05/16/2013  13:21:00     -399.396      -22.036      -16.807      203.893      153.534       96.472    41572.386    23572.651     9306.868       11.736        3.723      400.003       92.740        0.054      341.559       16.352      857.555
05/16/2013  13:22:00     -410.825     -125.884       -8.188      260.593      164.074       94.808    67908.703    26920.380     8988.485       14.424        5.191      429.679      106.260        0.061      341.472       16.206      857.579
05/16/2013  13:23:00     -366.746     -348.963       26.704      306.452      207.774      143.696    93912.781    43170.020    20648.466       20.733        7.887      506.239      165.339        0.107      341.263       15.851      857.541
05/16/2013  13:24:00     -242.868     -166.286        9.772      228.707      147.909      102.894    52306.974    21876.963    10587.241        8.574        4.239      294.339      106.549        0.131      341.451       16.170      857.564
05/16/2013  13:25:00     -501.836     -262.114      -17.863      283.357      207.539      119.501    80291.389    43072.434    14280.432       22.923        6.882      566.165      146.320        0.067      341.262       15.850      857.578
05/16/2013  13:26:00     -515.132     -188.848      -28.249      254.203      206.456      104.652    64619.241    42623.881    10952.108       20.999        5.910      548.657      118.669        0.047      341.278       15.877      857.570
05/16/2013  13:27:00     -413.853     -112.404      -15.995      257.123      169.495      105.075    66112.483    28728.558    11040.761       14.501        5.294      428.846      130.786        0.093      341.297       15.909      857.587
05/16/2013  13:28:00     -364.952     -178.234        2.388      185.797      134.195       76.067    34520.416    18008.250     5786.193       11.163        2.916      406.149       72.419        0.032      341.308       15.928      857.596
05/16/2013  13:29:00     -338.545      -69.828      -10.304      180.742      142.294       81.165    32667.616    20247.622     6587.779        8.954        2.975      345.671       92.423        0.071      341.471       16.204      857.588
05/16/2013  13:30:00     -455.185     -187.028      -20.092      258.170      155.793      105.240    66651.753    24271.511    11075.400       17.227        5.100      492.111      119.452        0.059      341.357       16.009      857.561
05/16/2013  13:31:00     -360.763     -112.736      -11.459      208.153      162.199       74.301    43327.873    26308.618     5520.572       10.906        3.758      377.968       82.664        0.048      341.415       16.109      857.593
05/16/2013  13:32:00     -185.700     -200.363        7.049      109.874      136.897       68.232    12072.326    18740.770     4655.560        5.507        1.773      273.185       64.757        0.056      341.431       16.135      857.600
05/16/2013  13:33:00     -239.433      -66.892       -0.583      166.088      127.759       71.657    27585.313    16322.394     5134.739        5.541        2.452      248.601       70.853        0.081      341.533       16.307      857.576
05/16/2013  13:34:00     -401.847      -86.839       -8.823      247.684      175.328       89.958    61347.496    30739.970     8092.436       13.462        5.009      411.123      106.574        0.067      341.429       16.134      857.556
05/16/2013  13:35:00     -341.698      -47.971        2.819      197.397      132.305       80.231    38965.551    17504.605     6436.947        9.098        3.145      345.049       87.871        0.065      341.466       16.194      857.557
05/16/2013  13:36:00     -356.388     -133.022        0.210      253.552      212.823      122.117    64288.520    45293.503    14912.507       13.458        6.225      380.404      126.215        0.110      341.353       16.004      857.545
05/16/2013  13:37:00     -300.671     -130.560       -7.618      203.333      169.385       87.753    41344.493    28691.203     7700.521        9.261        3.887      327.795       95.627        0.085      341.329       15.962      857.535
05/16/2013  13:38:00     -458.377     -181.399      -21.744      250.589      204.975       94.406    62794.858    42014.613     8912.457       17.859        5.686      492.965       95.060        0.037      341.281       15.881      857.528
05/16/2013  13:39:00     -429.454     -285.829      -20.816      221.713      196.985       98.065    49156.608    38802.963     9616.771       18.205        4.879      515.877      113.722        0.049      341.234       15.801      857.504
05/16/2013  13:40:00     -367.454     -199.670       -2.730      218.126      146.436       85.882    47578.909    21443.625     7375.789       12.564        3.820      418.199       98.217        0.055      341.365       16.024      857.501
05/16/2013  13:41:00     -455.263     -184.429      -26.399      221.860      148.247       85.992    49221.739    21977.177     7394.684       16.027        3.930      491.201       86.217        0.031      341.400       16.084      857.515
05/16/2013  13:42:00     -474.351     -136.279      -19.999      284.569      168.949      113.054    80979.427    28543.768    12781.207       18.312        6.115      493.539      133.533        0.073      341.286       15.890      857.495
05/16/2013  13:43:00     -444.210      -87.169       10.170      251.763      207.449      100.299    63384.444    43034.973    10059.940       16.073        5.824      452.682      120.621        0.071      341.324       15.955      857.492
05/16/2013  13:44:00     -383.103      -69.838       10.676      207.661      173.527      100.307    43123.281    30111.557    10061.576       11.751        4.165      389.417      121.953        0.098      341.394       16.073      857.521
05/16/2013  13:45:00     -443.898     -151.677        8.471      284.182      195.155       92.678    80759.271    38085.398     8589.204       17.376        6.372      469.096      110.433        0.055      341.311       15.932      857.515
05/16/2013  13:46:00     -417.830     -161.405        2.164      227.989      219.977      101.841    51979.031    48389.756    10371.635       15.567        5.537      447.921      105.446        0.055      341.336       15.975      857.500
05/16/2013  13:47:00     -412.463     -212.459       -2.036      283.457      187.832       95.232    80347.609    35280.769     9069.145       16.996        6.235      463.966      125.977        0.074      341.349       15.997      857.492
05/16/2013  13:48:00     -298.651     -258.077        5.341      228.910      185.666      110.742    52399.571    34471.962    12263.788       12.746        4.957      394.710      115.205        0.085      341.284       15.886      857.481
05/16/2013  13:49:00     -428.761     -130.824       -3.460      237.943      164.290      106.743    56616.797    26991.064    11394.024       14.797        4.750      448.275      109.015        0.059      341.228       15.794      857.477
05/16/2013  13:50:00     -381.942     -235.277      -14.356      220.507      150.916       85.144    48623.545    22775.624     7249.568       14.003        3.932      448.592       74.413        0.028      341.221       15.780      857.456
05/16/2013  13:51:00     -401.282      -38.047      -15.450      264.194      152.076       84.097    69798.503    23127.067     7072.387       13.134        5.000      403.082      111.061        0.076      341.272       15.868      857.433
05/16/2013  13:52:00     -258.798      -68.209      -26.567      195.269      116.447       69.990    38130.146    13559.930     4898.653        6.445        2.829      267.636       82.118        0.094      341.375       16.042      857.428
05/16/2013  13:53:00     -459.198     -196.446      -18.672      229.184      149.197       78.810    52525.278    22259.860     6211.023       16.539        4.050      499.453      100.498        0.040      341.362       16.019      857.454
05/16/2013  13:54:00     -355.308     -147.694       11.807      263.578      213.462      121.903    69473.487    45566.112    14860.275       13.903        6.495      384.782      130.670        0.115      341.279       15.877      857.390
05/16/2013  13:55:00     -374.430     -250.315        8.893      275.859      188.920      113.964    76097.956    35690.787    12987.835       16.383        6.239      450.395      130.229        0.084      341.277       15.875      857.394
05/16/2013  13:56:00     -470.744     -358.265        4.819      266.123      247.681      124.777    70821.524    61345.777    15569.206       24.883        7.387      591.569      150.256        0.065      341.146       15.654      857.393
05/16/2013  13:57:00     -444.406     -198.703       -0.841      218.071      198.925      100.848    47555.036    39571.051    10170.382       16.712        4.865      486.806       97.925        0.040      341.184       15.718      857.431
05/16/2013  13:58:00     -451.294     -307.293      -14.636      276.695      227.155      115.106    76560.177    51599.325    13249.424       21.984        7.070      545.981      124.477        0.052      341.141       15.644      857.422
05/16/2013  13:59:00     -369.784     -282.654       -2.359      262.780      203.337      112.443    69053.399    41346.105    12643.434       16.982        6.152      465.439      115.879        0.062      341.096       15.568      857.380
05/16/2013  14:00:00     -413.285     -251.466       -5.637      256.031      208.245      118.195    65551.854    43366.073    13970.026       17.846        6.144      483.776      138.451        0.082      341.095       15.568      857.374
05/16/2013  14:01:00     -466.052     -225.641      -34.689      194.946      189.932      104.051    38004.132    36074.230    10826.522       17.710        4.245      517.801      101.518        0.038      341.142       15.645      857.363
05/16/2013  14:02:00     -645.881     -111.237        4.705      312.567      270.036      127.682    97698.009    72919.665    16302.783       30.821        9.346      655.390      134.677        0.042      341.154       15.668      857.347
05/16/2013  14:03:00     -540.163     -249.982      -31.863      238.707      294.921      120.721    56980.842    86978.186    14573.442       25.688        7.927      595.204      115.412        0.038      341.154       15.667      857.397
05/16/2013  14:04:00     -320.774     -218.440      -10.555      245.212      197.884      122.005    60129.058    39158.168    14885.333       13.243        5.709      388.088      120.456        0.096      341.233       15.801      857.393
05/16/2013  14:05:00     -388.659     -291.531      -12.425      250.963      170.711      103.012    62982.350    29142.193    10611.456       16.945        5.137      485.846      107.938        0.049      341.117       15.603      857.362
05/16/2013  14:06:00     -595.478     -247.718      -21.728      277.505      197.250      121.806    77008.852    38907.667    14836.611       27.357        6.538      644.949      141.748        0.048      341.036       15.468      857.377
05/16/2013  14:07:00     -461.824     -251.882        0.971      266.663      198.146      107.181    71109.279    39261.960    11487.768       19.927        6.093      526.047      125.600        0.057      341.065       15.516      857.360
05/16/2013  14:08:00     -484.729     -283.865        0.166      257.733      206.553      119.519    66426.190    42664.144    14284.833       21.944        6.169      561.730      135.533        0.058      341.056       15.499      857.342
05/16/2013  14:09:00     -406.016     -192.965      -14.640      254.292      162.383      102.557    64664.640    26368.282    10517.839       15.191        5.078      449.538      123.767        0.076      341.099       15.572      857.314
05/16/2013  14:10:00     -454.832     -125.399      -30.318      250.105      212.848       89.771    62552.759    45304.284     8058.847       16.970        5.796      471.802       99.078        0.044      341.160       15.677      857.343
05/16/2013  14:11:00     -371.116     -201.796       -4.798      255.906      231.822      109.683    65488.136    53741.316    12030.407       15.484        6.563      422.432      134.942        0.102      341.158       15.675      857.330
05/16/2013  14:12:00     -363.875     -124.291        1.730      211.953      147.236       91.913    44923.916    21678.304     8448.047       11.144        3.753      384.517       96.108        0.062      341.184       15.718      857.346
05/16/2013  14:13:00     -307.439     -205.147       27.179      252.686      167.187      101.926    63850.096    27951.547    10388.933       11.975        5.110      369.600      126.715        0.118      341.128       15.623      857.337
05/16/2013  14:14:00     -320.770     -179.710      -12.612      179.967      163.716       99.908    32388.051    26803.004     9981.635       10.225        3.459      367.680      111.583        0.092      341.111       15.594      857.355
05/16/2013  14:15:00     -421.781     -229.410       -6.914      248.925      245.919      116.301    61963.597    60476.087    13526.028       18.325        6.798      480.134      125.504        0.068      341.089       15.556      857.339
05/16/2013  14:16:00     -514.810     -149.823      -21.462      282.528      209.077      101.400    79821.845    43713.275    10281.868       21.085        6.691      536.168      105.021        0.038      341.033       15.463      857.316
05/16/2013  14:17:00     -320.422     -126.841       -3.760      225.003      196.266      117.104    50626.573    38520.350    13713.313       11.080        5.143      344.614      122.818        0.127      341.072       15.527      857.333
05/16/2013  14:18:00     -359.931      -74.778      -19.355      193.208      155.485       92.221    37329.441    24175.584     8504.706       10.275        3.500      367.617       96.641        0.069      341.175       15.702      857.349
05/16/2013  14:19:00     -446.932     -159.995        0.378      291.411      204.086      102.765    84920.601    41650.903    10560.673       18.122        6.857      474.707      132.552        0.078      341.055       15.500      857.331
05/16/2013  14:20:00     -346.192     -180.063        3.510      194.077      167.940       79.739    37665.879    28203.682     6358.302       11.224        3.611      390.220       85.922        0.048      341.066       15.517      857.316
05/16/2013  14:21:00     -617.357     -356.838      -18.042      315.632      239.851      118.270    99623.631    57528.289    13987.897       33.994        8.557      713.066      104.474        0.021      340.930       15.288      857.259
05/16/2013  14:22:00     -365.286     -102.541       -1.687      229.625      174.306       95.936    52727.867    30382.664     9203.698       11.812        4.616      379.405      104.776        0.076      341.139       15.641      857.245
05/16/2013  14:23:00     -295.397     -138.201       -4.925      233.447      183.085       99.455    54497.697    33520.151     9891.223       10.213        4.895      326.127      109.990        0.114      341.161       15.679      857.276
05/16/2013  14:24:00     -342.240     -209.693      -21.592      220.408      191.267      102.826    48579.689    36583.055    10573.194       12.863        4.787      401.371      103.026        0.066      341.153       15.663      857.246
05/16/2013  14:25:00     -508.093      -96.669      -16.045      308.705      155.048      112.541    95298.631    24039.911    12665.414       19.986        6.600      517.207      137.978        0.071      341.168       15.691      857.248
05/16/2013  14:26:00     -281.506     -118.208        0.675      166.009      151.126       71.309    27559.143    22839.005     5084.923        7.434        2.774      305.317       80.580        0.070      341.333       15.971      857.269
05/16/2013  14:27:00     -284.372     -202.516       -2.854      178.711      142.021       79.740    31937.719    20170.086     6358.545        9.017        2.923      349.113       94.180        0.073      341.285       15.889      857.282
05/16/2013  14:28:00     -391.281     -263.985      -19.658      261.127      200.157      114.813    68187.184    40062.656    13182.126       17.228        6.072      472.005      129.202        0.075      341.286       15.889      857.252
05/16/2013  14:29:00     -391.658     -288.726        3.263      226.656      243.384      129.106    51372.835    59235.546    16668.376       18.200        6.364      486.579      121.751        0.063      341.185       15.718      857.265
05/16/2013  14:30:00     -473.095     -247.817      -15.860      227.588      173.211       96.351    51796.272    30001.897     9283.461       18.827        4.554      534.072      120.507        0.051      341.159       15.674      857.248
05/16/2013  14:31:00     -435.986     -346.571       -4.201      229.416      199.138       99.191    52631.618    39656.011     9838.913       20.615        5.106      556.952      115.870        0.043      341.295       15.905      857.258
05/16/2013  14:32:00     -525.145     -328.858      -21.645      287.763      235.754      126.962    82807.684    55579.943    16119.395       26.942        7.725      619.616      154.501        0.062      341.176       15.703      857.281
05/16/2013  14:33:00     -429.774     -287.588       -5.477      314.571      195.056      105.035    98954.705    38046.740    11032.334       20.771        7.402      517.120      130.377        0.064      341.179       15.710      857.294
05/16/2013  14:34:00     -395.289     -190.743       -0.840      190.264      210.240       94.018    36200.274    44200.787     8839.315       14.092        4.462      438.903      105.158        0.057      341.260       15.847      857.303
05/16/2013  14:35:00     -349.733     -194.977      -14.044      145.404      129.916       77.386    21142.246    16878.256     5988.647       10.226        2.200      400.411       71.109        0.032      341.334       15.972      857.300
05/16/2013  14:36:00     -199.648     -184.236        4.274      146.563      124.319       86.832    21480.756    15455.158     7539.763        5.914        2.224      271.665       85.905        0.100      341.468       16.197      857.277
05/16/2013  14:37:00     -117.666      -86.305       25.117      202.170      142.316       75.684    40872.761    20253.891     5728.061        4.438        3.343      145.924       84.064        0.332      341.657       16.520      857.282
05/16/2013  14:38:00     -197.017      -80.789       12.514      136.624      111.254       80.347    18666.205    12377.474     6455.673        4.149        1.875      212.938       79.029        0.138      341.643       16.496      857.282
05/16/2013  14:39:00     -294.560     -194.359       -3.469      244.056      202.989      100.427    59563.200    41204.361    10085.609       11.768        5.543      352.903      118.940        0.114      341.404       16.090      857.257
05/16/2013  14:40:00     -323.960     -191.611        3.032      229.798      169.436       99.962    52806.979    28708.532     9992.318       11.658        4.575      376.384      107.651        0.082      341.365       16.024      857.251
05/16/2013  14:41:00     -318.728     -282.334       -8.757      186.963      175.818       99.276    34955.182    30911.828     9855.789       12.854        3.786      425.793      111.286        0.068      341.303       15.920      857.235
05/16/2013  14:42:00     -378.414     -217.231       -7.008      209.957      178.907       89.304    44082.144    32007.781     7975.227       13.724        4.203      436.333       81.958        0.035      341.524       16.293      857.215
05/16/2013  14:43:00     -544.887     -111.155      -10.129      233.445      189.845       89.271    54496.665    36041.028     7969.306       20.392        4.925      556.109       86.226        0.024      341.406       16.094      857.280
05/16/2013  14:44:00     -469.515      -66.818      -12.346      237.639      153.186      104.474    56472.063    23465.999    10914.739       15.794        4.543      474.246      117.934        0.062      341.544       16.327      857.280
05/16/2013  14:45:00     -465.550      -56.564        8.409      241.560      172.334       96.726    58351.092    29699.001     9355.895       15.869        4.870      468.974      106.633        0.052      341.415       16.108      857.282
05/16/2013  14:46:00     -256.044       22.993        7.717      152.822      125.221       89.865    23354.604    15680.401     8075.635        5.662        2.356      257.074       80.518        0.098      341.690       16.574      857.287
05/16/2013  14:47:00     -294.755       38.962      -22.011      135.954      100.697       72.504    18483.520    10139.849     5256.790        6.138        1.694      297.319       59.499        0.040      341.654       16.514      857.276
05/16/2013  14:48:00     -487.662      -84.161      -37.887      263.559      182.120       99.479    69463.303    33167.594     9896.030       17.941        5.626      494.870      101.035        0.042      341.440       16.151      857.286
05/16/2013  14:49:00     -331.710     -195.288       -9.896      175.867      190.279       90.022    30929.099    36206.194     8103.879       11.174        3.762      384.927       86.646        0.051      341.587       16.399      857.323
05/16/2013  14:50:00     -348.539     -190.618       15.745      295.739      203.822      111.964    87461.741    41543.553    12535.994       14.978        7.077      397.259      131.803        0.110      341.524       16.293      857.312
05/16/2013  14:51:00     -348.248     -228.370        7.954      238.860      163.878       99.413    57054.179    26855.987     9882.906       13.363        4.690      416.449      116.987        0.079      341.506       16.261      857.343
05/16/2013  14:52:00     -282.174     -169.720       -0.648      194.363      144.561       86.585    37777.141    20897.876     7496.891        8.729        3.309      329.282       89.143        0.073      341.654       16.515      857.346
05/16/2013  14:53:00     -390.480      -78.776      -12.761      229.362      152.196       92.209    52607.143    23163.520     8502.505       12.154        4.214      398.347      109.899        0.076      341.565       16.361      857.309
05/16/2013  14:54:00     -432.897      -13.422       -2.317      239.722      191.902       99.458    57466.686    36826.394     9891.838       14.587        5.209      433.105      118.440        0.075      341.625       16.465      857.320
05/16/2013  14:55:00     -431.726     -166.580        6.747      244.533      224.782      110.849    59796.482    50526.729    12287.576       16.838        6.131      462.749      117.209        0.064      341.511       16.270      857.426
05/16/2013  14:56:00     -466.673     -164.247      -15.632      234.723      186.223       91.859    55094.862    34679.081     8438.087       17.159        4.911      494.733       96.508        0.038      341.209       15.759      857.428
05/16/2013  14:57:00     -379.396     -108.291       -7.935      217.981      222.697       96.055    47515.659    49594.027     9226.594       13.102        5.317      394.548       94.942        0.058      341.185       15.719      857.418
05/16/2013  14:58:00     -351.252      -97.580       -3.189      267.540      213.458      104.563    71577.549    45564.354    10933.336       13.047        6.404      364.554      119.166        0.107      341.247       15.823      857.384
05/16/2013  14:59:00     -439.811     -224.258      -17.675      257.727      177.052       97.359    66423.191    31347.358     9478.722       17.563        5.362      493.685      111.545        0.051      341.118       15.605      857.346
05/16/2013  15:00:00     -192.567      -62.348        8.022      165.318      130.107       73.715    27330.189    16927.842     5433.908        4.535        2.485      202.409       86.957        0.185      341.332       15.968      857.369
05/16/2013  15:01:00     -147.898     -128.779       16.432      136.676      131.700       77.404    18680.316    17344.866     5991.393        4.037        2.101      196.107       75.656        0.149      341.450       16.168      857.374
05/16/2013  15:02:00     -311.027     -204.383      -17.970      171.922      182.082       91.985    29557.235    33153.946     8461.150       10.499        3.559      372.170       76.667        0.042      341.307       15.925      857.411
05/16/2013  15:03:00     -433.012     -328.990      -10.735      213.909      164.179      101.578    45757.161    26954.607    10318.065       18.943        4.151      543.814      110.586        0.041      341.133       15.631      857.419
05/16/2013  15:04:00     -253.624     -259.766        0.487      204.273      142.401       69.931    41727.416    20277.976     4890.409        9.934        3.345      363.048       82.013        0.051      341.095       15.567      857.424
05/16/2013  15:05:00     -291.109     -129.199        9.958      205.220      118.648       77.840    42115.274    14077.336     6058.996        8.188        3.113      318.491       85.476        0.072      341.246       15.824      857.409
05/16/2013  15:06:00     -140.163     -141.575       -3.699      123.399      113.595       57.733    15227.259    12903.746     3333.110        3.558        1.573      199.222       55.684        0.078      341.334       15.973      857.367
05/16/2013  15:07:00     -206.615     -145.577        3.151      180.451      120.963       59.824    32562.743    14632.099     3578.894        5.732        2.539      252.750       75.566        0.089      341.357       16.010      857.355
05/16/2013  15:08:00     -394.369     -224.699       -6.471      217.125      154.487       83.825    47143.169    23866.222     7026.638       14.203        3.902      453.891       91.325        0.040      341.236       15.805      857.362
05/16/2013  15:09:00     -395.913     -231.642      -11.526      243.893      185.396      111.008    59483.862    34371.719    12322.726       15.834        5.309      458.699      132.739        0.084      341.245       15.820      857.337
05/16/2013  15:10:00     -316.612     -231.336       -2.461      242.745      149.898       92.402    58925.117    22469.505     8538.107       12.183        4.497      392.122      112.056        0.082      341.397       16.076      857.357
05/16/2013  15:11:00     -474.333     -341.326       -6.297      325.530      266.897      120.861   105969.526    71234.235    14607.361       26.664        9.591      584.376      153.014        0.069      341.261       15.847      857.365
05/16/2013  15:12:00     -536.455     -260.567      -40.042      215.752      184.071       90.320    46548.981    33882.078     8157.632       22.292        4.429      596.389       92.820        0.024      341.156       15.669      857.345
05/16/2013  15:13:00     -407.033      -30.057      -10.340      265.384      190.316       95.829    70428.761    36220.006     9183.195       14.124        5.792      408.141      102.139        0.063      341.151       15.663      857.304
05/16/2013  15:14:00     -253.304     -135.648       -7.518      220.603      214.269       93.512    48665.496    45911.182     8744.503        9.295        5.166      287.339      110.280        0.147      341.260       15.847      857.286
05/16/2013  15:15:00     -411.192     -200.598       -7.475      314.551      219.672      114.934    98942.227    48255.799    13209.795       18.486        8.020      457.513      145.174        0.101      341.304       15.919      857.307
05/16/2013  15:16:00     -539.733     -285.343      -21.325      245.237      165.374      101.641    60141.013    27348.417    10330.849       23.549        4.891      610.518      115.289        0.036      341.180       15.711      857.332
05/16/2013  15:17:00     -455.963      -75.462      -12.876      272.189      206.458       91.420    74087.085    42624.867     8357.669       16.940        6.253      462.165      103.863        0.051      341.201       15.747      857.331
05/16/2013  15:18:00     -497.595     -254.629      -24.333      262.886      202.814      102.311    69108.921    41133.583    10467.539       21.685        6.036      558.960      106.667        0.036      341.149       15.657      857.329
05/16/2013  15:19:00     -374.817     -212.901        5.951      230.216      182.003       96.688    52999.600    33125.058     9348.623       14.065        4.774      431.063      100.203        0.054      341.172       15.697      857.311
05/16/2013  15:20:00     -280.947     -216.612       20.262      213.016      177.447      108.560    45375.648    31487.413    11785.228       10.744        4.432      354.756      128.971        0.132      341.287       15.892      857.330
05/16/2013  15:21:00     -255.635      -89.335       18.028      200.468      128.268       79.740    40187.469    16452.746     6358.399        6.832        3.150      270.795      102.798        0.144      341.303       15.919      857.342
05/16/2013  15:22:00     -348.122     -294.615        3.521      228.692      192.006      103.652    52299.856    36866.115    10743.664       15.394        4.995      456.056      114.326        0.063      341.153       15.665      857.320
05/16/2013  15:23:00     -453.461     -245.349      -15.342      243.730      216.942      104.483    59404.352    47064.006    10916.759       19.170        5.869      515.580      116.066        0.051      341.094       15.565      857.304
05/16/2013  15:24:00     -482.447      -72.650       -2.127      245.748      204.867       93.271    60392.282    41970.598     8699.411       17.453        5.553      487.886       90.533        0.034      341.153       15.665      857.278
05/16/2013  15:25:00     -218.297     -163.099        2.195      176.118      143.528       81.277    31017.395    20600.327     6605.976        6.623        2.911      272.497       82.094        0.091      341.258       15.844      857.292
05/16/2013  15:26:00     -226.296     -119.636       -6.338      179.741      119.882       71.019    32306.667    14371.736     5043.649        5.863        2.586      255.974       81.639        0.102      341.400       16.085      857.297
05/16/2013  15:27:00     -464.265     -226.472      -13.619      260.181      171.080      110.732    67694.130    29268.403    12261.641       18.810        5.461      516.557      120.326        0.054      341.175       15.701      857.297
05/16/2013  15:28:00     -341.555     -251.238       -6.993      217.018      201.403      110.783    47096.953    40563.028    12272.895       13.986        4.997      424.005      110.973        0.069      341.178       15.706      857.226
05/16/2013  15:29:00     -345.196     -181.152      -17.296      142.837      129.254       58.281    20402.303    16706.576     3396.665        9.638        2.025      389.841       47.155        0.015      341.323       15.954      857.220
05/16/2013  15:30:00     -542.246     -199.067      -29.867      254.951      164.203      108.240    64999.913    26962.527    11715.900       21.910        5.184      577.632      118.227        0.042      341.239       15.811      857.207
05/16/2013  15:31:00     -144.066     -199.356       20.983      181.146      177.938       89.636    32813.954    31661.878     8034.529        6.671        3.626      245.963      111.215        0.204      341.505       16.263      857.185
05/16/2013  15:32:00     -420.589      -97.555      -22.180      271.225      154.823       77.358    73563.078    23970.081     5984.236       14.519        5.176      431.754       85.720        0.039      341.692       16.579      857.117
05/16/2013  15:33:00     -305.962     -106.674       25.583      190.233      151.823       91.134    36188.443    23050.109     8305.446        8.658        3.377      324.025      111.781        0.119      341.731       16.644      857.153
05/16/2013  15:34:00     -182.111     -222.366       -5.085      173.600      150.921       68.506    30136.925    22777.025     4693.106        7.011        2.880      287.421       78.422        0.074      341.622       16.459      857.142
05/16/2013  15:35:00     -269.978     -159.678        4.619      177.139      130.049       81.725    31378.196    16912.795     6678.901        7.668        2.748      313.664       82.588        0.069      341.822       16.796      857.184
05/16/2013  15:36:00     -223.615      -75.675       20.173      297.507      128.951       84.439    88510.491    16628.384     7129.951        8.418        5.613      236.072      123.449        0.273      341.971       17.052      857.196
05/16/2013  15:37:00     -414.742     -333.926        0.461      309.727      211.016      126.874    95931.001    44527.753    16097.042       22.001        7.828      532.463      154.182        0.084      341.444       16.156      857.220
05/16/2013  15:38:00     -287.843     -248.293       16.069      258.996      187.680      141.968    67078.993    35223.667    20154.838       13.359        6.123      380.135      161.034        0.179      341.292       15.902      857.190
05/16/2013  15:39:00     -270.915     -200.654       19.795      261.936      188.059       92.427    68610.442    35366.180     8542.720       11.327        5.626      337.131      103.028        0.093      341.373       16.039      857.236
05/16/2013  15:40:00     -430.459     -296.634      -25.920      214.139      188.871      103.186    45855.535    35672.364    10647.355       18.305        4.609      522.768      106.719        0.042      341.331       15.966      857.227
05/16/2013  15:41:00     -473.123     -248.182      -36.846      209.112      185.973       93.067    43727.920    34586.039     8661.534       18.687        4.349      534.265      101.440        0.036      341.185       15.720      857.222
05/16/2013  15:42:00     -369.004     -186.082       -2.845      242.570      171.233       84.052    58840.278    29320.793     7064.662       13.300        4.761      413.268      107.580        0.068      341.351       16.002      857.188
05/16/2013  15:43:00     -493.439     -209.001      -21.096      259.252      188.812       90.342    67211.798    35649.984     8161.754       19.930        5.551      535.876      107.807        0.040      341.391       16.068      857.226
05/16/2013  15:44:00     -325.194      -96.289        8.242      163.031      147.642       89.722    26579.256    21798.287     8049.992        8.575        2.821      339.150       78.152        0.053      341.392       16.069      857.210
05/16/2013  15:45:00     -195.281        6.058       13.389      131.276       96.059       65.367    17233.482     9227.349     4272.864        3.454        1.537      195.375       63.314        0.105      341.764       16.700      857.180
05/16/2013  15:46:00     -273.740     -150.763       -6.429      146.257      152.044       68.669    21391.070    23117.328     4715.397        7.346        2.461      312.511       66.065        0.045      341.585       16.397      857.200
05/16/2013  15:47:00     -391.310     -269.992      -18.235      187.025      165.722       81.670    34978.360    27463.885     6670.044       14.772        3.456      475.415       86.034        0.033      341.427       16.128      857.168
05/16/2013  15:48:00     -445.355     -225.988      -10.564      236.407      194.803       99.511    55888.388    37948.075     9902.478       17.661        5.187      499.411      113.513        0.052      341.440       16.149      857.188
05/16/2013  15:49:00     -364.576     -188.754      -11.116      200.564      174.580       86.186    40225.905    30478.166     7428.091       12.339        3.907      410.541       99.999        0.059      341.482       16.221      857.185
05/16/2013  15:50:00     -351.719     -110.691      -14.413      149.491      144.085       86.199    22347.574    20760.357     7430.287        9.334        2.527      368.726       78.671        0.046      341.437       16.145      857.162
05/16/2013  15:51:00     -285.316      -92.770        9.200      184.532      162.912       72.011    34052.186    26540.195     5185.613        7.793        3.289      300.019       88.845        0.088      341.548       16.334      857.166
05/16/2013  15:52:00     -292.837     -177.805       11.947      290.767      197.521       88.796    84545.455    39014.591     7884.745       12.446        6.572      342.591      103.277        0.091      341.432       16.137      857.137
05/16/2013  15:53:00     -280.601     -229.890       -0.239      205.809      177.396       82.297    42357.388    31469.360     6772.724       10.608        4.030      362.748       95.936        0.070      341.534       16.310      857.115
05/16/2013  15:54:00     -293.802     -250.922        3.384      191.519      163.471      100.418    36679.499    26722.693    10083.727       11.138        3.674      386.370      103.302        0.071      341.292       15.899      857.209
05/16/2013  15:55:00     -535.369     -262.153       -7.532      364.664      196.674       89.443   132979.723    38680.678     8000.132       26.750        8.983      596.108      135.373        0.052      341.211       15.762      857.135
05/16/2013  15:56:00     -393.167     -183.234        1.110      240.932      207.376      103.824    58047.992    43004.605    10779.421       14.998        5.592      433.768      119.105        0.075      341.291       15.896      857.172
05/16/2013  15:57:00     -485.550     -265.572      -19.636      250.119      176.072      100.364    62559.276    31001.401    10072.880       20.514        5.182      553.432      111.746        0.041      341.093       15.563      857.208
05/16/2013  15:58:00     -362.162     -269.481      -16.313      186.299      151.437       79.724    34707.458    22933.093     6355.916       13.401        3.200      451.422       78.743        0.030      341.074       15.530      857.145
05/16/2013  15:59:00     -379.936     -284.654        1.427      228.016      200.188      104.261    51991.348    40075.150    10870.315       16.414        5.147      474.741      112.510        0.056      341.095       15.566      857.121
05/16/2013  16:00:00     -387.999     -256.559       -6.791      215.700      170.494       92.843    46526.485    29068.118     8619.883       15.030        4.211      465.151       95.612        0.042      341.224       15.784      857.117
05/16/2013  16:01:00     -372.603      -88.969        6.210      244.733      160.905      106.720    59894.063    25890.524    11389.168       12.196        4.859      383.077      112.334        0.086      341.368       16.029      857.129
05/16/2013  16:02:00     -473.093     -291.456       -9.064      252.847      185.197      112.244    63931.401    34297.807    12598.740       20.982        5.541      555.665      117.604        0.045      341.325       15.955      857.155
05/16/2013  16:03:00     -631.391     -276.104      -44.170      342.319      319.660      118.223   117182.313   102182.271    13976.621       35.505       11.667      689.121      147.550        0.046      341.090       15.558      857.172
05/16/2013  16:04:00     -498.450     -262.520      -24.605      271.271      222.491       99.125    73588.058    49502.379     9825.855       22.542        6.646      563.355      113.287        0.040      341.099       15.574      857.163
05/16/2013  16:05:00     -307.019     -202.152       -7.129      262.200      133.634       88.740    68748.918    17858.133     7874.722       11.481        4.724      367.595       95.775        0.068      341.181       15.711      857.146
05/16/2013  16:06:00     -387.677      -92.237      -10.136      247.854      160.616      104.064    61431.400    25797.557    10829.278       12.846        4.903      398.499      119.790        0.090      341.183       15.716      857.155
05/16/2013  16:07:00     -495.698     -147.364      -22.620      244.198      166.052      106.990    59632.885    27573.335    11446.933       18.328        4.933      517.139      121.714        0.055      341.061       15.510      857.114
05/16/2013  16:08:00     -352.799     -335.405        3.596      231.955      173.729      111.189    53803.251    30181.612    12362.981       16.665        4.817      486.789      133.593        0.075      341.134       15.633      857.132
05/16/2013  16:09:00     -421.985     -235.242       -2.806      282.044      189.112      102.923    79548.674    35763.496    10593.191       17.964        6.295      483.125      131.198        0.074      341.209       15.759      857.123
05/16/2013  16:10:00     -440.664     -159.892      -14.964      273.896      163.921       90.729    75019.069    26870.125     8231.743       16.503        5.506      468.775       92.793        0.039      341.146       15.653      857.106
05/16/2013  16:11:00     -392.742     -221.979      -11.437      211.392      159.301       98.872    44686.597    25376.788     9775.659       14.173        3.992      451.133       87.187        0.037      341.174       15.700      857.099
05/16/2013  16:12:00     -524.349     -317.631       -0.721      248.851      236.601      122.822    61926.699    55979.909    15085.162       25.439        6.650      613.050      139.361        0.052      341.171       15.696      857.092
05/16/2013  16:13:00     -501.983     -362.063        0.222      316.781      214.391      121.192   100350.469    45963.308    14687.549       27.201        8.050      618.932      140.151        0.051      341.048       15.488      857.101
05/16/2013  16:14:00     -420.851     -292.315        4.645      275.437      186.275      114.476    75865.637    34698.361    13104.728       19.311        6.183      512.410      141.758        0.077      341.113       15.598      857.154
05/16/2013  16:15:00     -387.562     -260.265        5.297      219.255      185.756       96.475    48072.940    34505.183     9307.469       15.491        4.594      466.843       98.400        0.044      341.106       15.583      857.215
05/16/2013  16:16:00     -399.781     -221.879       -5.861      171.819      160.914       85.070    29521.598    25893.355     7236.971       13.586        3.133      457.226       89.124        0.038      341.088       15.555      857.185
05/16/2013  16:17:00     -513.247     -175.853      -20.910      200.769      168.023       97.399    40308.031    28231.818     9486.514       18.639        3.901      542.537       87.327        0.026      341.088       15.554      857.164
05/16/2013  16:18:00     -411.147     -252.393       -5.938      257.569      228.765       95.618    66341.662    52333.393     9142.768       18.028        6.391      482.435      108.636        0.051      341.184       15.718      857.168
05/16/2013  16:19:00     -489.538     -370.830      -17.528      231.164      186.449       87.032    53436.929    34763.164     7574.505       23.661        4.789      614.135       85.332        0.019      341.016       15.434      857.201
05/16/2013  16:20:00     -218.115     -209.877       18.334      185.112      167.374       82.145    34266.309    28014.065     6747.802        8.048        3.451      302.692       82.076        0.074      341.140       15.644      857.183
05/16/2013  16:21:00     -382.031     -106.575       -3.747      177.028      170.309       93.181    31339.028    29004.986     8682.703       11.316        3.451      396.619       99.164        0.063      341.208       15.756      857.176
05/16/2013  16:22:00     -285.099     -179.828       -1.616      174.160      127.761       82.548    30331.632    16322.919     6814.153        8.354        2.673      337.075       77.789        0.053      341.294       15.905      857.216
05/16/2013  16:23:00     -341.761     -227.090      -28.948      185.394      142.729       77.177    34370.822    20371.552     5956.343       11.494        3.035      410.330       82.710        0.041      341.167       15.688      857.242
05/16/2013  16:24:00     -351.424     -280.342        6.227      203.003      162.835       87.515    41210.242    26515.226     7658.873       13.874        3.769      449.545       78.493        0.030      341.098       15.572      857.252
05/16/2013  16:25:00     -365.438     -281.308      -18.121      211.054      164.005       87.134    44543.812    26897.570     7592.317       14.601        3.952      461.172       88.402        0.037      341.048       15.487      857.238
05/16/2013  16:26:00     -500.836     -211.992      -33.434      208.764      177.955       77.308    43582.341    31667.926     5976.573       18.905        4.061      543.854       86.961        0.026      341.031       15.459      857.241
05/16/2013  16:27:00     -290.737     -190.021      -30.065      196.057       97.632       77.486    38438.363     9531.959     6004.058        8.775        2.699      347.327      101.718        0.086      341.052       15.493      857.255
05/16/2013  16:28:00     -292.735      -75.813       13.831      153.393      145.498       75.462    23529.448    21169.690     5694.497        7.100        2.520      302.393       72.318        0.057      341.058       15.503      857.225
05/16/2013  16:29:00     -288.340       19.672      -10.953      169.399      128.731       64.469    28696.073    16571.666     4156.194        6.653        2.471      289.011       67.110        0.054      341.158       15.674      857.256
05/16/2013  16:30:00     -261.481        8.670       -3.990      213.082      160.542       91.052    45404.055    25773.595     8290.402        7.395        3.973      261.625      102.728        0.154      341.226       15.789      857.243
05/16/2013  16:31:00     -192.257     -132.923        1.931      140.943      110.480       73.008    19865.058    12205.830     5330.191        4.601        1.870      233.733       79.179        0.115      341.245       15.821      857.255
05/16/2013  16:32:00     -216.366     -209.899        6.537      155.342      140.045       80.373    24131.083    19612.628     6459.833        7.055        2.510      301.450       90.127        0.089      341.226       15.787      857.258
05/16/2013  16:33:00     -443.984     -211.884      -13.574      184.332      162.269       92.942    33978.106    26331.290     8638.234       15.556        3.447      491.952       87.536        0.032      341.054       15.497      857.244
05/16/2013  16:34:00     -280.914     -179.174        9.669      224.654      183.777      104.208    50469.589    33774.141    10859.207       10.309        4.755      333.191      113.092        0.115      341.173       15.699      857.234
05/16/2013  16:35:00     -387.599     -270.867       13.118      271.877      210.560      137.866    73917.106    44335.659    19007.158       18.049        6.863      472.866      145.973        0.095      341.073       15.530      857.215
05/16/2013  16:36:00     -384.888     -270.504        5.313      281.752      184.946       99.413    79384.445    34204.917     9882.849       17.239        6.174      470.437      113.767        0.058      340.981       15.373      857.190
05/16/2013  16:37:00     -307.871     -226.749       13.921      267.755      203.770      116.505    71692.824    41522.086    13573.484       13.657        6.339      382.361      152.799        0.160      341.154       15.666      857.188
05/16/2013  16:38:00     -228.776     -177.810       19.518      197.115      191.248       90.291    38854.208    36575.630     8152.388        8.395        4.179      289.750      109.321        0.142      341.108       15.589      857.237
05/16/2013  16:39:00     -451.711     -136.022      -34.960      238.665      200.524      102.616    56960.942    40209.793    10530.053       16.572        5.385      471.746      112.578        0.057      341.065       15.517      857.220
05/16/2013  16:40:00     -441.424     -251.348       17.948      274.127      179.926      107.962    75145.780    32373.333    11655.730       18.874        5.959      507.968      134.715        0.070      340.999       15.403      857.253
05/16/2013  16:41:00     -443.394     -317.260      -21.928      259.835      185.157      111.069    67514.323    34283.104    12336.425       20.591        5.707      545.208      112.746        0.043      341.021       15.441      857.217
05/16/2013  16:42:00     -368.190     -313.419      -25.631      223.549      169.275       89.883    49974.077    28654.135     8078.874       16.056        4.335      483.523      117.109        0.059      341.133       15.631      857.227
05/16/2013  16:43:00     -309.477     -244.057      -10.553      205.703      176.050       77.928    42313.667    30993.510     6072.821       11.740        3.969      394.132       84.438        0.046      341.221       15.780      857.218
05/16/2013  16:44:00     -381.588     -155.139      -15.668      267.643      160.591       89.460    71632.516    25789.521     8003.110       13.766        5.271      411.919      111.514        0.073      341.374       16.041      857.228
05/16/2013  16:45:00     -397.129     -149.451      -12.802      194.708      176.050       91.929    37911.170    30993.701     8451.032       12.877        3.868      424.319       81.325        0.037      341.291       15.898      857.216
05/16/2013  16:46:00     -501.732     -241.271      -26.268      275.065      170.101      101.110    75660.843    28934.184    10223.171       21.271        5.741      556.729       97.901        0.031      341.146       15.654      857.203
05/16/2013  16:47:00     -368.898     -258.932      -19.109      223.990      160.047       97.710    50171.314    25615.148     9547.217       14.440        4.267      450.701       94.551        0.044      341.254       15.835      857.175
05/16/2013  16:48:00     -373.829      -23.615      -14.397      217.483      144.568       87.239    47298.765    20899.787     7610.598       10.815        3.790      374.574       99.712        0.071      341.478       16.214      857.193
05/16/2013  16:49:00     -452.961     -184.524      -21.037      269.888      229.163      114.425    72839.580    52515.516    13093.132       18.903        6.922      489.104      138.199        0.080      341.274       15.871      857.187
05/16/2013  16:50:00     -239.108     -193.837      -12.371      154.030      142.565       77.133    23725.228    20324.677     5949.537        7.244        2.500      307.807       81.831        0.071      341.175       15.700      857.185
05/16/2013  16:51:00     -235.115     -211.046      -10.583      203.127      160.569       82.293    41260.726    25782.259     6772.200        8.686        3.691      315.942       76.911        0.059      341.379       16.047      857.219
05/16/2013  16:52:00     -319.316     -206.588       -0.482      204.161      155.601       80.676    41681.806    24211.567     6508.553       10.851        3.620      380.318       99.451        0.068      341.502       16.257      857.214
05/16/2013  16:53:00     -276.685     -161.372       -1.560      193.738      173.205       76.403    37534.365    30000.067     5837.347        8.797        3.669      320.305       87.297        0.074      341.563       16.359      857.195
05/16/2013  16:54:00     -439.344     -289.169       -7.156      236.366      175.268      103.400    55868.826    30718.902    10691.561       18.697        4.864      525.967       96.741        0.034      341.319       15.947      857.172
05/16/2013  16:55:00     -423.562     -265.923      -11.051      282.534      215.614      101.371    79825.567    46489.426    10276.128       19.339        6.830      500.120      127.537        0.065      341.255       15.838      857.163
05/16/2013  16:56:00     -344.156     -218.321        0.994      230.086      189.816       95.465    52939.747    36030.256     9113.561       13.208        4.904      407.563      117.005        0.082      341.399       16.082      857.180
05/16/2013  16:57:00     -286.338     -175.457        7.891      147.905      124.884       74.360    21875.972    15596.108     5529.439        7.791        2.150      335.820       73.094        0.047      341.408       16.097      857.189
05/16/2013  16:58:00     -276.343      -29.944       18.093      206.322      150.174       81.314    42568.943    22552.313     6612.047        7.465        3.587      277.961       82.248        0.088      341.547       16.332      857.174
05/16/2013  16:59:00     -276.092     -202.702      -21.115      145.527       86.539       55.687    21178.212     7488.955     3101.049        7.476        1.588      342.513       62.399        0.033      341.527       16.299      857.205
05/16/2013  17:00:00     -144.002      -94.176       12.004      152.044      104.431       62.461    23117.414    10905.904     3901.335        3.383        1.896      172.063       79.675        0.214      341.787       16.741      857.208
05/16/2013  17:01:00     -325.344      -31.838      -15.254      133.373      121.143       75.879    17788.299    14675.733     5757.610        7.265        1.911      326.898       65.085        0.040      341.548       16.334      857.185
05/16/2013  17:02:00     -397.644     -111.497       -1.532      209.563      188.833       84.369    43916.674    35657.974     7118.132       12.861        4.335      412.980       96.534        0.055      341.484       16.225      857.200
05/16/2013  17:03:00     -365.207     -138.547       -5.147      219.807      188.443       76.625    48315.024    35510.653     5871.421       12.113        4.485      390.604       92.655        0.056      341.488       16.233      857.193
05/16/2013  17:04:00     -203.515     -209.131        4.511      126.898      111.023       66.420    16103.061    12326.078     4411.641        5.900        1.642      291.812       58.454        0.040      341.544       16.328      857.198
05/16/2013  17:05:00     -246.427     -226.509        4.011      175.358      185.363       87.121    30750.422    34359.372     7590.076        9.236        3.635      334.713       77.376        0.053      341.646       16.501      857.215
05/16/2013  17:06:00     -363.306     -211.524       11.696      288.744      164.156       93.100    83373.087    26947.056     8667.542       14.791        5.949      420.397      117.224        0.078      341.380       16.049      857.231
05/16/2013  17:07:00     -418.454     -306.535      -16.287      210.789      180.725       94.117    44432.026    32661.384     8858.097       17.763        4.298      518.717      102.442        0.039      341.290       15.896      857.230
05/16/2013  17:08:00     -428.463     -322.063      -28.626      247.494      188.195      116.866    61253.180    35417.464    13657.695       19.921        5.516      536.008      137.386        0.066      341.187       15.722      857.241
05/16/2013  17:09:00     -275.752     -165.654       -2.010      164.044      160.202       73.488    26910.471    25664.817     5400.423        8.072        2.899      321.684       82.861        0.066      341.398       16.081      857.211
05/16/2013  17:10:00     -261.698     -161.575        2.029      151.087      129.171       59.728    22827.165    16685.128     3567.469        6.883        2.154      307.559       63.241        0.042      341.547       16.332      857.251
05/16/2013  17:11:00     -447.552     -259.583       -3.954      219.808      154.531       94.496    48315.567    23879.809     8929.491       17.440        4.056      517.384       99.809        0.037      341.432       16.138      857.265
05/16/2013  17:12:00     -433.539     -200.566      -11.429      236.969      221.305       98.123    56154.202    48976.077     9628.160       17.152        5.738      477.685      101.943        0.046      341.451       16.170      857.238
05/16/2013  17:13:00     -167.313     -161.200       -0.988      115.587      106.735       58.909    13360.272    11392.351     3470.288        4.110        1.411      232.333       51.789        0.050      341.621       16.458      857.299
05/16/2013  17:14:00     -297.711     -179.932      -23.307      151.809      117.285       58.848    23045.849    13755.736     3463.047        8.090        2.013      347.862       51.517        0.022      341.584       16.396      857.308
05/16/2013  17:15:00     -246.488     -175.761        1.619      169.650      140.231       76.974    28781.222    19664.682     5925.027        7.300        2.719      302.735       79.348        0.069      341.735       16.651      857.317
05/16/2013  17:16:00     -374.728     -238.476      -14.567      213.890      169.313       86.437    45748.808    28666.776     7471.391       13.968        4.094      444.175       70.303        0.025      341.399       16.082      857.352
05/16/2013  17:17:00     -318.223     -102.335      -12.328      118.884       96.531       67.281    14133.463     9318.323     4526.764        6.993        1.399      334.273       64.395        0.037      341.361       16.016      857.336
05/16/2013  17:18:00     -215.627     -110.574        4.227      212.865      138.277       93.708    45311.380    19120.420     8781.113        6.596        3.661      242.326       96.274        0.158      341.683       16.563      857.289
05/16/2013  17:19:00     -456.126     -258.647        2.237      255.882      161.400      113.349    65475.617    26050.107    12848.101       18.965        5.219      524.356      130.085        0.062      341.298       15.911      857.345
05/16/2013  17:20:00     -355.526      -99.272       -1.522      183.320      184.291       83.518    33606.190    33963.348     6975.319       10.539        3.727      369.125       89.070        0.058      341.297       15.909      857.362
05/16/2013  17:21:00     -162.747     -122.217       15.198      164.884      104.216       71.456    27186.782    10861.054     5105.955        4.240        2.158      203.527       89.837        0.195      341.652       16.511      857.402
05/16/2013  17:22:00     -257.093      -86.425        3.898      151.094      110.813       75.316    22829.491    12279.525     5672.482        5.717        2.039      271.231       78.255        0.083      341.474       16.210      857.357
05/16/2013  17:23:00     -295.286     -388.535      -18.264      249.946      233.134       71.637    62472.837    54351.557     5131.819       18.020        6.098      488.010       68.979        0.020      341.435       16.142      857.316
05/16/2013  17:24:00     -315.674     -203.145        6.707      210.352      147.474       81.945    44247.912    21748.446     6714.945       10.683        3.636      375.391       96.959        0.067      341.713       16.613      857.309
05/16/2013  17:25:00     -317.321     -196.907        6.223      245.455      189.292       88.907    60248.185    35831.418     7904.511       12.173        5.199      373.450      110.342        0.087      341.575       16.380      857.349
05/16/2013  17:26:00     -279.812     -311.928        5.806      208.770      167.703       92.346    43584.766    28124.452     8527.867       12.792        4.012      419.039      100.257        0.057      341.397       16.079      857.366
05/16/2013  17:27:00     -366.055     -262.724      -11.652      214.714      161.914       79.343    46102.177    26216.104     6295.247       14.087        3.931      450.578       96.863        0.046      341.422       16.121      857.397
05/16/2013  17:28:00     -349.241     -130.701       -0.457      223.153      173.383       83.154    49797.318    30061.785     6914.662       11.290        4.339      372.897       97.774        0.069      341.494       16.242      857.370
05/16/2013  17:29:00     -462.427     -312.343       -4.651      261.967      236.141      121.386    68626.803    55762.377    14734.652       22.525        6.956      558.030      141.597        0.064      341.216       15.773      857.389
05/16/2013  17:30:00     -263.809     -334.132        2.743      202.394      194.629       90.687    40963.524    37880.515     8224.178       13.414        4.353      425.722       72.775        0.029      341.244       15.820      857.391
05/16/2013  17:31:00     -288.640     -256.362      -14.460      206.975      162.625       91.238    42838.535    26446.757     8324.402       11.341        3.880      386.050       80.918        0.044      341.403       16.088      857.419
05/16/2013  17:32:00     -447.735     -345.119      -19.974      217.161      171.221      105.356    47158.728    29316.547    11099.820       20.376        4.379      565.308      113.311        0.040      341.172       15.696      857.449
05/16/2013  17:33:00     -584.029     -380.187       -4.591      304.338      212.299      134.167    92621.881    45071.056    18000.757       32.065        7.785      696.873      156.768        0.051      341.063       15.513      857.450
05/16/2013  17:34:00     -382.465     -334.284       -6.924      212.275      208.820      116.109    45060.788    43605.966    13481.211       18.009        5.107      507.962      124.630        0.060      341.178       15.707      857.473
05/16/2013  17:35:00     -413.095     -319.887       -1.221      253.744      196.134      109.029    64385.764    38468.409    11887.355       19.384        5.737      522.470      116.827        0.050      341.234       15.801      857.476
05/16/2013  17:36:00     -536.836     -349.573        3.214      214.579      188.660      105.855    46043.963    35592.735    11205.305       25.161        4.642      640.620       98.728        0.024      341.164       15.683      857.486
05/16/2013  17:37:00     -425.503     -222.258        8.660      230.446      187.105      100.626    53105.315    35008.267    10125.608       16.437        4.912      480.053      105.948        0.049      341.239       15.812      857.488
05/16/2013  17:38:00     -374.049     -223.463        1.469      256.889      228.223      136.084    65992.072    52085.570    18518.848       16.320        6.830      435.716      145.651        0.112      341.228       15.793      857.482
05/16/2013  17:39:00     -424.856     -154.767      -15.515      202.821      160.530       95.113    41136.543    25769.851     9046.497       14.031        3.798      452.167       82.955        0.034      341.240       15.811      857.495
05/16/2013  17:40:00     -388.376     -298.417       -4.595      239.338      212.199      116.712    57282.773    45028.461    13621.699       17.790        5.797      489.784      130.180        0.071      341.140       15.643      857.536
05/16/2013  17:41:00     -551.981     -304.557      -21.251      206.181      214.204      104.357    42510.679    45883.420    10890.377       24.857        4.964      630.426      114.501        0.033      341.002       15.409      857.506
05/16/2013  17:42:00     -378.349     -193.284      -15.329      173.332      180.672       88.561    30043.942    32642.243     7843.133       12.562        3.526      424.861       70.898        0.028      341.150       15.660      857.523
05/16/2013  17:43:00     -451.931     -280.740       -0.485      233.189      217.084       98.949    54377.248    47125.263     9790.824       19.716        5.565      532.030      111.051        0.044      341.143       15.647      857.555
05/16/2013  17:44:00     -479.923     -383.677       -6.269      242.532      219.906      117.408    58821.834    48358.646    13784.533       24.925        6.048      614.439      144.657        0.055      340.967       15.349      857.562
05/16/2013  17:45:00     -466.741     -283.148      -21.746      227.066      166.162       99.182    51559.012    27609.718     9837.161       19.373        4.450      545.911      107.157        0.039      340.917       15.265      857.576
05/16/2013  17:46:00     -386.722     -285.513      -13.424      223.547      156.182       90.250    49973.467    24392.817     8145.136       15.687        4.126      480.700       99.872        0.043      340.949       15.320      857.523
05/16/2013  17:47:00     -268.341     -241.249        9.934      175.064      148.334       86.132    30647.373    22002.834     7418.645        9.518        3.003      360.844       76.880        0.045      341.137       15.637      857.537
05/16/2013  17:48:00     -357.633     -299.675        0.398      209.485      150.095      103.514    43883.816    22528.489    10715.223       14.740        3.856      466.590      107.529        0.053      341.066       15.518      857.543
05/16/2013  17:49:00     -434.101     -244.367       -6.608      161.948      169.033       85.420    26227.116    28572.189     7296.515       15.514        3.105      498.155       82.106        0.027      340.974       15.364      857.533
05/16/2013  17:50:00     -513.797     -337.632       14.371      285.376      228.919      110.196    81439.720    52404.032    12143.132       26.206        7.299      614.804      135.731        0.049      340.989       15.388      857.523
05/16/2013  17:51:00     -462.086     -245.833      -14.744      234.164      171.804      100.161    54832.704    29516.517    10032.227       18.426        4.719      523.409      114.329        0.048      340.855       15.162      857.511
05/16/2013  17:52:00     -178.014      -11.501       22.787      139.432      106.585       74.979    19441.208    11360.348     5621.860        3.438        1.821      178.385       79.645        0.199      341.185       15.720      857.516
05/16/2013  17:53:00     -252.937     -262.441       -4.145      234.580      155.093       76.290    55027.854    24053.787     5820.153       10.887        4.245      364.489       87.661        0.058      341.062       15.511      857.501
05/16/2013  17:54:00     -125.512     -206.292       14.910      131.732      193.971       71.502    17353.298    37624.772     5112.512        5.930        3.005      241.474       83.932        0.121      341.187       15.723      857.491
05/16/2013  17:55:00     -221.471     -151.909        4.656      172.591      134.941       62.194    29787.512    18209.082     3868.135        6.200        2.593      268.563       54.405        0.041      341.312       15.935      857.464
05/16/2013  17:56:00     -212.676     -102.689       11.808      174.480      109.384       58.602    30443.174    11964.881     3434.168        5.087        2.292      236.169       78.120        0.109      341.253       15.836      857.469
05/16/2013  17:57:00     -251.501     -196.799       -2.291      199.900      149.848       75.114    39959.913    22454.345     5642.129        8.501        3.403      319.347       92.043        0.083      341.331       15.966      857.450
05/16/2013  17:58:00     -350.839     -158.504      -25.190      177.603      102.004       73.714    31542.664    10404.899     5433.821        9.811        2.369      384.982       83.737        0.047      340.971       15.359      857.450
05/16/2013  17:59:00     -283.654     -167.966      -20.223      114.688       90.635       49.464    13153.248     8214.625     2446.702        6.644        1.191      329.655       33.699        0.010      341.087       15.553      857.431
05/16/2013  18:00:00     -167.358     -113.382       -6.551       96.420      101.496       55.294     9296.735    10301.445     3057.450        3.178        1.133      202.149       52.154        0.067      341.200       15.745      857.408
05/16/2013  18:01:00     -147.061     -135.103       -1.377      111.719       84.700       53.347    12481.210     7174.146     2845.893        3.119        1.125      199.699       56.348        0.080      341.322       15.951      857.402
05/16/2013  18:02:00     -208.568     -182.160       -5.057      103.042      107.755       53.343    10617.587    11611.061     2845.483        5.089        1.254      276.917       45.542        0.027      341.471       16.204      857.385
05/16/2013  18:03:00     -260.023      -32.745       -8.932      136.197      120.136       56.512    18549.559    14432.648     3193.658        5.246        1.809      262.076       60.619        0.054      341.362       16.019      857.369
05/16/2013  18:04:00     -197.255      -16.249       -0.593      142.132      132.425       66.347    20201.384    17536.345     4401.978        4.065        2.107      197.923       65.583        0.110      341.316       15.940      857.363
05/16/2013  18:05:00     -216.633     -115.044        3.002      145.818       69.383       48.738    21262.999     4813.957     2375.369        4.431        1.423      245.286       58.720        0.057      341.386       16.059      857.378
05/16/2013  18:06:00     -206.153     -152.238      -15.891      228.792       83.213       56.098    52345.731     6924.406     3146.995        6.416        3.121      256.272       82.705        0.104      341.194       15.736      857.378
05/16/2013  18:07:00     -124.221      -89.278       10.959      125.217       81.577       51.443    15679.185     6654.884     2646.357        2.425        1.249      152.975       49.388        0.104      341.429       16.133      857.335
05/16/2013  18:08:00     -378.871     -205.104      -14.760      195.583      150.240       79.964    38252.542    22572.187     6394.189       12.651        3.361      430.826       90.179        0.044      341.129       15.624      857.350
05/16/2013  18:09:00     -266.011     -125.144      -10.761      150.587      120.416       85.267    22676.442    14500.129     7270.515        6.549        2.222      293.978       86.933        0.087      341.064       15.514      857.340
05/16/2013  18:10:00     -315.707     -188.335       31.777      240.195      183.070       98.589    57693.647    33514.806     9719.847       11.852        5.046      367.615      114.840        0.098      340.998       15.403      857.331
05/16/2013  18:11:00     -350.973     -217.708      -13.682      222.915      183.655      102.973    49691.282    33729.174    10603.379       13.238        4.701      413.012      106.048        0.066      340.782       15.037      857.331
05/16/2013  18:12:00     -433.104     -296.696      -10.992      244.263      170.375      110.441    59664.458    29027.630    12197.143       18.829        5.044      524.983      130.424        0.062      340.743       14.971      857.293
05/16/2013  18:13:00     -559.319     -217.269      -24.617      248.183      165.752       92.158    61595.038    27473.827     8493.113       22.909        4.878      600.037      104.231        0.030      340.764       15.005      857.283
05/16/2013  18:14:00     -358.846     -227.177      -13.156      190.893      149.671       89.604    36440.302    22401.379     8028.843       12.370        3.344      424.712       96.178        0.051      340.738       14.962      857.301
05/16/2013  18:15:00     -372.771     -259.720       -5.339      196.814      177.949      103.676    38735.658    31665.900    10748.745       14.378        4.058      454.327       92.623        0.042      340.682       14.867      857.282
05/16/2013  18:16:00     -418.098     -240.755       -3.773      190.427      152.124       81.743    36262.350    23141.574     6681.964       14.942        3.304      482.461       62.430        0.017      340.792       15.053      857.285
05/16/2013  18:17:00     -449.448     -133.407       -7.860      148.556      146.755       65.053    22068.918    21537.083     4231.927       13.384        2.392      468.829       68.149        0.021      340.838       15.131      857.297
05/16/2013  18:18:00     -272.279      -17.085      -22.316      164.344      105.795       62.045    27008.976    11192.660     3849.585        5.848        2.103      272.814       82.206        0.091      340.955       15.331      857.296
05/16/2013  18:19:00     -252.479     -287.114       -9.484      196.487      125.481       87.397    38606.989    15745.595     7638.170       10.412        3.100      382.335       84.564        0.049      340.892       15.223      857.291
05/16/2013  18:20:00     -515.991     -393.856      -27.320      194.586      156.382       85.508    37863.675    24455.175     7311.566       24.586        3.482      649.129       90.599        0.019      340.624       14.770      857.273
05/16/2013  18:21:00     -391.421     -325.731       -4.617      221.206      170.285       91.700    48932.087    28996.980     8408.965       17.282        4.317      509.226       96.885        0.036      340.759       14.999      857.255
05/16/2013  18:22:00     -340.665     -252.739       -7.583      198.390      188.916       94.639    39358.481    35689.413     8956.459       13.198        4.200      424.181      103.719        0.060      340.729       14.948      857.270
05/16/2013  18:23:00     -255.707     -181.116      -15.459      150.192      158.491       71.233    22557.617    25119.425     5074.187        7.558        2.638      313.352       65.547        0.044      340.848       15.149      857.274
05/16/2013  18:24:00     -204.068      -48.069       14.916      136.473      137.242       62.846    18625.012    18835.381     3949.671        4.279        2.071      209.653       69.738        0.111      341.023       15.447      857.300
05/16/2013  18:25:00     -334.480     -236.906       -4.458      202.096      181.322      101.056    40842.624    32877.492    10212.367       12.596        4.197      409.880      115.398        0.079      340.879       15.201      857.304
05/16/2013  18:26:00     -418.777     -235.385       11.328      246.076      212.193      102.848    60553.360    45025.704    10577.787       17.351        5.808      480.396       93.194        0.038      340.639       14.795      857.277
05/16/2013  18:27:00     -375.768     -315.659       -9.247      191.552      171.398       96.258    36692.189    29377.204     9265.583       15.812        3.767      490.756       94.399        0.037      340.614       14.753      857.274
05/16/2013  18:28:00     -224.475     -198.984       16.832      139.795      138.688       76.696    19542.518    19234.416     5882.248        6.746        2.233      299.973       78.997        0.069      340.772       15.021      857.301
05/16/2013  18:29:00     -336.024     -287.500       -9.975      193.304      188.720       93.431    37366.403    35615.136     8729.326       13.868        4.086      442.231       95.318        0.046      340.749       14.981      857.277
05/16/2013  18:30:00     -293.587     -186.139       16.491      192.307      153.200       85.376    36982.095    23470.348     7289.041        9.442        3.387      347.622       96.491        0.077      340.735       14.957      857.292
05/16/2013  18:31:00     -407.234     -282.075        4.802      229.225      141.637       83.939    52544.137    20061.166     7045.788       16.253        3.983      495.385       87.770        0.031      340.618       14.760      857.273
05/16/2013  18:32:00     -297.328     -191.588       -7.974      170.549      173.072       78.474    29086.809    29953.857     6158.156        9.518        3.260      353.708       81.949        0.054      340.613       14.751      857.269
05/16/2013  18:33:00     -272.432     -129.523       16.857      160.185      153.282       80.739    25659.241    23495.418     6518.827        7.347        2.784      301.654       93.535        0.096      340.767       15.012      857.275
05/16/2013  18:34:00     -206.668     -171.381       30.140      136.887      172.619       81.968    18737.972    29797.263     6718.681        6.411        2.763      268.483       83.600        0.097      340.923       15.277      857.308
05/16/2013  18:35:00     -409.531     -187.236       -6.858      194.977      139.922       95.406    38015.924    19578.171     9102.269       13.475        3.335      450.303      100.400        0.050      340.826       15.111      857.328
05/16/2013  18:36:00     -175.296     -153.816        0.850      114.572      105.336       69.373    13126.816    11095.696     4812.660        4.171        1.452      233.212       62.494        0.072      340.841       15.138      857.360
05/16/2013  18:37:00     -163.136     -101.232        6.195      131.083       87.662       66.550    17182.634     7684.653     4428.939        3.309        1.465      191.993       72.225        0.142      340.958       15.335      857.362
05/16/2013  18:38:00     -272.236      -41.448       -6.704      136.874      109.048       57.021    18734.579    11891.510     3251.360        5.487        1.694      275.373       65.425        0.056      340.895       15.229      857.377
05/16/2013  18:39:00     -290.813     -128.930       -3.161      195.808      177.878       97.731    38340.731    31640.569     9551.423        9.036        3.977      318.111      111.676        0.123      340.901       15.240      857.362
05/16/2013  18:40:00     -432.732     -129.860       -5.683      203.872      184.198      102.568    41563.752    33928.979    10520.267       14.507        4.301      451.797      104.990        0.054      340.560       14.661      857.373
05/16/2013  18:41:00     -308.736     -266.330       14.758      200.444      171.119       91.271    40177.985    29281.843     8330.453       12.212        3.890      407.738      106.975        0.069      340.608       14.742      857.418
05/16/2013  18:42:00     -368.452     -296.710      -10.278      157.964      140.848       92.993    24952.779    19838.299     8647.780       13.866        2.672      473.068       85.216        0.032      340.537       14.624      857.411
05/16/2013  18:43:00     -402.366      -99.683      -24.556      203.310      193.595       71.484    41334.956    37479.135     5109.924       12.817        4.196      414.530       71.153        0.029      340.498       14.556      857.429
05/16/2013  18:44:00     -412.593     -112.843        7.861      176.005      152.902      100.381    30977.715    23378.904    10076.368       12.372        3.222      427.746       94.245        0.049      340.503       14.565      857.418
05/16/2013  18:45:00     -245.224     -121.221        6.570      199.447      166.687       86.931    39778.971    27784.647     7556.964        7.498        3.756      273.549      104.429        0.146      340.610       14.747      857.412
05/16/2013  18:46:00     -404.855     -115.291       -8.341      276.411      187.644      105.647    76402.859    35210.105    11161.223       15.000        6.139      420.951      142.669        0.115      340.570       14.679      857.414
05/16/2013  18:47:00     -473.011     -136.507      -10.675      218.742      172.314       96.966    47848.023    29692.210     9402.395       16.470        4.347      492.315      108.578        0.049      340.483       14.532      857.423
05/16/2013  18:48:00     -363.556     -238.545       -9.144      249.764      153.413      101.791    62381.870    23535.476    10361.437       14.270        4.814      434.829      108.401        0.062      340.468       14.507      857.438
05/16/2013  18:49:00     -270.445     -197.475      -11.712      166.609      103.725       75.129    27758.421    10758.798     5644.336        7.821        2.208      334.869       74.417        0.049      340.572       14.680      857.438
05/16/2013  18:50:00     -352.859     -260.887        9.231      227.922      167.417       90.742    51948.227    28028.405     8234.034       14.042        4.411      438.830      109.620        0.062      340.520       14.592      857.452
05/16/2013  18:51:00     -343.550     -267.364        2.036      242.299      175.106       83.898    58709.023    30662.104     7038.902       14.295        4.821      435.328      108.134        0.062      340.377       14.353      857.452
05/16/2013  18:52:00     -323.201     -148.292      -11.590      176.863      113.357       75.027    31280.583    12849.919     5628.988        8.816        2.488      355.598       70.083        0.039      340.458       14.489      857.476
05/16/2013  18:53:00     -119.655      -97.258       21.372      139.609       91.560       59.706    19490.638     8383.155     3564.800        2.783        1.572      154.196       71.621        0.216      340.580       14.697      857.486
05/16/2013  18:54:00     -294.865      -53.906      -20.345      136.952      118.612       63.699    18755.942    14068.848     4057.504        6.357        1.844      299.752       61.636        0.042      340.712       14.919      857.499
05/16/2013  18:55:00     -270.739     -106.447      -11.445      167.057      136.332       76.258    27908.127    18586.350     5815.287        6.853        2.615      290.914       88.553        0.093      340.549       14.643      857.494
05/16/2013  18:56:00     -212.451     -168.486       11.719      193.553      161.386       88.556    37462.757    26045.585     7842.160        7.249        3.568      271.152      106.093        0.153      340.465       14.502      857.494
05/16/2013  18:57:00     -313.124     -233.140       -2.862      189.755      130.430       92.429    36006.879    17011.983     8543.144       10.698        3.078      390.385       97.753        0.063      340.419       14.424      857.466
05/16/2013  18:58:00     -237.695     -215.919        8.595      140.538      137.422       69.545    19751.029    18884.819     4836.470        7.333        2.174      321.123       75.423        0.055      340.443       14.463      857.473
05/16/2013  18:59:00     -209.759     -191.838       20.100      195.249      133.684       85.717    38122.291    17871.497     7347.425        7.226        3.167      284.255       79.894        0.079      340.538       14.625      857.470
05/16/2013  19:00:00     -384.502     -272.052       -8.298      182.250      154.622       84.431    33215.009    23907.952     7128.534       14.308        3.213      471.014       75.816        0.026      340.383       14.364      857.465
05/16/2013  19:01:00     -363.704      -70.323        8.052      179.987      145.782       73.115    32395.383    21252.475     5345.760        9.813        2.950      370.440       87.964        0.056      340.420       14.425      857.455
05/16/2013  19:02:00     -528.121     -410.971      -12.215      239.289      212.745      108.800    57259.180    45260.343    11837.503       28.114        5.718      669.186      109.462        0.027      340.287       14.202      857.429
05/16/2013  19:03:00     -524.466     -404.908      -17.002      251.561      196.826      134.901    63283.139    38740.306    18198.397       27.974        6.011      662.582      144.217        0.047      340.242       14.124      857.401
05/16/2013  19:04:00     -598.019     -339.228       -0.064      291.928      193.768      120.528    85221.893    37546.105    14526.920       30.498        6.865      687.533      140.510        0.042      340.173       14.008      857.383
05/16/2013  19:05:00     -455.343     -319.171      -10.714      192.597      134.827       92.663    37093.736    18178.419     8586.408       18.658        3.193      556.065       97.189        0.031      340.165       13.993      857.397
05/16/2013  19:06:00     -435.905     -203.590       -2.015      238.445      128.335       88.857    56856.256    16469.783     7895.538       15.633        4.061      481.105      101.510        0.045      340.298       14.219      857.372
05/16/2013  19:07:00     -523.949     -187.423      -43.006      236.196      182.944       86.753    55788.655    33468.410     7526.163       20.412        4.839      556.461       87.421        0.025      340.239       14.119      857.366
05/16/2013  19:08:00     -263.938     -214.047      -12.159      178.723      140.034       98.301    31941.756    19609.613     9663.104        8.841        3.061      339.822      103.054        0.092      340.333       14.279      857.351
05/16/2013  19:09:00     -407.250     -266.908      -10.882      216.011      182.140       93.837    46660.781    33175.033     8805.369       16.291        4.432      486.922      107.382        0.049      340.314       14.246      857.347
05/16/2013  19:10:00     -411.471     -312.746        0.163      210.736      192.380      115.560    44409.626    37010.086    13354.217       18.093        4.739      516.835      113.535        0.048      340.266       14.163      857.328
05/16/2013  19:11:00     -361.921     -184.389       -5.824      179.497      169.887       87.747    32219.208    28861.524     7699.527       11.689        3.439      406.185       81.443        0.040      340.327       14.268      857.305
05/16/2013  19:12:00     -310.949     -186.600       15.250      206.986      165.696       91.347    42843.309    27455.170     8344.201       10.518        3.932      362.642      111.294        0.094      340.301       14.225      857.334
05/16/2013  19:13:00     -437.922     -292.779      -22.261      232.362      206.647       92.471    53991.971    42702.886     8550.793       19.160        5.262      526.778      102.994        0.038      340.222       14.091      857.318
05/16/2013  19:14:00     -502.715     -235.536      -14.882      208.908      174.623       93.354    43642.459    30493.020     8715.057       19.562        4.143      555.158       91.501        0.027      340.134       13.941      857.302
05/16/2013  19:15:00     -505.076     -246.885      -15.576      228.855      151.714       92.683    52374.436    23017.208     8590.068       20.013        4.199      562.187      113.994        0.041      340.208       14.068      857.286
05/16/2013  19:16:00     -307.974     -121.957       -5.888      218.179      173.467       82.231    47602.010    30090.923     6761.892        9.709        4.223      331.242       94.088        0.081      340.321       14.257      857.277
05/16/2013  19:17:00     -345.018     -128.196       14.208      222.236      149.283       93.473    49388.868    22285.456     8737.247       10.803        4.021      368.064      117.453        0.102      340.279       14.187      857.275
05/16/2013  19:18:00     -457.172     -178.783       -0.181      189.689      179.031       94.749    35981.732    32052.272     8977.350       15.898        3.851      490.886       85.121        0.030      340.257       14.149      857.292
05/16/2013  19:19:00     -464.691     -274.846      -15.071      274.464      182.129      100.559    75330.277    33170.978    10112.122       20.514        5.931      539.887      132.932        0.061      340.213       14.076      857.300
05/16/2013  19:20:00     -354.678     -267.316      -10.642      208.707      189.334      112.266    43558.606    35847.490    12603.591       14.467        4.600      444.133      119.015        0.072      340.219       14.084      857.277
05/16/2013  19:21:00     -513.835     -184.684      -15.638      257.405      163.025       89.405    66257.570    26577.225     7993.224       19.959        5.041      546.017      106.817        0.038      340.191       14.037      857.267
05/16/2013  19:22:00     -371.483     -355.629      -11.636      228.935      167.093       99.651    52411.170    27920.165     9930.386       17.742        4.513      514.268      105.081        0.042      340.167       13.996      857.277
05/16/2013  19:23:00     -410.435     -297.984       -3.499      194.947      172.220      104.791    38004.452    29659.708    10981.170       16.794        3.932      507.200       99.164        0.038      340.170       14.002      857.279
05/16/2013  19:24:00     -192.629     -140.579       15.323      188.493      154.030      105.521    35529.788    23725.285    11134.696        6.373        3.519      238.471      105.852        0.197      340.264       14.161      857.280
05/16/2013  19:25:00     -347.483     -117.550      -15.624      170.230      201.762       93.414    28978.363    40708.053     8726.158       10.660        3.921      366.827       97.807        0.071      340.208       14.068      857.272
05/16/2013  19:26:00     -366.619     -242.770      -20.649      189.908      145.878       85.108    36065.130    21280.471     7243.355       12.917        3.229      439.713       91.671        0.043      340.213       14.073      857.290
05/16/2013  19:27:00     -446.413     -262.597       -9.171      198.323      203.950      115.572    39331.906    41595.660    13356.823       18.129        4.714      517.921      101.565        0.038      340.047       13.794      857.298
05/16/2013  19:28:00     -418.536     -203.178       -4.480      247.612      250.882      110.191    61311.546    62941.647    12142.091       17.641        6.820      465.245      142.447        0.094      340.155       13.977      857.272
05/16/2013  19:29:00     -522.370     -324.085      -39.061      237.710      273.901      116.529    56506.004    75021.505    13579.018       26.224        7.255      614.737      131.611        0.046      340.048       13.796      857.266
05/16/2013  19:30:00     -388.144     -248.893       -3.973      203.208      192.354      119.784    41293.405    37000.066    14348.226       15.261        4.632      461.089      107.757        0.055      340.061       13.817      857.257
05/16/2013  19:31:00     -451.293      -44.723       -8.678      218.851      156.489       86.886    47895.759    24488.824     7549.130       14.282        3.997      453.503      102.669        0.051      340.167       13.996      857.275
05/16/2013  19:32:00     -453.774     -193.480      -10.163      311.999      235.009      104.118    97343.473    55229.134    10840.653       20.340        8.171      493.301      130.836        0.070      340.114       13.907      857.265
05/16/2013  19:33:00     -496.095     -198.244        0.844      255.631      209.898      105.269    65347.167    44057.217    11081.519       20.293        6.024      534.238      124.040        0.054      340.083       13.856      857.262
05/16/2013  19:34:00     -463.284     -287.892       -7.309      241.133      178.316      108.982    58145.340    31796.532    11877.109       19.968        5.091      545.448      119.185        0.048      340.070       13.832      857.257
05/16/2013  19:35:00     -426.363     -139.754       -6.838      238.399      206.234       96.850    56834.148    42532.645     9379.892       15.504        5.437      448.683      100.562        0.050      340.128       13.931      857.274
05/16/2013  19:36:00     -338.367     -110.778       -3.928      237.400      181.383       93.019    56358.788    32899.683     8652.454       11.233        4.896      356.039      115.404        0.105      340.123       13.923      857.267
05/16/2013  19:37:00     -334.887     -131.061        4.928      179.984      200.537       88.058    32394.159    40215.163     7754.205       10.484        4.018      359.619       91.162        0.064      340.182       14.023      857.267
05/16/2013  19:38:00     -342.208     -180.990      -17.127      197.916      155.140       89.680    39170.895    24068.309     8042.535       11.071        3.564      387.123      103.278        0.071      340.123       13.923      857.286
05/16/2013  19:39:00     -543.295     -301.580      -17.111      270.261      235.087      105.983    73040.896    55265.746    11232.349       26.295        6.977      621.385      118.674        0.036      340.067       13.829      857.278
05/16/2013  19:40:00     -478.091     -292.831      -27.118      265.821      219.060      106.691    70660.923    47987.210    11383.072       22.252        6.502      560.643      128.102        0.052      340.046       13.792      857.280
05/16/2013  19:41:00     -343.557     -258.507        3.724      251.208      201.908       98.749    63105.542    40766.979     9751.340       14.923        5.681      429.950      117.820        0.075      340.053       13.804      857.236
05/16/2013  19:42:00     -443.904     -149.973      -28.116      230.638      168.961       94.990    53194.095    28547.876     9023.149       15.553        4.538      468.553       80.172        0.029      340.091       13.869      857.245
05/16/2013  19:43:00     -491.246     -260.072       -2.134      279.121      254.195      113.552    77908.461    64615.148    12894.055       23.216        7.771      555.841      122.543        0.049      340.057       13.812      857.229
05/16/2013  19:44:00     -397.431     -230.932        3.813      229.491      162.484       97.086    52666.292    26400.960     9425.644       14.988        4.425      459.653      115.219        0.063      340.040       13.782      857.232
05/16/2013  19:45:00     -452.680     -260.007      -15.368      253.059      210.780      106.654    64038.722    44428.222    11375.104       19.628        5.992      522.037      135.150        0.067      340.009       13.730      857.249
05/16/2013  19:46:00     -417.499     -273.438      -15.190      216.082      220.051      114.845    46691.357    48422.364    13189.352       17.879        5.415      499.073      118.885        0.057      340.010       13.731      857.238
05/16/2013  19:47:00     -433.606     -253.677       -5.573      216.377      205.130      110.707    46819.129    42078.421    12256.091       17.676        5.058      502.361      114.657        0.052      339.984       13.689      857.240
05/16/2013  19:48:00     -410.413     -132.621       -0.884      212.718      155.952       88.331    45249.134    24320.945     7802.349       13.169        3.869      431.308      103.132        0.057      340.007       13.726      857.266
05/16/2013  19:49:00     -327.450     -200.180        5.174      262.631      200.751      128.266    68974.918    40301.045    16452.093       13.650        6.286      383.791      155.706        0.165      340.001       13.718      857.252
05/16/2013  19:50:00     -338.760     -150.003      -29.490      168.731      161.318       86.568    28470.084    26023.575     7494.095       10.005        3.099      370.485       79.688        0.046      340.017       13.744      857.264
05/16/2013  19:51:00     -310.129     -123.775        0.841      177.972      151.469       82.232    31674.144    22942.991     6762.141        8.643        3.069      333.917       90.681        0.074      340.038       13.780      857.307
05/16/2013  19:52:00     -425.227     -122.348       -8.349      239.283      201.675      105.628    57256.347    40672.888    11157.355       15.245        5.454      442.478      102.795        0.054      339.970       13.664      857.314
05/16/2013  19:53:00     -339.942     -226.625       -7.623      214.473      169.357       98.112    45998.486    28681.638     9625.920       12.563        4.215      408.558       94.187        0.053      339.961       13.651      857.315
05/16/2013  19:54:00     -340.396     -101.799        5.812      206.206      138.924       81.488    42520.987    19299.879     6640.294        9.735        3.423      355.292       93.849        0.070      339.976       13.675      857.356
05/16/2013  19:55:00     -440.124     -140.793      -12.831      234.517      178.064       77.074    54998.451    31706.946     5940.400       15.316        4.632      462.095       91.224        0.039      339.956       13.642      857.342
05/16/2013  19:56:00     -330.941     -163.227        3.183      199.270      167.032       85.428    39708.444    27899.665     7297.882       10.553        3.745      369.006       86.875        0.055      339.962       13.652      857.345
05/16/2013  19:57:00     -353.773     -289.817       -8.385      208.246      155.242       96.201    43366.553    24100.026     9254.549       14.296        3.836      457.328      102.192        0.050      339.965       13.657      857.331
05/16/2013  19:58:00     -456.662     -172.426        7.096      211.427      164.377       88.990    44701.504    27019.652     7919.247       15.897        3.982      488.130       88.410        0.033      339.936       13.607      857.335
05/16/2013  19:59:00     -350.829     -114.196      -10.374      235.603      153.523       96.161    55508.926    23569.334     9246.955       11.226        4.416      368.947      117.108        0.101      339.958       13.644      857.335
05/16/2013  20:00:00     -511.385     -242.785       -9.107      203.966      183.046       95.156    41602.085    33505.957     9054.640       20.234        4.208      566.091      101.224        0.032      339.959       13.645      857.337
05/16/2013  20:01:00     -462.909     -318.248       -4.062      245.463      197.682      116.900    60252.215    39078.125    13665.615       21.427        5.650      561.753      125.887        0.050      339.903       13.552      857.329
05/16/2013  20:02:00     -211.030     -149.070       16.805      201.796      157.159      111.501    40721.668    24699.024    12432.375        7.243        3.893      258.371      108.189        0.175      339.939       13.613      857.339
05/16/2013  20:03:00     -325.488     -237.119      -20.260      166.994      143.140       93.170    27886.988    20489.177     8680.729       10.981        2.853      402.701       91.451        0.052      339.934       13.603      857.335
05/16/2013  20:04:00     -339.392     -165.926       -9.135      169.997      135.641       73.005    28899.131    18398.561     5329.796        9.771        2.631      377.781       77.780        0.042      339.968       13.663      857.335
05/16/2013  20:05:00     -454.322     -128.707       -6.305      206.341      164.617       87.942    42576.678    27098.807     7733.764       15.020        3.870      472.201       92.506        0.038      339.920       13.582      857.343
05/16/2013  20:06:00     -334.171     -119.893        3.775      176.276      148.460       84.915    31073.383    22040.296     7210.515        9.318        3.016      355.028       81.213        0.052      339.943       13.619      857.354
05/16/2013  20:07:00     -351.129     -222.880      -21.168      192.686      170.467       97.160    37127.749    29059.049     9440.030       12.451        3.781      415.893      106.876        0.066      339.948       13.627      857.344
05/16/2013  20:08:00     -419.104     -261.081      -13.107      201.393      177.312       92.568    40559.107    31439.579     8568.801       16.226        4.028      493.772       98.937        0.040      339.919       13.578      857.307
05/16/2013  20:09:00     -318.824     -200.630       -6.947      178.517      131.688       99.194    31868.382    17341.598     9839.504       10.049        2.952      376.697      108.288        0.083      339.912       13.568      857.312
05/16/2013  20:10:00     -421.733     -188.881      -17.899      185.197      143.047       89.007    34297.979    20462.362     7922.272       13.826        3.134      462.098       87.903        0.036      339.921       13.583      857.313
05/16/2013  20:11:00     -415.128     -285.656       -9.880      188.761      173.812       99.066    35630.588    30210.521     9814.020       16.483        3.783      503.915      103.811        0.042      339.898       13.542      857.307
05/16/2013  20:12:00     -333.513     -236.589       -1.273      215.327      209.952      103.468    46365.764    44079.865    10705.720       13.416        5.058      408.907      100.523        0.060      339.897       13.541      857.282
05/16/2013  20:13:00     -349.699     -273.134       -0.163      275.779      185.331      120.587    76053.985    34347.591    14541.248       16.090        6.247      443.725      137.487        0.096      339.868       13.493      857.249
05/16/2013  20:14:00     -386.657     -187.811        9.975      236.602      171.886       83.692    55980.680    29544.955     7004.363       13.869        4.626      429.856       99.327        0.053      339.893       13.533      857.253
05/16/2013  20:15:00     -378.321     -217.969        2.579      221.502      228.785      100.577    49063.317    52342.729    10115.758       15.106        5.576      436.620      104.095        0.057      339.847       13.456      857.268
05/16/2013  20:16:00     -345.721     -273.251       -9.591      259.107      190.044      130.480    67136.557    36116.548    17025.139       15.726        6.014      440.669      133.651        0.092      339.852       13.466      857.244
05/16/2013  20:17:00     -366.256     -182.652      -24.723      191.326      175.070       88.782    36605.544    30649.531     7882.203       12.161        3.757      409.274       92.537        0.051      339.860       13.480      857.261
05/16/2013  20:18:00     -378.290     -176.681      -33.433      245.005      150.805       94.916    60027.668    22742.017     9008.973       13.359        4.589      417.516       89.167        0.046      339.860       13.478      857.255
05/16/2013  20:19:00     -384.663     -179.646      -28.656      228.910      151.039       90.153    52399.723    22812.630     8127.515       13.219        4.167      424.545       97.211        0.052      339.856       13.472      857.264
05/16/2013  20:20:00     -467.202     -101.703      -19.542      277.689      190.415      120.340    77111.381    36257.907    14481.759       17.841        6.393      478.144      138.881        0.084      339.822       13.416      857.217
05/16/2013  20:21:00     -560.556      -43.367      -15.753      270.446      224.869      103.086    73141.277    50566.006    10626.671       22.532        6.717      562.231      113.370        0.041      339.798       13.376      857.243
05/16/2013  20:22:00     -395.060      -37.905       -0.715      220.286      155.013       94.407    48525.728    24028.909     8912.673       11.947        4.073      396.874      115.536        0.085      339.822       13.415      857.266
05/16/2013  20:23:00     -380.604     -121.731       -4.897      275.074      216.399       93.314    75665.750    46828.726     8707.518       14.543        6.560      399.597      116.151        0.084      339.821       13.415      857.242
05/16/2013  20:24:00     -414.442     -128.506        8.330      250.191      228.972      109.621    62595.592    52428.338    12016.803       15.767        6.352      433.908      127.869        0.087      339.812       13.399      857.271
05/16/2013  20:25:00     -485.343      -53.933      -15.574      222.453      173.774      104.052    49485.558    30197.522    10826.870       16.459        4.525      488.330      110.783        0.051      339.788       13.359      857.311
05/16/2013  20:26:00     -624.373      -72.493      -36.460      202.495      170.476       91.184    41004.110    29061.994     8314.441       23.739        3.919      628.567       99.293        0.025      339.751       13.296      857.319
05/16/2013  20:27:00     -463.124      -23.606      -22.184      340.856      193.779      101.213   116183.034    37550.179    10244.165       18.973        8.199      463.725      111.488        0.058      339.790       13.362      857.310
05/16/2013  20:28:00     -441.634      -15.936       -3.430      281.190      183.938      105.616    79068.056    33833.335    11154.640       15.966        6.203      441.921      132.582        0.090      339.762       13.314      857.332
05/16/2013  20:29:00     -451.309     -111.299       -3.697      279.547      188.146      122.559    78146.478    35398.756    15020.683       17.230        6.428      464.830      132.261        0.081      339.760       13.311      857.329
05/16/2013  20:30:00     -328.039      -74.069        6.302      206.419      189.853       98.471    42608.835    36044.110     9696.487       10.073        4.417      336.297       97.683        0.084      339.773       13.333      857.339
05/16/2013  20:31:00     -362.773     -100.530      -17.507      244.108      147.901       84.171    59588.788    21874.624     7084.726       11.527        4.427      376.445      102.158        0.074      339.772       13.332      857.336
05/16/2013  20:32:00     -351.304     -243.501       -9.896      240.174      179.393       99.462    57683.461    32181.742     9892.743       14.126        4.988      427.443      122.714        0.082      339.767       13.325      857.336
05/16/2013  20:33:00     -461.348     -225.107      -35.686      242.180      198.451      103.392    58651.065    39382.753    10689.885       18.674        5.436      513.337      113.165        0.049      339.735       13.270      857.282
05/16/2013  20:34:00     -454.702     -178.213       -8.474      264.154      149.390      108.244    69777.524    22317.280    11716.852       17.118        5.191      488.379      132.282        0.073      339.742       13.281      857.293
05/16/2013  20:35:00     -508.072     -248.485      -31.802      200.257      204.838      101.101    40102.987    41958.743    10221.380       20.657        4.614      565.581      101.758        0.032      339.710       13.226      857.274
05/16/2013  20:36:00     -335.230     -153.460       -9.853      192.237      173.810      105.027    36955.174    30209.774    11030.695       10.710        3.910      368.686      108.616        0.087      339.723       13.249      857.290
05/16/2013  20:37:00     -565.982     -186.636      -47.393      146.656      180.191       80.407    21508.101    32468.914     6465.363       20.892        3.022      595.961       62.203        0.011      339.692       13.195      857.304
05/16/2013  20:38:00     -252.585     -160.821       -4.308      188.414      213.408       98.084    35499.846    45542.765     9620.561        9.016        4.533      299.437      112.298        0.141      339.747       13.290      857.307
05/16/2013  20:39:00     -294.842     -188.441       19.165      352.746      205.841      134.711   124429.541    42370.711    18146.935       15.385        9.247      349.917      162.903        0.217      339.710       13.225      857.295
05/16/2013  20:40:00     -408.049     -169.777      -22.147      246.274      167.678       97.818    60651.026    28115.769     9568.332       14.706        4.917      441.959      102.846        0.054      339.696       13.205      857.294
05/16/2013  20:41:00     -197.687     -136.429       29.818      247.994      193.467      118.348    61500.814    37429.503    14006.191        8.574        5.647      240.194      123.406        0.264      339.691       13.196      857.301
05/16/2013  20:42:00     -347.561     -147.328        9.146      236.380      177.707      113.892    55875.676    31579.819    12971.483       12.149        5.021      377.497      120.273        0.102      339.663       13.148      857.347
05/16/2013  20:43:00     -291.478     -176.161      -10.802      196.104      184.021       98.775    38456.947    33863.636     9756.516        9.908        4.104      340.576      108.706        0.102      339.676       13.168      857.340
05/16/2013  20:44:00     -255.219      -70.098       -7.995      179.673      168.012       79.563    32282.416    28227.968     6330.211        6.847        3.342      264.671       76.893        0.084      339.706       13.221      857.381
05/16/2013  20:45:00     -659.675     -101.875      -17.228      318.463      268.219      120.025   101418.587    71941.554    14406.106       31.677        9.388      667.495      141.338        0.045      339.601       13.043      857.376
05/16/2013  20:46:00     -509.792     -122.484      -18.736      254.766      197.606       89.366    64905.477    39047.991     7986.314       19.357        5.597      524.299      101.537        0.038      339.615       13.067      857.402
05/16/2013  20:47:00     -543.548        1.382      -23.078      225.465      240.343       95.106    50834.323    57764.690     9045.066       20.679        5.882      543.550      106.755        0.039      339.634       13.099      857.416
05/16/2013  20:48:00     -435.270        2.188      -19.080      245.134      191.564       94.920    60090.695    36696.729     9009.885       14.780        5.290      435.275       99.542        0.052      339.635       13.101      857.419
05/16/2013  20:49:00     -510.253     -105.248      -34.332      277.885      186.051      101.290    77220.079    34615.111    10259.580       19.733        6.105      520.994      133.174        0.065      339.643       13.115      857.446
05/16/2013  20:50:00     -348.998      -35.407      -10.227      199.089      184.320       84.092    39636.273    33973.981     7071.477       10.191        4.034      350.790       95.824        0.075      339.657       13.138      857.471
05/16/2013  20:51:00     -281.949      -61.077       14.352      248.818      193.856      119.314    61910.153    37580.179    14235.783        9.856        5.686      288.489      144.018        0.249      339.671       13.161      857.457
05/16/2013  20:52:00     -441.817     -108.217       -9.119      231.078      113.554       87.594    53397.202    12894.586     7672.657       14.047        3.698      454.877       92.828        0.042      339.628       13.089      857.522
05/16/2013  20:53:00     -411.355     -159.624       -7.663      222.621      186.910       96.837    49560.151    34935.193     9377.500       14.430        4.694      441.240      115.245        0.068      339.631       13.093      857.509
05/16/2013  20:54:00     -427.826     -153.255       -8.683      205.698      146.308       92.735    42311.846    21406.124     8599.803       13.945        3.616      454.447      103.751        0.052      339.611       13.060      857.520
05/16/2013  20:55:00     -467.079     -107.902      -10.349      247.094      199.938       87.972    61055.258    39975.381     7739.044       16.932        5.438      479.380       91.290        0.036      339.587       13.019      857.557
05/16/2013  20:56:00     -378.555     -112.943      -11.705      223.598      218.260       95.523    49996.220    47637.597     9124.729       13.146        5.338      395.044      100.539        0.065      339.601       13.042      857.570
05/16/2013  20:57:00     -379.337      -70.245      -16.117      180.402      186.128       92.457    32544.749    34643.814     8548.220       11.240        3.787      385.786       83.873        0.047      339.582       13.011      857.603
05/16/2013  20:58:00     -322.189      -72.062       10.436      206.154      157.276       86.879    42499.479    24735.606     7548.017        9.193        3.739      330.150      100.225        0.092      339.572       12.994      857.597
05/16/2013  20:59:00     -251.666      -17.741        0.630      220.377      126.539       76.074    48566.123    16012.110     5787.223        6.700        3.518      252.291       96.545        0.146      339.598       13.039      857.623
05/16/2013  21:00:00     -268.504     -154.395       -6.522      207.306      142.844      106.092    42975.872    20404.284    11255.520        8.529        3.732      309.729      118.775        0.147      339.574       12.998      857.616
05/16/2013  21:01:00     -148.369     -125.519       13.792      163.452      115.436       72.804    26716.599    13325.544     5300.405        4.164        2.267      194.341       72.166        0.138      339.606       13.053      857.645
05/16/2013  21:02:00     -283.482     -149.101       -7.645      144.038      142.582       76.128    20747.014    20329.714     5795.530        7.475        2.344      320.302       72.847        0.052      339.573       12.995      857.631
05/16/2013  21:03:00     -365.525       -9.269       -7.177      198.916      150.595       71.121    39567.603    22678.962     5058.211       10.051        3.365      365.642       81.686        0.050      339.576       13.002      857.652
05/16/2013  21:04:00     -281.647      -19.635      -12.847      162.991      130.997       72.307    26565.974    17160.223     5228.332        6.441        2.448      282.331       83.544        0.088      339.553       12.964      857.673
05/16/2013  21:05:00     -349.561     -258.170       -5.943      196.433      158.987      109.083    38585.958    25276.805    11899.115       13.231        3.788      434.563      109.000        0.063      339.532       12.926      857.671
05/16/2013  21:06:00     -259.270     -104.265      -17.833      188.179      108.466       77.010    35411.505    11764.811     5930.578        6.575        2.655      279.449       88.411        0.100      339.550       12.957      857.698
05/16/2013  21:07:00     -274.831      -61.428        1.222      132.957      129.502       71.628    17677.477    16770.678     5130.582        5.944        1.979      281.612       77.104        0.075      339.543       12.945      857.689
05/16/2013  21:08:00     -467.324      -57.441      -33.872      156.736      112.588       71.221    24566.255    12676.016     5072.421       13.257        2.116      470.841       81.415        0.030      339.492       12.859      857.704
05/16/2013  21:09:00     -302.705      -98.970      -20.496      195.571      130.551       74.322    38247.884    17043.642     5523.833        8.132        3.041      318.473       93.840        0.087      339.540       12.941      857.719
05/16/2013  21:10:00     -288.729     -147.864       -9.048      186.620      138.569       66.984    34827.145    19201.243     4486.890        8.190        2.926      324.389       77.743        0.057      339.543       12.944      857.706
05/16/2013  21:11:00     -172.704      -53.410        0.071      178.061      122.482       62.573    31705.659    15001.722     3915.405        4.164        2.531      180.774       65.509        0.131      339.571       12.994      857.706
05/16/2013  21:12:00     -464.602      -68.787       -2.060      274.672      144.584       99.343    75444.832    20904.507     9868.943       16.339        5.311      469.666      115.453        0.060      339.523       12.913      857.658
05/16/2013  21:13:00     -519.526      -37.046      -11.483      246.942      148.342      100.758    60980.211    22005.287    10152.128       18.226        4.657      520.845      129.663        0.062      339.509       12.889      857.681
05/16/2013  21:14:00     -315.294     -163.070       -9.499      145.133      143.180       69.847    21063.607    20500.484     4878.627        8.626        2.322      354.968       72.623        0.042      339.518       12.903      857.709
05/16/2013  21:15:00     -154.999     -113.873       12.134      132.141      101.929       61.609    17461.233    10389.609     3795.671        3.439        1.582      192.332       69.753        0.132      339.581       13.009      857.697
05/16/2013  21:16:00     -479.508     -138.895      -21.756      200.040      217.610      100.865    40016.201    47354.132    10173.816       17.360        4.877      499.219       89.142        0.032      339.504       12.878      857.687
05/16/2013  21:17:00     -305.956      -16.126        8.139      179.204      127.971       87.430    32113.982    16376.634     7643.977        7.503        2.807      306.381       93.736        0.094      339.507       12.884      857.689
05/16/2013  21:18:00     -276.713     -100.925      -14.543      162.320       93.611       57.887    26347.827     8762.981     3350.877        6.271        1.923      294.543       72.552        0.061      339.522       12.909      857.687
05/16/2013  21:19:00     -334.335     -129.985      -16.755      188.519      152.443       77.621    35539.352    23238.985     6025.051        9.687        3.240      358.714       94.341        0.069      339.515       12.898      857.659
05/16/2013  21:20:00     -331.498     -151.158       -6.370      161.446      131.572       73.400    26064.681    17311.265     5387.547        9.076        2.438      364.334       74.910        0.042      339.524       12.913      857.642
05/16/2013  21:21:00     -288.640      -38.419       -9.433      180.723      165.018       68.977    32660.972    27230.809     4757.777        7.475        3.232      291.186       64.264        0.049      339.546       12.950      857.633
05/16/2013  21:22:00     -294.441     -139.207        6.517      200.055      207.136       94.896    40022.082    42905.361     9005.179        9.901        4.597      325.690      103.898        0.102      339.529       12.922      857.639
05/16/2013  21:23:00     -325.729     -120.096      -13.646      178.649      150.126       80.001    31915.494    22537.880     6400.106        9.077        3.043      347.163       55.221        0.025      339.497       12.866      857.631
05/16/2013  21:24:00     -251.821       38.549       10.324      196.089      114.182       79.589    38450.751    13037.501     6334.456        6.140        2.891      254.754       88.003        0.119      339.520       12.906      857.636
05/16/2013  21:25:00     -358.855      -79.903      -17.370      200.997      167.281       74.942    40399.694    27982.962     5616.315       10.472        3.700      367.643       88.589        0.058      339.488       12.852      857.650
05/16/2013  21:26:00     -407.870     -207.499      -24.877      198.382      118.260       80.927    39355.584    13985.440     6549.155       13.495        2.995      457.617       88.877        0.038      339.498       12.867      857.650
05/16/2013  21:27:00     -236.520     -125.426      -10.737      161.712      117.737       72.315    26150.688    13862.053     5229.529        5.851        2.262      267.719       66.486        0.062      339.508       12.886      857.662
05/16/2013  21:28:00     -192.218      -50.151       10.929      126.623      122.999       69.560    16033.318    15128.804     4838.616        3.779        1.800      198.652       56.630        0.081      339.515       12.899      857.641
05/16/2013  21:29:00     -340.668      -75.111      -15.037      192.542      108.739       72.123    37072.324    11824.132     5201.795        8.800        2.705      348.850       85.752        0.060      339.518       12.903      857.667
05/16/2013  21:30:00     -309.388      -86.522      -13.496      125.874      125.569       62.250    15844.258    15767.684     3875.002        6.943        1.774      321.259       58.752        0.033      339.508       12.885      857.677
05/16/2013  21:31:00     -402.452      -93.836       -8.613      185.448      124.216       79.588    34391.133    15429.525     6334.235       11.349        2.808      413.247       87.336        0.045      339.466       12.815      857.662
05/16/2013  21:32:00     -176.776      -89.606       14.910      158.001      130.631       82.613    24964.377    17064.562     6824.831        4.417        2.443      198.189       88.787        0.201      339.507       12.884      857.664
05/16/2013  21:33:00     -295.998      -43.516      -13.230      176.487      104.570       63.845    31147.712    10934.888     4076.145        6.791        2.308      299.180       74.156        0.061      339.517       12.902      857.649
05/16/2013  21:34:00     -456.014      -20.840      -20.657      240.511      132.474       87.767    57845.443    17549.414     7702.976       14.594        4.155      456.490       93.803        0.042      339.482       12.842      857.679
05/16/2013  21:35:00     -182.322      -58.859       17.579      190.395      127.706       68.557    36250.398    16308.944     4700.124        4.713        2.863      191.587       91.260        0.227      339.526       12.917      857.712
05/16/2013  21:36:00     -365.396     -160.835      -25.936      158.716      128.588       81.277    25190.857    16534.839     6605.934       10.418        2.417      399.226       80.441        0.041      339.482       12.841      857.715
05/16/2013  21:37:00     -452.323      -63.031      -32.439      191.591      130.599       79.374    36707.164    17055.978     6300.162       13.483        3.003      456.694       81.908        0.032      339.447       12.784      857.734
05/16/2013  21:38:00     -209.306     -123.949       -3.509      198.534      163.411       88.821    39415.723    26702.993     7889.109        6.658        3.700      243.254       88.660        0.133      339.495       12.864      857.740
05/16/2013  21:39:00     -351.021      -46.554       -9.574      156.222      189.358       90.917    24405.422    35856.445     8265.829        9.699        3.426      354.095       88.271        0.062      339.459       12.805      857.771
05/16/2013  21:40:00     -412.838      -74.073      -26.401      174.279      145.733       80.709    30373.331    21238.236     6513.950       11.736        2.906      419.430       77.390        0.034      339.449       12.787      857.770
05/16/2013  21:41:00     -249.131      -86.381       10.480      146.474       99.578       68.394    21454.594     9915.679     4677.694        5.284        1.802      263.681       63.338        0.058      339.470       12.821      857.779
05/16/2013  21:42:00     -433.887      -76.538      -10.561      212.740      147.915       94.918    45258.281    21878.875     9009.344       13.517        3.807      440.586       98.414        0.050      339.415       12.729      857.771
05/16/2013  21:43:00     -240.028      -90.445        2.258      159.854      129.072       73.684    25553.419    16659.582     5429.291        5.671        2.382      256.503       76.082        0.088      339.449       12.786      857.785
05/16/2013  21:44:00     -188.102      -21.456       -5.035      136.993      101.969       60.143    18767.001    10397.765     3617.180        3.432        1.639      189.322       59.889        0.100      339.466       12.816      857.793
05/16/2013  21:45:00     -234.773     -125.392      -12.413      167.076      118.020       77.320    27914.315    13928.706     5978.439        5.940        2.391      266.160       82.344        0.096      339.433       12.762      857.806
05/16/2013  21:46:00     -398.658      -83.645      -27.608      157.593      182.912       93.502    24835.428    33456.651     8742.650       11.685        3.352      407.338       90.106        0.049      339.405       12.713      857.814
05/16/2013  21:47:00     -480.450      -90.240      -25.331      139.231      151.197       75.718    19385.402    22860.669     5733.289       14.379        2.399      488.851       66.381        0.018      339.408       12.718      857.827
05/16/2013  21:48:00     -174.128      -68.465       32.054      139.901      128.567       82.358    19572.161    16529.524     6782.858        3.945        2.144      187.104       86.054        0.212      339.456       12.799      857.882
05/16/2013  21:49:00     -134.802      -91.299        8.772      125.637      132.125       61.967    15784.565    17457.117     3839.927        3.183        1.854      162.809       62.111        0.146      339.439       12.771      857.899
05/16/2013  21:50:00     -277.652        1.807      -21.372      146.995      118.732       52.576    21607.390    14097.393     2764.226        5.800        1.923      277.658       38.441        0.019      339.389       12.687      857.925
05/16/2013  21:51:00     -413.923      -63.560       -4.023      186.240      154.681       75.157    34685.224    23926.069     5648.570       11.981        3.213      418.774       80.329        0.037      339.383       12.675      857.910
05/16/2013  21:52:00     -247.327      -34.828       -9.383      133.425      120.686       74.159    17802.247    14564.995     5499.543        5.016        1.893      249.767       69.792        0.078      339.398       12.701      857.945
05/16/2013  21:53:00     -194.625      -48.232      -19.523      136.758       95.997       54.970    18702.853     9215.357     3021.675        3.576        1.547      200.512       63.488        0.100      339.415       12.730      857.966
05/16/2013  21:54:00     -195.221        1.536      -18.471       67.761       89.864       45.919     4591.542     8075.450     2108.545        2.661        0.739      195.227       35.000        0.032      339.396       12.699      857.976
05/16/2013  21:55:00     -131.717       25.932      -14.747       98.446      102.613       48.039     9691.574    10529.434     2307.752        2.038        1.126      134.245       51.766        0.149      339.421       12.741      857.977
05/16/2013  21:56:00     -258.780       67.670      -33.399      141.001      153.662       61.669    19881.269    23611.920     3803.111        5.997        2.365      267.482       41.269        0.024      339.386       12.680      857.947
05/16/2013  21:57:00     -210.657       20.547      -12.169      219.116      235.419       69.793    48011.606    55422.032     4871.103        7.661        5.415      211.656       65.954        0.097      339.405       12.713      857.918
05/16/2013  21:58:00     -179.349      205.862      -27.516       88.140      142.443       65.386     7768.700    20289.921     4275.267        5.381        1.617      273.029       60.561        0.049      339.349       12.619      857.937
05/16/2013  21:59:00     -226.834      179.351      -32.516      172.155      138.286       67.139    29637.252    19122.915     4507.616        6.896        2.663      289.171       74.592        0.067      339.370       12.654      857.931
05/16/2013  22:00:00      -75.977      142.501       13.255       86.100       93.758       76.325     7413.295     8790.599     5825.468        2.414        1.101      161.490       70.544        0.191      339.409       12.722      857.922
05/16/2013  22:01:00     -153.614       69.754      -21.766       77.099       70.452       45.652     5944.309     4963.420     2084.108        2.096        0.650      168.709       34.183        0.041      339.405       12.714      857.943
05/16/2013  22:02:00     -130.264       73.245      -17.236       72.267       86.335       46.162     5222.511     7453.690     2130.908        1.872        0.740      149.444       25.084        0.028      339.454       12.797      857.940
05/16/2013  22:03:00     -205.672      101.665      -37.039      114.145       99.553       66.463    13028.988     9910.894     4417.388        4.068        1.368      229.427       64.398        0.079      339.414       12.729      857.959
05/16/2013  22:04:00     -111.521      154.583      -14.949       63.510       96.072       46.975     4033.487     9229.923     2206.610        2.601        0.774      190.612       38.710        0.041      339.450       12.791      857.956
05/16/2013  22:05:00     -153.632      199.559      -32.341      104.235       92.303       40.437    10864.862     8519.847     1635.151        4.274        1.051      251.846       38.141        0.023      339.435       12.765      857.966
05/16/2013  22:06:00      -49.344      172.020      -10.964       67.813      103.045       40.661     4598.620    10618.280     1653.286        2.451        0.844      178.958       41.319        0.053      339.459       12.804      857.963
05/16/2013  22:07:00     -195.781      244.257      -41.375      120.930       98.820       63.242    14624.065     9765.298     3999.576        6.404        1.419      313.036       45.491        0.021      339.433       12.759      857.970
05/16/2013  22:08:00     -167.275      234.982      -44.175       82.151       80.740       58.863     6748.849     6518.994     3464.866        5.094        0.837      288.440       51.300        0.032      339.438       12.768      857.993
05/16/2013  22:09:00     -176.155      140.878      -28.273      117.006       76.183       47.532    13690.488     5803.897     2259.309        3.671        1.088      225.559       46.422        0.042      339.426       12.749      858.000
05/16/2013  22:10:00     -138.999      111.772      -25.082       62.093       83.421       36.595     3855.556     6958.985     1339.197        2.230        0.608      178.364       29.519        0.027      339.466       12.816      857.998
05/16/2013  22:11:00     -102.965      233.212      -21.086       68.906       99.471       45.152     4748.080     9894.490     2038.684        4.106        0.834      254.931       37.798        0.022      339.445       12.779      857.983
05/16/2013  22:12:00     -125.795      193.597      -44.935       72.376       63.447       38.508     5238.259     4025.472     1482.831        3.303        0.537      230.877       41.915        0.033      339.439       12.768      857.969
05/16/2013  22:13:00     -154.170      128.658      -19.883      107.938      127.701       57.611    11650.592    16307.590     3318.992        3.599        1.564      200.802       72.514        0.130      339.463       12.810      857.958
05/16/2013  22:14:00     -129.620      148.838      -20.442       74.353       98.998       46.547     5528.300     9800.524     2166.590        2.843        0.875      197.368       44.693        0.051      339.483       12.844      857.963
05/16/2013  22:15:00     -209.888      304.460      -48.096       85.852      131.283       69.130     7370.583    17235.342     4778.967        8.422        1.469      369.796       54.361        0.022      339.460       12.803      857.977
05/16/2013  22:16:00     -213.613      271.144      -49.421      102.949      115.637       60.217    10598.489    13372.013     3626.121        7.459        1.380      345.180       62.100        0.032      339.443       12.777      857.977
05/16/2013  22:17:00     -110.421      157.823      -20.352       96.649       72.086       50.329     9341.036     5196.460     2533.011        2.729        0.854      192.616       50.610        0.069      339.453       12.793      857.957
05/16/2013  22:18:00      -44.976      159.855      -14.275       95.140       72.593       43.137     9051.559     5269.706     1860.766        2.198        0.809      166.062       38.057        0.053      339.498       12.870      857.944
05/16/2013  22:19:00     -135.258      200.148      -23.588       78.009      108.988       48.123     6085.469    11878.427     2315.816        3.959        1.014      241.565       51.675        0.046      339.496       12.866      857.923
05/16/2013  22:20:00     -198.076       76.355      -33.711       78.018      107.663       58.083     6086.769    11591.373     3373.614        3.362        1.053      212.283       55.410        0.068      339.514       12.897      857.924
05/16/2013  22:21:00     -221.659      134.475      -31.836      135.182      133.275       61.025    18274.200    17762.174     3724.091        5.399        1.988      259.261       72.023        0.077      339.487       12.850      857.934
05/16/2013  22:22:00     -201.056      199.066      -36.730      120.112      144.270       67.788    14426.902    20813.895     4595.196        6.061        1.992      282.933       77.420        0.075      339.514       12.896      857.964
05/16/2013  22:23:00      -93.604      150.177      -17.826       54.918       73.836       40.061     3015.948     5451.814     1604.898        2.085        0.504      176.960       39.008        0.049      339.473       12.828      857.962
05/16/2013  22:24:00     -141.433       25.418      -12.038       75.585       87.902       38.355     5713.030     7726.783     1471.087        1.785        0.746      143.699       23.344        0.026      339.522       12.911      857.947
05/16/2013  22:25:00      -92.868       22.117      -17.509       65.816       60.777       41.007     4331.741     3693.836     1681.599        0.956        0.485       95.465       24.738        0.067      339.571       12.994      857.956
05/16/2013  22:26:00     -140.760      -65.097      -17.043       92.668       72.281       39.813     8587.428     5224.480     1585.038        1.987        0.770      155.084       51.001        0.108      339.557       12.970      857.961
05/16/2013  22:27:00     -169.665      -72.574       -6.061       86.998       67.199       47.193     7568.574     4515.751     2227.136        2.420        0.716      184.535       42.974        0.054      339.483       12.845      857.973
05/16/2013  22:28:00      -13.319       -5.000       20.375       60.395       61.552       40.636     3647.566     3788.661     1651.302        0.485        0.454       14.227       32.483        5.213      339.457       12.803      857.982
05/16/2013  22:29:00      -51.383      156.832      -13.131       87.921      111.793       47.094     7730.062    12497.615     2217.857        2.492        1.122      165.035       54.442        0.109      339.472       12.827      857.969
05/16/2013  22:30:00     -163.803      118.472       -5.577       84.482      165.109       52.708     7137.199    27261.135     2778.106        3.903        1.859      202.156       49.528        0.060      339.437       12.767      857.969
05/16/2013  22:31:00     -154.004       56.659      -22.765       67.980      107.366       49.781     4621.234    11527.437     2478.174        2.303        0.931      164.096       40.962        0.062      339.477       12.836      857.983
05/16/2013  22:32:00     -178.357      -37.690       -7.821       64.431       78.527       40.673     4151.391     6166.554     1654.253        2.263        0.599      182.296       31.259        0.029      339.493       12.862      858.003
05/16/2013  22:33:00     -144.633       25.923      -12.003      110.196       72.356       37.013    12143.062     5235.404     1369.997        2.024        0.937      146.938       26.171        0.032      339.460       12.807      858.005
05/16/2013  22:34:00     -148.260       37.131      -24.334       78.749       74.174       37.146     6201.453     5501.765     1379.837        1.852        0.654      152.839       35.020        0.053      339.457       12.801      858.006
05/16/2013  22:35:00     -101.821       15.242        4.612       58.330       48.172       37.258     3402.419     2320.583     1388.193        0.886        0.356      102.955       34.067        0.109      339.457       12.804      858.012
05/16/2013  22:36:00     -106.040        4.474       -5.541       75.257       49.739       42.798     5663.634     2473.925     1831.657        1.063        0.498      106.134       47.156        0.197      339.443       12.780      858.013
05/16/2013  22:37:00      -80.936      142.051       -6.196       68.978       69.161       54.196     4757.934     4783.268     2937.230        1.962        0.624      163.490       49.932        0.093      339.435       12.765      857.990
05/16/2013  22:38:00     -120.312       87.165      -20.730       58.638       67.765       35.517     3438.457     4592.153     1261.433        1.590        0.465      148.569       39.258        0.070      339.431       12.760      857.998
05/16/2013  22:39:00      -69.288       57.168       -8.471       57.668       75.696       32.166     3325.574     5729.882     1034.644        0.911        0.505       89.828       26.886        0.090      339.492       12.861      857.988
05/16/2013  22:40:00      -73.847       -3.751        6.351       66.183       47.331       35.847     4380.124     2240.225     1284.999        0.671        0.395       73.942       40.551        0.301      339.506       12.886      857.972
05/16/2013  22:41:00     -105.903      -12.948      -14.022       44.064       69.129       35.159     1941.677     4778.855     1236.120        0.977        0.398      106.692       15.407        0.021      339.476       12.835      857.968
05/16/2013  22:42:00     -151.553      -15.467        7.452      100.906       61.651       45.705    10182.014     3800.830     2088.963        1.966        0.804      152.340       52.548        0.119      339.451       12.793      857.980
05/16/2013  22:43:00      -97.975      -14.760      -13.817       49.301       59.542       36.157     2430.591     3545.221     1307.320        0.864        0.364       99.081       18.028        0.033      339.487       12.852      857.988
05/16/2013  22:44:00      -77.702      -18.039        7.513       64.975       49.995       35.729     4221.811     2499.518     1276.547        0.721        0.400       79.769       35.625        0.199      339.480       12.840      857.979
05/16/2013  22:45:00     -106.240       63.872      -11.728       64.767       27.850       26.261     4194.720      775.617      689.621        1.058        0.283      123.961       27.297        0.048      339.459       12.805      857.985
05/16/2013  22:46:00      -12.299      136.286      -10.006       43.412       57.211       30.495     1884.622     3273.138      929.959        1.246        0.304      136.840       28.668        0.044      339.485       12.849      857.990
05/16/2013  22:47:00      -52.333      202.992      -28.356       54.413       73.910       36.160     2960.820     5462.712     1307.533        2.724        0.487      209.630       33.380        0.025      339.434       12.762      858.004
05/16/2013  22:48:00      -29.028      111.007        9.538       90.128       81.074       75.166     8123.052     6572.995     5649.945        1.680        1.017      114.739       23.223        0.041      339.447       12.786      858.013
05/16/2013  22:49:00      -41.323       33.584       16.475       93.897       99.223       53.925     8816.611     9845.146     2907.905        1.233        1.078       53.249       62.096        1.360      339.479       12.841      858.011
05/16/2013  22:50:00      -79.666       56.973       -4.633       58.979       73.160       31.680     3478.536     5352.404     1003.604        0.972        0.492       97.942       32.104        0.107      339.426       12.752      858.034
05/16/2013  22:51:00       59.666       24.685      -30.865       70.015       98.969       40.528     4902.154     9794.797     1642.518        1.073        0.817       64.571       25.278        0.153      339.438       12.773      857.998
05/16/2013  22:52:00      -54.748     -147.851       -3.202       80.836       83.717       50.795     6534.426     7008.486     2580.082        2.049        0.806      157.662       33.115        0.044      339.522       12.912      857.978
05/16/2013  22:53:00     -171.345      -26.637      -12.288       80.661      110.397       43.117     6506.244    12187.588     1859.087        2.538        1.028      173.403       34.196        0.039      339.420       12.738      857.983
05/16/2013  22:54:00       -1.239       11.819       18.228       35.408       38.319       23.798     1253.761     1468.358      566.361        0.188        0.164       11.884       22.422        3.560      339.346       12.616      857.960
05/16/2013  22:55:00        7.304      -45.174        0.331       23.648       24.844       19.967      559.237      617.227      398.687        0.183        0.079       45.761       11.854        0.067      339.443       12.779      857.963
05/16/2013  22:56:00      -13.454      -38.034       15.522       49.420       52.119       23.261     2442.382     2716.352      541.079        0.378        0.285       40.344       24.197        0.360      339.487       12.855      857.972
05/16/2013  22:57:00     -124.618      -59.238       -0.854      124.686       76.287       45.896    15546.598     5819.657     2106.421        2.125        1.174      137.981       58.805        0.182      339.378       12.670      857.975
05/16/2013  22:58:00       10.957      -48.617       18.059       63.895      103.635       48.934     4082.547    10740.170     2394.514        1.001        0.861       49.836       40.059        0.646      339.397       12.703      857.965
05/16/2013  22:59:00      -55.437      -39.305      -10.601       63.949       90.498       43.237     4089.511     8189.865     1869.415        0.944        0.707       67.957       36.774        0.293      339.369       12.655      857.957
05/16/2013  23:00:00        4.068       -2.390        9.094       86.028       98.639       37.605     7400.838     9729.690     1414.113        0.932        0.927        4.718       28.699       37.005      339.377       12.669      857.920
05/16/2013  23:01:00      -11.480      -50.096       14.660       94.910       81.414       52.694     9007.966     6628.235     2776.647        1.063        0.921       51.395       38.829        0.571      339.398       12.704      857.913
05/16/2013  23:02:00     -307.054     -176.672      -17.875      150.362      121.883       71.699    22608.862    14855.552     5140.745        8.420        2.130      354.253       76.912        0.047      339.329       12.584      857.949
05/16/2013  23:03:00     -214.359     -108.511        2.571      136.531      132.297       69.123    18640.578    17502.533     4777.998        4.932        2.046      240.259       70.264        0.086      339.311       12.553      857.939
05/16/2013  23:04:00     -346.910     -124.064       -8.217      250.504      133.753       83.024    62752.429    17889.979     6893.040       11.166        4.377      368.427      109.525        0.088      339.310       12.551      857.960
05/16/2013  23:05:00     -376.663     -214.585       -6.837      223.618      144.571       85.048    50005.170    20900.705     7233.109       13.304        3.907      433.499       84.927        0.038      339.293       12.523      857.966
05/16/2013  23:06:00     -246.252      -97.858      -25.856       94.680       86.904       49.096     8964.392     7552.312     2410.443        4.490        0.946      264.984       47.905        0.033      339.307       12.546      857.953
05/16/2013  23:07:00     -103.220      -90.440       13.172       81.351       69.424       55.565     6618.058     4819.659     3087.450        1.676        0.726      137.236       50.246        0.134      339.298       12.535      857.943
05/16/2013  23:08:00     -204.951     -105.440        0.030      112.685       98.560       49.997    12697.952     9714.144     2499.738        3.901        1.246      230.483       61.449        0.071      339.278       12.499      857.929
05/16/2013  23:09:00     -299.549     -118.218      -13.006      127.649       99.514       62.522    16294.334     9903.101     3908.995        6.699        1.505      322.033       60.477        0.035      339.268       12.481      857.922
05/16/2013  23:10:00     -270.324     -202.094        4.519      200.019      133.050       87.762    40007.731    17702.377     7702.082        8.966        3.271      337.516      100.079        0.088      339.275       12.494      857.912
05/16/2013  23:11:00     -216.260     -171.949       -2.738      150.219      112.106       61.534    22565.615    12567.865     3786.483        5.762        1.946      276.287       82.119        0.088      339.288       12.516      857.928
05/16/2013  23:12:00     -173.782      -96.543       -3.934      152.188       86.909       61.130    23161.321     7553.193     3736.819        3.699        1.723      198.798       60.386        0.092      339.293       12.525      857.921
05/16/2013  23:13:00     -240.959     -178.027       -9.580      130.768      107.031       64.412    17100.214    11455.670     4148.901        6.127        1.635      299.591       64.366        0.046      339.283       12.508      857.932
05/16/2013  23:14:00     -120.216     -163.311        6.438       98.841      101.804       54.799     9769.576    10364.086     3002.928        3.215        1.157      202.787       50.911        0.063      339.334       12.594      857.937
05/16/2013  23:15:00     -265.496     -142.846       -7.313      116.799      101.648       63.076    13641.955    10332.272     3978.538        5.944        1.398      301.485       58.364        0.037      339.262       12.470      857.935
05/16/2013  23:16:00     -199.420      -67.342        3.381      129.188       94.076       50.273    16689.499     8850.252     2527.326        3.619        1.403      210.484       62.178        0.087      339.272       12.489      857.946
05/16/2013  23:17:00     -133.544      -92.210        4.414       70.221       58.317       41.332     4931.011     3400.874     1708.368        1.820        0.502      162.286       35.558        0.048      339.260       12.470      857.945
05/16/2013  23:18:00     -230.606     -141.703        9.838      126.550       98.691       52.986    16014.852     9739.984     2807.516        5.095        1.428      270.664       50.642        0.035      339.256       12.462      857.941
05/16/2013  23:19:00     -192.781     -137.462       -2.494      124.952       72.320       57.920    15612.976     5230.127     3354.703        4.013        1.210      236.770       67.212        0.081      339.239       12.432      857.937
05/16/2013  23:20:00     -160.004     -112.934        5.803      136.069       81.536       69.917    18514.686     6648.073     4888.328        3.421        1.503      195.845       79.780        0.166      339.255       12.461      857.933
05/16/2013  23:21:00     -200.155     -129.636       -2.436      116.671      100.885       54.279    13612.159    10177.695     2946.257        4.180        1.337      238.469       50.975        0.046      339.223       12.406      857.935
05/16/2013  23:22:00     -218.605     -106.664       -3.630       82.496       70.965       39.535     6805.552     5036.054     1563.037        3.629        0.670      243.240       31.173        0.016      339.224       12.408      857.933
05/16/2013  23:23:00     -191.041      -42.274        8.327      145.850       84.215       56.540    21272.163     7092.103     3196.770        3.495        1.578      195.662       62.450        0.102      339.218       12.400      857.924
05/16/2013  23:24:00     -213.704      -40.132      -10.093       80.863       96.059       43.312     6538.882     9227.376     1875.901        3.251        0.882      217.440       41.650        0.037      339.201       12.369      857.917
05/16/2013  23:25:00     -222.662      -68.113        8.202      155.936       88.158       52.546    24316.084     7771.894     2761.097        4.456        1.742      232.847       75.871        0.106      339.188       12.349      857.931
05/16/2013  23:26:00     -253.222      -64.852       -9.541       99.412       65.749       45.323     9882.817     4322.903     2054.171        4.234        0.813      261.395       47.884        0.034      339.179       12.333      857.934
05/16/2013  23:27:00     -177.623      -74.058        4.550      105.238       91.741       50.885    11074.953     8416.351     2589.235        2.956        1.104      192.444       54.235        0.079      339.195       12.359      857.945
05/16/2013  23:28:00     -170.738     -147.061       -3.570       99.293       89.230       68.216     9859.142     7961.937     4653.375        3.663        1.124      225.341       70.075        0.097      339.214       12.391      857.949
05/16/2013  23:29:00     -107.017      -81.021       -1.269       89.054       75.034       48.575     7930.541     5630.121     2359.484        1.697        0.796      134.228       49.935        0.138      339.227       12.415      857.963
05/16/2013  23:30:00     -188.083     -133.532       -4.540      131.037       83.198       46.813    17170.612     6921.970     2191.483        3.975        1.314      230.664       50.414        0.048      339.196       12.363      857.977
05/16/2013  23:31:00     -155.773     -154.897       -4.914       95.305       71.394       49.792     9082.952     5097.037     2479.200        3.247        0.833      219.678       57.273        0.068      339.202       12.371      857.983
05/16/2013  23:32:00     -203.394      -85.988       -5.690       80.116       63.908       35.222     6418.517     4084.169     1240.606        3.027        0.587      220.823       35.297        0.026      339.190       12.352      857.986
05/16/2013  23:33:00     -131.822     -128.135        1.201       89.392       64.306       43.036     7990.924     4135.212     1852.057        2.389        0.699      183.835       43.384        0.056      339.187       12.347      857.987
05/16/2013  23:34:00     -173.945     -124.787       -7.205       85.979       71.314       37.858     7392.470     5085.735     1433.230        2.989        0.696      214.076       34.426        0.026      339.183       12.341      857.995
05/16/2013  23:35:00     -177.986      -93.431       -2.064       70.578       71.527       35.146     4981.272     5116.069     1235.207        2.587        0.567      201.018       34.341        0.029      339.166       12.311      858.004
05/16/2013  23:36:00     -147.779     -114.546       -9.904       61.962       58.913       34.144     3839.240     3470.696     1165.810        2.177        0.424      186.975       27.131        0.021      339.167       12.312      858.000
05/16/2013  23:37:00      -90.628      -97.702       -4.348       50.834       39.149       28.429     2584.046     1532.611      808.223        1.135        0.246      133.263       22.687        0.029      339.177       12.331      858.007
05/16/2013  23:38:00      -89.630      -46.578       -4.792       56.048       29.539       18.763     3141.337      872.551      352.042        0.730        0.218      101.010       14.587        0.021      339.190       12.353      858.004
05/16/2013  23:39:00     -111.150      -27.805       -3.482       79.806       47.066       34.403     6368.961     2215.193     1183.548        1.145        0.488      114.575       35.697        0.097      339.155       12.293      858.005
05/16/2013  23:40:00     -113.472      -44.377       -0.565       54.106       30.612       23.945     2927.464      937.072      573.361        0.964        0.222      121.841       23.138        0.036      339.158       12.299      858.008
05/16/2013  23:41:00     -193.816      -31.617       -9.955       53.102       42.016       27.309     2819.818     1765.333      745.766        2.200        0.267      196.377       24.166        0.015      339.164       12.308      858.005
05/16/2013  23:42:00     -149.439      -20.347       -1.589       70.539       57.334       31.482     4975.779     3287.158      991.145        1.600        0.463      150.818       37.108        0.061      339.146       12.278      858.004
05/16/2013  23:43:00     -102.411      -46.505        1.446       94.247       49.988       30.448     8882.443     2498.790      927.063        1.248        0.615      112.476       41.068        0.133      339.199       12.367      858.004
05/16/2013  23:44:00     -193.970     -132.262      -24.995       87.672       58.883       34.197     7686.323     3467.189     1169.463        3.403        0.616      234.772       29.274        0.016      339.208       12.382      857.998
05/16/2013  23:45:00     -131.392      -64.683        5.563       67.034       54.396       30.338     4493.494     2958.930      920.412        1.492        0.419      146.451       35.512        0.059      339.203       12.375      857.999
05/16/2013  23:46:00     -146.214     -103.135       -5.441       50.267       45.264       28.460     2526.778     2048.861      809.951        1.871        0.269      178.928       16.107        0.008      339.241       12.438      857.998
05/16/2013  23:47:00     -141.638      -93.544      -11.381       62.238       39.821       23.375     3873.627     1585.747      546.384        1.747        0.300      169.740       25.155        0.022      339.265       12.478      857.993
05/16/2013  23:48:00      -84.671      -68.998       -7.764       52.167       51.459       17.115     2721.426     2648.024      292.936        0.883        0.283      109.224       18.642        0.029      339.275       12.497      857.989
05/16/2013  23:49:00     -115.998      -63.475       -8.350       54.675       37.676       23.207     2989.388     1419.513      538.564        1.125        0.247      132.229       18.354        0.019      339.283       12.508      857.998
05/16/2013  23:50:00     -118.980      -39.769       -9.953       53.514       42.652       21.661     2863.695     1819.216      469.213        1.049        0.258      125.450       24.778        0.039      339.245       12.446      858.004
05/16/2013  23:51:00      -46.531      -85.422       -2.545       49.059       49.526       26.523     2406.777     2452.870      703.454        0.751        0.278       97.273       17.835        0.034      339.301       12.538      858.022
05/16/2013  23:52:00     -100.915      -54.625       -4.258       49.279       36.121       26.057     2428.397     1304.746      678.973        0.880        0.221      114.751       20.705        0.033      339.311       12.556      858.029
05/16/2013  23:53:00      -62.680      -43.265       -1.145       62.268       33.095       27.469     3877.275     1095.260      754.555        0.576        0.286       76.162       19.105        0.063      339.331       12.591      858.041
05/16/2013  23:54:00      -98.565      -63.638       -0.623       66.628       40.843       27.554     4439.239     1668.117      759.234        1.031        0.343      117.324       23.552        0.040      339.289       12.518      858.047
05/16/2013  23:55:00     -109.610      -71.075        2.524       53.776       44.114       26.663     2891.854     1946.023      710.897        1.131        0.277      130.637       31.477        0.058      339.263       12.476      858.063
05/16/2013  23:56:00      -40.770      -63.481        4.621       29.127       32.140       18.646      848.397     1032.961      347.667        0.397        0.111       75.445        9.746        0.017      339.312       12.558      858.075
05/16/2013  23:57:00      -51.310      -53.070        3.669       34.235       32.277       14.487     1172.006     1041.784      209.874        0.394        0.121       73.818       14.689        0.040      339.318       12.568      858.090
05/16/2013  23:58:00      -74.107      -75.017       -7.908       38.702       22.825       20.246     1497.817      520.962      409.896        0.680        0.121      105.449       13.865        0.017      339.309       12.553      858.107
05/16/2013  23:59:00      -49.763      -67.486        5.207       43.452       26.127       26.366     1888.102      682.611      695.174        0.516        0.163       83.849       14.673        0.031      339.362       12.644      858.104
